<?xml version="1.0" encoding="UTF-8" standalone="no" ?>
<gpx xmlns="http://www.topografix.com/GPX/1/1" xmlns:xsi="http://www.w3.org/2001/XMLSchema-instance" xsi:schemaLocation="http://www.topografix.com/GPX/1/1 http://www.topografix.com/GPX/1/1/gpx.xsd" version="1.1" creator="VisuGPX - https://www.visugpx.com">
  <metadata>
    <name>Framont MARCHE ADEPS 2015 (Mai)</name>
    <desc><![CDATA[MARCHE ADEPS EN FAMILLE LE DIMANCHE ]]></desc>
  </metadata>
  <trk>
    <name><![CDATA[solo scooby]]></name>
    <cmt><![CDATA[AVG 13° MAX17° MIN  13°]]></cmt>
    <trkseg>
      <trkpt lat="49.93603" lon="5.1682">
        <ele>384</ele>
        <time>2015-05-03T08:00:27Z</time>
      </trkpt>
      <trkpt lat="49.93602" lon="5.1682">
        <ele>384</ele>
        <time>2015-05-03T08:00:33Z</time>
      </trkpt>
      <trkpt lat="49.93602" lon="5.16823">
        <ele>385</ele>
        <time>2015-05-03T08:00:39Z</time>
      </trkpt>
      <trkpt lat="49.93603" lon="5.16823">
        <ele>385</ele>
        <time>2015-05-03T08:00:44Z</time>
      </trkpt>
      <trkpt lat="49.93603" lon="5.16823">
        <ele>384</ele>
        <time>2015-05-03T08:00:49Z</time>
      </trkpt>
      <trkpt lat="49.93604" lon="5.16825">
        <ele>384</ele>
        <time>2015-05-03T08:00:55Z</time>
      </trkpt>
      <trkpt lat="49.93604" lon="5.16827">
        <ele>384</ele>
        <time>2015-05-03T08:01:01Z</time>
      </trkpt>
      <trkpt lat="49.93604" lon="5.16828">
        <ele>384</ele>
        <time>2015-05-03T08:01:06Z</time>
      </trkpt>
      <trkpt lat="49.93605" lon="5.1683">
        <ele>384</ele>
        <time>2015-05-03T08:01:11Z</time>
      </trkpt>
      <trkpt lat="49.93604" lon="5.16839">
        <ele>384</ele>
        <time>2015-05-03T08:01:17Z</time>
      </trkpt>
      <trkpt lat="49.93602" lon="5.16844">
        <ele>384</ele>
        <time>2015-05-03T08:01:23Z</time>
      </trkpt>
      <trkpt lat="49.93599" lon="5.16846">
        <ele>384</ele>
        <time>2015-05-03T08:01:28Z</time>
      </trkpt>
      <trkpt lat="49.93595" lon="5.16845">
        <ele>384</ele>
        <time>2015-05-03T08:01:33Z</time>
      </trkpt>
      <trkpt lat="49.93589" lon="5.16845">
        <ele>384</ele>
        <time>2015-05-03T08:01:39Z</time>
      </trkpt>
      <trkpt lat="49.93588" lon="5.16844">
        <ele>385</ele>
        <time>2015-05-03T08:01:44Z</time>
      </trkpt>
      <trkpt lat="49.93588" lon="5.16843">
        <ele>385</ele>
        <time>2015-05-03T08:01:49Z</time>
      </trkpt>
      <trkpt lat="49.93588" lon="5.16843">
        <ele>385</ele>
        <time>2015-05-03T08:01:54Z</time>
      </trkpt>
      <trkpt lat="49.93587" lon="5.16843">
        <ele>385</ele>
        <time>2015-05-03T08:02:00Z</time>
      </trkpt>
      <trkpt lat="49.93586" lon="5.16845">
        <ele>384</ele>
        <time>2015-05-03T08:02:05Z</time>
      </trkpt>
      <trkpt lat="49.93586" lon="5.16845">
        <ele>385</ele>
        <time>2015-05-03T08:02:11Z</time>
      </trkpt>
      <trkpt lat="49.93585" lon="5.16845">
        <ele>384</ele>
        <time>2015-05-03T08:02:17Z</time>
      </trkpt>
      <trkpt lat="49.93585" lon="5.16845">
        <ele>384</ele>
        <time>2015-05-03T08:02:23Z</time>
      </trkpt>
      <trkpt lat="49.93584" lon="5.16844">
        <ele>384</ele>
        <time>2015-05-03T08:02:29Z</time>
      </trkpt>
      <trkpt lat="49.93584" lon="5.16844">
        <ele>385</ele>
        <time>2015-05-03T08:02:34Z</time>
      </trkpt>
      <trkpt lat="49.93583" lon="5.16843">
        <ele>384</ele>
        <time>2015-05-03T08:02:39Z</time>
      </trkpt>
      <trkpt lat="49.93583" lon="5.16842">
        <ele>384</ele>
        <time>2015-05-03T08:02:44Z</time>
      </trkpt>
      <trkpt lat="49.93581" lon="5.1684">
        <ele>384</ele>
        <time>2015-05-03T08:02:50Z</time>
      </trkpt>
      <trkpt lat="49.93581" lon="5.16839">
        <ele>383</ele>
        <time>2015-05-03T08:02:55Z</time>
      </trkpt>
      <trkpt lat="49.9358" lon="5.16838">
        <ele>384</ele>
        <time>2015-05-03T08:03:01Z</time>
      </trkpt>
      <trkpt lat="49.9358" lon="5.16838">
        <ele>384</ele>
        <time>2015-05-03T08:03:06Z</time>
      </trkpt>
      <trkpt lat="49.9358" lon="5.16839">
        <ele>384</ele>
        <time>2015-05-03T08:03:11Z</time>
      </trkpt>
      <trkpt lat="49.93581" lon="5.1684">
        <ele>384</ele>
        <time>2015-05-03T08:03:16Z</time>
      </trkpt>
      <trkpt lat="49.93581" lon="5.1684">
        <ele>385</ele>
        <time>2015-05-03T08:03:21Z</time>
      </trkpt>
      <trkpt lat="49.93579" lon="5.16842">
        <ele>384</ele>
        <time>2015-05-03T08:03:26Z</time>
      </trkpt>
      <trkpt lat="49.93574" lon="5.16843">
        <ele>384</ele>
        <time>2015-05-03T08:03:32Z</time>
      </trkpt>
      <trkpt lat="49.93568" lon="5.16844">
        <ele>385</ele>
        <time>2015-05-03T08:03:37Z</time>
      </trkpt>
      <trkpt lat="49.93563" lon="5.16842">
        <ele>385</ele>
        <time>2015-05-03T08:03:42Z</time>
      </trkpt>
      <trkpt lat="49.93555" lon="5.16843">
        <ele>385</ele>
        <time>2015-05-03T08:03:48Z</time>
      </trkpt>
      <trkpt lat="49.93549" lon="5.16843">
        <ele>385</ele>
        <time>2015-05-03T08:03:53Z</time>
      </trkpt>
      <trkpt lat="49.93542" lon="5.16843">
        <ele>385</ele>
        <time>2015-05-03T08:03:58Z</time>
      </trkpt>
      <trkpt lat="49.93535" lon="5.16843">
        <ele>386</ele>
        <time>2015-05-03T08:04:03Z</time>
      </trkpt>
      <trkpt lat="49.93528" lon="5.16844">
        <ele>386</ele>
        <time>2015-05-03T08:04:08Z</time>
      </trkpt>
      <trkpt lat="49.9352" lon="5.16844">
        <ele>386</ele>
        <time>2015-05-03T08:04:13Z</time>
      </trkpt>
      <trkpt lat="49.93512" lon="5.16844">
        <ele>387</ele>
        <time>2015-05-03T08:04:18Z</time>
      </trkpt>
      <trkpt lat="49.93504" lon="5.16845">
        <ele>387</ele>
        <time>2015-05-03T08:04:23Z</time>
      </trkpt>
      <trkpt lat="49.93496" lon="5.16845">
        <ele>387</ele>
        <time>2015-05-03T08:04:28Z</time>
      </trkpt>
      <trkpt lat="49.93488" lon="5.16845">
        <ele>387</ele>
        <time>2015-05-03T08:04:34Z</time>
      </trkpt>
      <trkpt lat="49.93484" lon="5.16846">
        <ele>388</ele>
        <time>2015-05-03T08:04:40Z</time>
      </trkpt>
      <trkpt lat="49.93482" lon="5.16847">
        <ele>388</ele>
        <time>2015-05-03T08:04:45Z</time>
      </trkpt>
      <trkpt lat="49.93481" lon="5.16849">
        <ele>388</ele>
        <time>2015-05-03T08:04:51Z</time>
      </trkpt>
      <trkpt lat="49.93482" lon="5.1685">
        <ele>388</ele>
        <time>2015-05-03T08:04:58Z</time>
      </trkpt>
      <trkpt lat="49.93481" lon="5.1685">
        <ele>387</ele>
        <time>2015-05-03T08:05:03Z</time>
      </trkpt>
      <trkpt lat="49.93473" lon="5.1685">
        <ele>387</ele>
        <time>2015-05-03T08:05:09Z</time>
      </trkpt>
      <trkpt lat="49.93466" lon="5.1685">
        <ele>387</ele>
        <time>2015-05-03T08:05:14Z</time>
      </trkpt>
      <trkpt lat="49.93458" lon="5.1685">
        <ele>387</ele>
        <time>2015-05-03T08:05:19Z</time>
      </trkpt>
      <trkpt lat="49.93449" lon="5.1685">
        <ele>388</ele>
        <time>2015-05-03T08:05:25Z</time>
      </trkpt>
      <trkpt lat="49.93441" lon="5.1685">
        <ele>389</ele>
        <time>2015-05-03T08:05:30Z</time>
      </trkpt>
      <trkpt lat="49.93434" lon="5.16851">
        <ele>389</ele>
        <time>2015-05-03T08:05:35Z</time>
      </trkpt>
      <trkpt lat="49.93426" lon="5.16851">
        <ele>389</ele>
        <time>2015-05-03T08:05:40Z</time>
      </trkpt>
      <trkpt lat="49.93417" lon="5.16851">
        <ele>389</ele>
        <time>2015-05-03T08:05:46Z</time>
      </trkpt>
      <trkpt lat="49.93409" lon="5.16851">
        <ele>389</ele>
        <time>2015-05-03T08:05:51Z</time>
      </trkpt>
      <trkpt lat="49.93401" lon="5.16851">
        <ele>389</ele>
        <time>2015-05-03T08:05:56Z</time>
      </trkpt>
      <trkpt lat="49.93394" lon="5.16851">
        <ele>389</ele>
        <time>2015-05-03T08:06:01Z</time>
      </trkpt>
      <trkpt lat="49.93386" lon="5.16851">
        <ele>390</ele>
        <time>2015-05-03T08:06:06Z</time>
      </trkpt>
      <trkpt lat="49.93378" lon="5.16853">
        <ele>390</ele>
        <time>2015-05-03T08:06:11Z</time>
      </trkpt>
      <trkpt lat="49.9337" lon="5.16854">
        <ele>390</ele>
        <time>2015-05-03T08:06:17Z</time>
      </trkpt>
      <trkpt lat="49.93363" lon="5.16854">
        <ele>390</ele>
        <time>2015-05-03T08:06:22Z</time>
      </trkpt>
      <trkpt lat="49.93356" lon="5.16854">
        <ele>390</ele>
        <time>2015-05-03T08:06:27Z</time>
      </trkpt>
      <trkpt lat="49.93349" lon="5.16854">
        <ele>390</ele>
        <time>2015-05-03T08:06:33Z</time>
      </trkpt>
      <trkpt lat="49.93342" lon="5.16856">
        <ele>390</ele>
        <time>2015-05-03T08:06:38Z</time>
      </trkpt>
      <trkpt lat="49.93333" lon="5.16857">
        <ele>390</ele>
        <time>2015-05-03T08:06:44Z</time>
      </trkpt>
      <trkpt lat="49.93325" lon="5.16858">
        <ele>390</ele>
        <time>2015-05-03T08:06:49Z</time>
      </trkpt>
      <trkpt lat="49.93318" lon="5.16858">
        <ele>391</ele>
        <time>2015-05-03T08:06:54Z</time>
      </trkpt>
      <trkpt lat="49.93311" lon="5.16858">
        <ele>392</ele>
        <time>2015-05-03T08:06:59Z</time>
      </trkpt>
      <trkpt lat="49.93302" lon="5.16859">
        <ele>392</ele>
        <time>2015-05-03T08:07:05Z</time>
      </trkpt>
      <trkpt lat="49.93292" lon="5.1686">
        <ele>392</ele>
        <time>2015-05-03T08:07:11Z</time>
      </trkpt>
      <trkpt lat="49.93284" lon="5.1686">
        <ele>392</ele>
        <time>2015-05-03T08:07:16Z</time>
      </trkpt>
      <trkpt lat="49.93277" lon="5.16861">
        <ele>392</ele>
        <time>2015-05-03T08:07:21Z</time>
      </trkpt>
      <trkpt lat="49.9327" lon="5.16861">
        <ele>392</ele>
        <time>2015-05-03T08:07:26Z</time>
      </trkpt>
      <trkpt lat="49.93264" lon="5.16862">
        <ele>393</ele>
        <time>2015-05-03T08:07:31Z</time>
      </trkpt>
      <trkpt lat="49.93257" lon="5.16861">
        <ele>393</ele>
        <time>2015-05-03T08:07:36Z</time>
      </trkpt>
      <trkpt lat="49.93251" lon="5.1686">
        <ele>393</ele>
        <time>2015-05-03T08:07:41Z</time>
      </trkpt>
      <trkpt lat="49.93243" lon="5.1686">
        <ele>393</ele>
        <time>2015-05-03T08:07:47Z</time>
      </trkpt>
      <trkpt lat="49.93236" lon="5.1686">
        <ele>393</ele>
        <time>2015-05-03T08:07:52Z</time>
      </trkpt>
      <trkpt lat="49.93229" lon="5.1686">
        <ele>393</ele>
        <time>2015-05-03T08:07:58Z</time>
      </trkpt>
      <trkpt lat="49.93222" lon="5.1686">
        <ele>393</ele>
        <time>2015-05-03T08:08:03Z</time>
      </trkpt>
      <trkpt lat="49.93212" lon="5.16862">
        <ele>393</ele>
        <time>2015-05-03T08:08:09Z</time>
      </trkpt>
      <trkpt lat="49.93204" lon="5.16863">
        <ele>393</ele>
        <time>2015-05-03T08:08:14Z</time>
      </trkpt>
      <trkpt lat="49.93194" lon="5.16863">
        <ele>394</ele>
        <time>2015-05-03T08:08:20Z</time>
      </trkpt>
      <trkpt lat="49.93186" lon="5.16863">
        <ele>394</ele>
        <time>2015-05-03T08:08:25Z</time>
      </trkpt>
      <trkpt lat="49.93177" lon="5.16864">
        <ele>394</ele>
        <time>2015-05-03T08:08:31Z</time>
      </trkpt>
      <trkpt lat="49.93169" lon="5.16866">
        <ele>394</ele>
        <time>2015-05-03T08:08:36Z</time>
      </trkpt>
      <trkpt lat="49.9316" lon="5.16867">
        <ele>395</ele>
        <time>2015-05-03T08:08:42Z</time>
      </trkpt>
      <trkpt lat="49.93153" lon="5.16868">
        <ele>395</ele>
        <time>2015-05-03T08:08:47Z</time>
      </trkpt>
      <trkpt lat="49.93144" lon="5.16868">
        <ele>394</ele>
        <time>2015-05-03T08:08:53Z</time>
      </trkpt>
      <trkpt lat="49.93136" lon="5.16869">
        <ele>395</ele>
        <time>2015-05-03T08:08:58Z</time>
      </trkpt>
      <trkpt lat="49.93126" lon="5.16871">
        <ele>395</ele>
        <time>2015-05-03T08:09:04Z</time>
      </trkpt>
      <trkpt lat="49.93118" lon="5.16873">
        <ele>395</ele>
        <time>2015-05-03T08:09:09Z</time>
      </trkpt>
      <trkpt lat="49.93108" lon="5.16874">
        <ele>395</ele>
        <time>2015-05-03T08:09:15Z</time>
      </trkpt>
      <trkpt lat="49.931" lon="5.16875">
        <ele>396</ele>
        <time>2015-05-03T08:09:20Z</time>
      </trkpt>
      <trkpt lat="49.93092" lon="5.16876">
        <ele>396</ele>
        <time>2015-05-03T08:09:25Z</time>
      </trkpt>
      <trkpt lat="49.93085" lon="5.16877">
        <ele>396</ele>
        <time>2015-05-03T08:09:30Z</time>
      </trkpt>
      <trkpt lat="49.93077" lon="5.16878">
        <ele>396</ele>
        <time>2015-05-03T08:09:35Z</time>
      </trkpt>
      <trkpt lat="49.93069" lon="5.16879">
        <ele>397</ele>
        <time>2015-05-03T08:09:41Z</time>
      </trkpt>
      <trkpt lat="49.93063" lon="5.1688">
        <ele>397</ele>
        <time>2015-05-03T08:09:46Z</time>
      </trkpt>
      <trkpt lat="49.93055" lon="5.16881">
        <ele>398</ele>
        <time>2015-05-03T08:09:52Z</time>
      </trkpt>
      <trkpt lat="49.93048" lon="5.16881">
        <ele>397</ele>
        <time>2015-05-03T08:09:58Z</time>
      </trkpt>
      <trkpt lat="49.93041" lon="5.16881">
        <ele>397</ele>
        <time>2015-05-03T08:10:03Z</time>
      </trkpt>
      <trkpt lat="49.93034" lon="5.16882">
        <ele>397</ele>
        <time>2015-05-03T08:10:08Z</time>
      </trkpt>
      <trkpt lat="49.93027" lon="5.16884">
        <ele>397</ele>
        <time>2015-05-03T08:10:13Z</time>
      </trkpt>
      <trkpt lat="49.93018" lon="5.16886">
        <ele>398</ele>
        <time>2015-05-03T08:10:19Z</time>
      </trkpt>
      <trkpt lat="49.93011" lon="5.16889">
        <ele>398</ele>
        <time>2015-05-03T08:10:24Z</time>
      </trkpt>
      <trkpt lat="49.93002" lon="5.16892">
        <ele>398</ele>
        <time>2015-05-03T08:10:30Z</time>
      </trkpt>
      <trkpt lat="49.92995" lon="5.16894">
        <ele>398</ele>
        <time>2015-05-03T08:10:35Z</time>
      </trkpt>
      <trkpt lat="49.92987" lon="5.16898">
        <ele>398</ele>
        <time>2015-05-03T08:10:40Z</time>
      </trkpt>
      <trkpt lat="49.92979" lon="5.16903">
        <ele>397</ele>
        <time>2015-05-03T08:10:46Z</time>
      </trkpt>
      <trkpt lat="49.92971" lon="5.16907">
        <ele>398</ele>
        <time>2015-05-03T08:10:51Z</time>
      </trkpt>
      <trkpt lat="49.92964" lon="5.16911">
        <ele>399</ele>
        <time>2015-05-03T08:10:56Z</time>
      </trkpt>
      <trkpt lat="49.92957" lon="5.16915">
        <ele>399</ele>
        <time>2015-05-03T08:11:01Z</time>
      </trkpt>
      <trkpt lat="49.9295" lon="5.1692">
        <ele>399</ele>
        <time>2015-05-03T08:11:06Z</time>
      </trkpt>
      <trkpt lat="49.92942" lon="5.16924">
        <ele>399</ele>
        <time>2015-05-03T08:11:12Z</time>
      </trkpt>
      <trkpt lat="49.92935" lon="5.16928">
        <ele>400</ele>
        <time>2015-05-03T08:11:17Z</time>
      </trkpt>
      <trkpt lat="49.92929" lon="5.16932">
        <ele>400</ele>
        <time>2015-05-03T08:11:22Z</time>
      </trkpt>
      <trkpt lat="49.92921" lon="5.16937">
        <ele>400</ele>
        <time>2015-05-03T08:11:28Z</time>
      </trkpt>
      <trkpt lat="49.92913" lon="5.16942">
        <ele>400</ele>
        <time>2015-05-03T08:11:34Z</time>
      </trkpt>
      <trkpt lat="49.92907" lon="5.16945">
        <ele>400</ele>
        <time>2015-05-03T08:11:39Z</time>
      </trkpt>
      <trkpt lat="49.92899" lon="5.16949">
        <ele>400</ele>
        <time>2015-05-03T08:11:45Z</time>
      </trkpt>
      <trkpt lat="49.92893" lon="5.16953">
        <ele>400</ele>
        <time>2015-05-03T08:11:50Z</time>
      </trkpt>
      <trkpt lat="49.92886" lon="5.16958">
        <ele>400</ele>
        <time>2015-05-03T08:11:56Z</time>
      </trkpt>
      <trkpt lat="49.9288" lon="5.16963">
        <ele>400</ele>
        <time>2015-05-03T08:12:01Z</time>
      </trkpt>
      <trkpt lat="49.92873" lon="5.16969">
        <ele>401</ele>
        <time>2015-05-03T08:12:07Z</time>
      </trkpt>
      <trkpt lat="49.92867" lon="5.16976">
        <ele>401</ele>
        <time>2015-05-03T08:12:12Z</time>
      </trkpt>
      <trkpt lat="49.92862" lon="5.16983">
        <ele>401</ele>
        <time>2015-05-03T08:12:17Z</time>
      </trkpt>
      <trkpt lat="49.92857" lon="5.1699">
        <ele>402</ele>
        <time>2015-05-03T08:12:22Z</time>
      </trkpt>
      <trkpt lat="49.9285" lon="5.16999">
        <ele>402</ele>
        <time>2015-05-03T08:12:28Z</time>
      </trkpt>
      <trkpt lat="49.92845" lon="5.17008">
        <ele>401</ele>
        <time>2015-05-03T08:12:34Z</time>
      </trkpt>
      <trkpt lat="49.9284" lon="5.17017">
        <ele>402</ele>
        <time>2015-05-03T08:12:40Z</time>
      </trkpt>
      <trkpt lat="49.92835" lon="5.17024">
        <ele>402</ele>
        <time>2015-05-03T08:12:45Z</time>
      </trkpt>
      <trkpt lat="49.9283" lon="5.1703">
        <ele>403</ele>
        <time>2015-05-03T08:12:50Z</time>
      </trkpt>
      <trkpt lat="49.92825" lon="5.17036">
        <ele>403</ele>
        <time>2015-05-03T08:12:55Z</time>
      </trkpt>
      <trkpt lat="49.92822" lon="5.17047">
        <ele>403</ele>
        <time>2015-05-03T08:13:01Z</time>
      </trkpt>
      <trkpt lat="49.92821" lon="5.17056">
        <ele>403</ele>
        <time>2015-05-03T08:13:06Z</time>
      </trkpt>
      <trkpt lat="49.92818" lon="5.17064">
        <ele>403</ele>
        <time>2015-05-03T08:13:12Z</time>
      </trkpt>
      <trkpt lat="49.92818" lon="5.17072">
        <ele>402</ele>
        <time>2015-05-03T08:13:17Z</time>
      </trkpt>
      <trkpt lat="49.92819" lon="5.17078">
        <ele>402</ele>
        <time>2015-05-03T08:13:22Z</time>
      </trkpt>
      <trkpt lat="49.92819" lon="5.17087">
        <ele>402</ele>
        <time>2015-05-03T08:13:28Z</time>
      </trkpt>
      <trkpt lat="49.92819" lon="5.17095">
        <ele>402</ele>
        <time>2015-05-03T08:13:33Z</time>
      </trkpt>
      <trkpt lat="49.92819" lon="5.17103">
        <ele>402</ele>
        <time>2015-05-03T08:13:39Z</time>
      </trkpt>
      <trkpt lat="49.9282" lon="5.17111">
        <ele>402</ele>
        <time>2015-05-03T08:13:45Z</time>
      </trkpt>
      <trkpt lat="49.9282" lon="5.17119">
        <ele>402</ele>
        <time>2015-05-03T08:13:50Z</time>
      </trkpt>
      <trkpt lat="49.92821" lon="5.1713">
        <ele>402</ele>
        <time>2015-05-03T08:13:56Z</time>
      </trkpt>
      <trkpt lat="49.92821" lon="5.17138">
        <ele>402</ele>
        <time>2015-05-03T08:14:01Z</time>
      </trkpt>
      <trkpt lat="49.92821" lon="5.17148">
        <ele>402</ele>
        <time>2015-05-03T08:14:07Z</time>
      </trkpt>
      <trkpt lat="49.92821" lon="5.17159">
        <ele>401</ele>
        <time>2015-05-03T08:14:13Z</time>
      </trkpt>
      <trkpt lat="49.9282" lon="5.17168">
        <ele>401</ele>
        <time>2015-05-03T08:14:18Z</time>
      </trkpt>
      <trkpt lat="49.92819" lon="5.17179">
        <ele>401</ele>
        <time>2015-05-03T08:14:24Z</time>
      </trkpt>
      <trkpt lat="49.92817" lon="5.17189">
        <ele>401</ele>
        <time>2015-05-03T08:14:29Z</time>
      </trkpt>
      <trkpt lat="49.92815" lon="5.172">
        <ele>401</ele>
        <time>2015-05-03T08:14:35Z</time>
      </trkpt>
      <trkpt lat="49.92814" lon="5.17209">
        <ele>401</ele>
        <time>2015-05-03T08:14:40Z</time>
      </trkpt>
      <trkpt lat="49.92812" lon="5.17214">
        <ele>401</ele>
        <time>2015-05-03T08:14:45Z</time>
      </trkpt>
      <trkpt lat="49.92809" lon="5.17223">
        <ele>401</ele>
        <time>2015-05-03T08:14:50Z</time>
      </trkpt>
      <trkpt lat="49.92809" lon="5.17232">
        <ele>401</ele>
        <time>2015-05-03T08:14:55Z</time>
      </trkpt>
      <trkpt lat="49.92811" lon="5.17242">
        <ele>401</ele>
        <time>2015-05-03T08:15:00Z</time>
      </trkpt>
      <trkpt lat="49.92811" lon="5.17253">
        <ele>401</ele>
        <time>2015-05-03T08:15:05Z</time>
      </trkpt>
      <trkpt lat="49.92813" lon="5.17263">
        <ele>401</ele>
        <time>2015-05-03T08:15:10Z</time>
      </trkpt>
      <trkpt lat="49.92813" lon="5.17274">
        <ele>401</ele>
        <time>2015-05-03T08:15:15Z</time>
      </trkpt>
      <trkpt lat="49.92813" lon="5.17287">
        <ele>401</ele>
        <time>2015-05-03T08:15:21Z</time>
      </trkpt>
      <trkpt lat="49.92814" lon="5.17297">
        <ele>401</ele>
        <time>2015-05-03T08:15:26Z</time>
      </trkpt>
      <trkpt lat="49.92817" lon="5.17309">
        <ele>401</ele>
        <time>2015-05-03T08:15:32Z</time>
      </trkpt>
      <trkpt lat="49.92817" lon="5.17319">
        <ele>401</ele>
        <time>2015-05-03T08:15:37Z</time>
      </trkpt>
      <trkpt lat="49.92817" lon="5.17333">
        <ele>401</ele>
        <time>2015-05-03T08:15:43Z</time>
      </trkpt>
      <trkpt lat="49.92817" lon="5.17344">
        <ele>402</ele>
        <time>2015-05-03T08:15:48Z</time>
      </trkpt>
      <trkpt lat="49.92816" lon="5.17358">
        <ele>402</ele>
        <time>2015-05-03T08:15:54Z</time>
      </trkpt>
      <trkpt lat="49.92814" lon="5.1737">
        <ele>403</ele>
        <time>2015-05-03T08:16:00Z</time>
      </trkpt>
      <trkpt lat="49.92812" lon="5.17378">
        <ele>403</ele>
        <time>2015-05-03T08:16:05Z</time>
      </trkpt>
      <trkpt lat="49.92811" lon="5.17386">
        <ele>404</ele>
        <time>2015-05-03T08:16:10Z</time>
      </trkpt>
      <trkpt lat="49.92811" lon="5.17397">
        <ele>405</ele>
        <time>2015-05-03T08:16:16Z</time>
      </trkpt>
      <trkpt lat="49.92809" lon="5.17406">
        <ele>405</ele>
        <time>2015-05-03T08:16:21Z</time>
      </trkpt>
      <trkpt lat="49.92805" lon="5.17417">
        <ele>405</ele>
        <time>2015-05-03T08:16:27Z</time>
      </trkpt>
      <trkpt lat="49.92804" lon="5.17427">
        <ele>406</ele>
        <time>2015-05-03T08:16:32Z</time>
      </trkpt>
      <trkpt lat="49.92802" lon="5.17441">
        <ele>407</ele>
        <time>2015-05-03T08:16:38Z</time>
      </trkpt>
      <trkpt lat="49.92801" lon="5.1745">
        <ele>407</ele>
        <time>2015-05-03T08:16:43Z</time>
      </trkpt>
      <trkpt lat="49.928" lon="5.1746">
        <ele>408</ele>
        <time>2015-05-03T08:16:48Z</time>
      </trkpt>
      <trkpt lat="49.92798" lon="5.17472">
        <ele>408</ele>
        <time>2015-05-03T08:16:54Z</time>
      </trkpt>
      <trkpt lat="49.92797" lon="5.17482">
        <ele>408</ele>
        <time>2015-05-03T08:16:59Z</time>
      </trkpt>
      <trkpt lat="49.92797" lon="5.17494">
        <ele>408</ele>
        <time>2015-05-03T08:17:04Z</time>
      </trkpt>
      <trkpt lat="49.92797" lon="5.17504">
        <ele>409</ele>
        <time>2015-05-03T08:17:09Z</time>
      </trkpt>
      <trkpt lat="49.92798" lon="5.17517">
        <ele>408</ele>
        <time>2015-05-03T08:17:15Z</time>
      </trkpt>
      <trkpt lat="49.92799" lon="5.17528">
        <ele>409</ele>
        <time>2015-05-03T08:17:20Z</time>
      </trkpt>
      <trkpt lat="49.92801" lon="5.17542">
        <ele>409</ele>
        <time>2015-05-03T08:17:26Z</time>
      </trkpt>
      <trkpt lat="49.92802" lon="5.17553">
        <ele>409</ele>
        <time>2015-05-03T08:17:32Z</time>
      </trkpt>
      <trkpt lat="49.92803" lon="5.17564">
        <ele>409</ele>
        <time>2015-05-03T08:17:38Z</time>
      </trkpt>
      <trkpt lat="49.92803" lon="5.17574">
        <ele>410</ele>
        <time>2015-05-03T08:17:43Z</time>
      </trkpt>
      <trkpt lat="49.92803" lon="5.17584">
        <ele>410</ele>
        <time>2015-05-03T08:17:48Z</time>
      </trkpt>
      <trkpt lat="49.92803" lon="5.17595">
        <ele>410</ele>
        <time>2015-05-03T08:17:53Z</time>
      </trkpt>
      <trkpt lat="49.92802" lon="5.17609">
        <ele>410</ele>
        <time>2015-05-03T08:17:59Z</time>
      </trkpt>
      <trkpt lat="49.92802" lon="5.17621">
        <ele>410</ele>
        <time>2015-05-03T08:18:04Z</time>
      </trkpt>
      <trkpt lat="49.92802" lon="5.17636">
        <ele>410</ele>
        <time>2015-05-03T08:18:10Z</time>
      </trkpt>
      <trkpt lat="49.92801" lon="5.17651">
        <ele>411</ele>
        <time>2015-05-03T08:18:16Z</time>
      </trkpt>
      <trkpt lat="49.92802" lon="5.17662">
        <ele>411</ele>
        <time>2015-05-03T08:18:21Z</time>
      </trkpt>
      <trkpt lat="49.92802" lon="5.17673">
        <ele>411</ele>
        <time>2015-05-03T08:18:27Z</time>
      </trkpt>
      <trkpt lat="49.92803" lon="5.17683">
        <ele>411</ele>
        <time>2015-05-03T08:18:32Z</time>
      </trkpt>
      <trkpt lat="49.92804" lon="5.17695">
        <ele>411</ele>
        <time>2015-05-03T08:18:38Z</time>
      </trkpt>
      <trkpt lat="49.92804" lon="5.17704">
        <ele>411</ele>
        <time>2015-05-03T08:18:43Z</time>
      </trkpt>
      <trkpt lat="49.92805" lon="5.17714">
        <ele>412</ele>
        <time>2015-05-03T08:18:48Z</time>
      </trkpt>
      <trkpt lat="49.92807" lon="5.17726">
        <ele>412</ele>
        <time>2015-05-03T08:18:54Z</time>
      </trkpt>
      <trkpt lat="49.92809" lon="5.17736">
        <ele>413</ele>
        <time>2015-05-03T08:18:59Z</time>
      </trkpt>
      <trkpt lat="49.92811" lon="5.17749">
        <ele>413</ele>
        <time>2015-05-03T08:19:05Z</time>
      </trkpt>
      <trkpt lat="49.92813" lon="5.17759">
        <ele>413</ele>
        <time>2015-05-03T08:19:10Z</time>
      </trkpt>
      <trkpt lat="49.92815" lon="5.17771">
        <ele>413</ele>
        <time>2015-05-03T08:19:16Z</time>
      </trkpt>
      <trkpt lat="49.92817" lon="5.1778">
        <ele>413</ele>
        <time>2015-05-03T08:19:21Z</time>
      </trkpt>
      <trkpt lat="49.92819" lon="5.17793">
        <ele>414</ele>
        <time>2015-05-03T08:19:27Z</time>
      </trkpt>
      <trkpt lat="49.92822" lon="5.17802">
        <ele>413</ele>
        <time>2015-05-03T08:19:32Z</time>
      </trkpt>
      <trkpt lat="49.92823" lon="5.17812">
        <ele>414</ele>
        <time>2015-05-03T08:19:37Z</time>
      </trkpt>
      <trkpt lat="49.92826" lon="5.17824">
        <ele>414</ele>
        <time>2015-05-03T08:19:43Z</time>
      </trkpt>
      <trkpt lat="49.9283" lon="5.17833">
        <ele>414</ele>
        <time>2015-05-03T08:19:49Z</time>
      </trkpt>
      <trkpt lat="49.92832" lon="5.17843">
        <ele>414</ele>
        <time>2015-05-03T08:19:54Z</time>
      </trkpt>
      <trkpt lat="49.92834" lon="5.17854">
        <ele>414</ele>
        <time>2015-05-03T08:19:59Z</time>
      </trkpt>
      <trkpt lat="49.92836" lon="5.17868">
        <ele>414</ele>
        <time>2015-05-03T08:20:04Z</time>
      </trkpt>
      <trkpt lat="49.92839" lon="5.1788">
        <ele>414</ele>
        <time>2015-05-03T08:20:10Z</time>
      </trkpt>
      <trkpt lat="49.92841" lon="5.1789">
        <ele>414</ele>
        <time>2015-05-03T08:20:15Z</time>
      </trkpt>
      <trkpt lat="49.92845" lon="5.17906">
        <ele>414</ele>
        <time>2015-05-03T08:20:21Z</time>
      </trkpt>
      <trkpt lat="49.92845" lon="5.17916">
        <ele>415</ele>
        <time>2015-05-03T08:20:26Z</time>
      </trkpt>
      <trkpt lat="49.92846" lon="5.1793">
        <ele>415</ele>
        <time>2015-05-03T08:20:32Z</time>
      </trkpt>
      <trkpt lat="49.92847" lon="5.17942">
        <ele>415</ele>
        <time>2015-05-03T08:20:37Z</time>
      </trkpt>
      <trkpt lat="49.92849" lon="5.17953">
        <ele>414</ele>
        <time>2015-05-03T08:20:43Z</time>
      </trkpt>
      <trkpt lat="49.92849" lon="5.17963">
        <ele>415</ele>
        <time>2015-05-03T08:20:48Z</time>
      </trkpt>
      <trkpt lat="49.92851" lon="5.17974">
        <ele>415</ele>
        <time>2015-05-03T08:20:53Z</time>
      </trkpt>
      <trkpt lat="49.92852" lon="5.17984">
        <ele>414</ele>
        <time>2015-05-03T08:20:59Z</time>
      </trkpt>
      <trkpt lat="49.92854" lon="5.17996">
        <ele>414</ele>
        <time>2015-05-03T08:21:05Z</time>
      </trkpt>
      <trkpt lat="49.92854" lon="5.18009">
        <ele>415</ele>
        <time>2015-05-03T08:21:11Z</time>
      </trkpt>
      <trkpt lat="49.92855" lon="5.1802">
        <ele>415</ele>
        <time>2015-05-03T08:21:17Z</time>
      </trkpt>
      <trkpt lat="49.92857" lon="5.18032">
        <ele>415</ele>
        <time>2015-05-03T08:21:22Z</time>
      </trkpt>
      <trkpt lat="49.92856" lon="5.18045">
        <ele>415</ele>
        <time>2015-05-03T08:21:28Z</time>
      </trkpt>
      <trkpt lat="49.92855" lon="5.18057">
        <ele>415</ele>
        <time>2015-05-03T08:21:33Z</time>
      </trkpt>
      <trkpt lat="49.92856" lon="5.18067">
        <ele>415</ele>
        <time>2015-05-03T08:21:38Z</time>
      </trkpt>
      <trkpt lat="49.92855" lon="5.18077">
        <ele>414</ele>
        <time>2015-05-03T08:21:43Z</time>
      </trkpt>
      <trkpt lat="49.92853" lon="5.18088">
        <ele>415</ele>
        <time>2015-05-03T08:21:48Z</time>
      </trkpt>
      <trkpt lat="49.92849" lon="5.18099">
        <ele>415</ele>
        <time>2015-05-03T08:21:54Z</time>
      </trkpt>
      <trkpt lat="49.92846" lon="5.1811">
        <ele>415</ele>
        <time>2015-05-03T08:21:59Z</time>
      </trkpt>
      <trkpt lat="49.92845" lon="5.1812">
        <ele>415</ele>
        <time>2015-05-03T08:22:04Z</time>
      </trkpt>
      <trkpt lat="49.92842" lon="5.1813">
        <ele>415</ele>
        <time>2015-05-03T08:22:09Z</time>
      </trkpt>
      <trkpt lat="49.9284" lon="5.18138">
        <ele>415</ele>
        <time>2015-05-03T08:22:14Z</time>
      </trkpt>
      <trkpt lat="49.92836" lon="5.18148">
        <ele>415</ele>
        <time>2015-05-03T08:22:19Z</time>
      </trkpt>
      <trkpt lat="49.92833" lon="5.18158">
        <ele>415</ele>
        <time>2015-05-03T08:22:24Z</time>
      </trkpt>
      <trkpt lat="49.92833" lon="5.18169">
        <ele>415</ele>
        <time>2015-05-03T08:22:30Z</time>
      </trkpt>
      <trkpt lat="49.92834" lon="5.1818">
        <ele>415</ele>
        <time>2015-05-03T08:22:35Z</time>
      </trkpt>
      <trkpt lat="49.92838" lon="5.18189">
        <ele>414</ele>
        <time>2015-05-03T08:22:40Z</time>
      </trkpt>
      <trkpt lat="49.92842" lon="5.18195">
        <ele>414</ele>
        <time>2015-05-03T08:22:46Z</time>
      </trkpt>
      <trkpt lat="49.92842" lon="5.18197">
        <ele>413</ele>
        <time>2015-05-03T08:22:51Z</time>
      </trkpt>
      <trkpt lat="49.92843" lon="5.18198">
        <ele>413</ele>
        <time>2015-05-03T08:22:56Z</time>
      </trkpt>
      <trkpt lat="49.92844" lon="5.18199">
        <ele>414</ele>
        <time>2015-05-03T08:23:01Z</time>
      </trkpt>
      <trkpt lat="49.92842" lon="5.18202">
        <ele>415</ele>
        <time>2015-05-03T08:23:07Z</time>
      </trkpt>
      <trkpt lat="49.92841" lon="5.1821">
        <ele>415</ele>
        <time>2015-05-03T08:23:12Z</time>
      </trkpt>
      <trkpt lat="49.92842" lon="5.18219">
        <ele>414</ele>
        <time>2015-05-03T08:23:17Z</time>
      </trkpt>
      <trkpt lat="49.92844" lon="5.18223">
        <ele>414</ele>
        <time>2015-05-03T08:23:23Z</time>
      </trkpt>
      <trkpt lat="49.92844" lon="5.18229">
        <ele>413</ele>
        <time>2015-05-03T08:23:28Z</time>
      </trkpt>
      <trkpt lat="49.92844" lon="5.18237">
        <ele>414</ele>
        <time>2015-05-03T08:23:33Z</time>
      </trkpt>
      <trkpt lat="49.92846" lon="5.18247">
        <ele>413</ele>
        <time>2015-05-03T08:23:39Z</time>
      </trkpt>
      <trkpt lat="49.92849" lon="5.18258">
        <ele>413</ele>
        <time>2015-05-03T08:23:45Z</time>
      </trkpt>
      <trkpt lat="49.92853" lon="5.18267">
        <ele>414</ele>
        <time>2015-05-03T08:23:51Z</time>
      </trkpt>
      <trkpt lat="49.92857" lon="5.18274">
        <ele>414</ele>
        <time>2015-05-03T08:23:56Z</time>
      </trkpt>
      <trkpt lat="49.92861" lon="5.18285">
        <ele>414</ele>
        <time>2015-05-03T08:24:02Z</time>
      </trkpt>
      <trkpt lat="49.92865" lon="5.18292">
        <ele>414</ele>
        <time>2015-05-03T08:24:07Z</time>
      </trkpt>
      <trkpt lat="49.9287" lon="5.18302">
        <ele>415</ele>
        <time>2015-05-03T08:24:13Z</time>
      </trkpt>
      <trkpt lat="49.92874" lon="5.18313">
        <ele>415</ele>
        <time>2015-05-03T08:24:19Z</time>
      </trkpt>
      <trkpt lat="49.92878" lon="5.18322">
        <ele>415</ele>
        <time>2015-05-03T08:24:24Z</time>
      </trkpt>
      <trkpt lat="49.92883" lon="5.18331">
        <ele>415</ele>
        <time>2015-05-03T08:24:30Z</time>
      </trkpt>
      <trkpt lat="49.92886" lon="5.18341">
        <ele>415</ele>
        <time>2015-05-03T08:24:36Z</time>
      </trkpt>
      <trkpt lat="49.92891" lon="5.18351">
        <ele>415</ele>
        <time>2015-05-03T08:24:41Z</time>
      </trkpt>
      <trkpt lat="49.92896" lon="5.18362">
        <ele>415</ele>
        <time>2015-05-03T08:24:47Z</time>
      </trkpt>
      <trkpt lat="49.92901" lon="5.18372">
        <ele>415</ele>
        <time>2015-05-03T08:24:53Z</time>
      </trkpt>
      <trkpt lat="49.92906" lon="5.18382">
        <ele>416</ele>
        <time>2015-05-03T08:24:58Z</time>
      </trkpt>
      <trkpt lat="49.92911" lon="5.18393">
        <ele>416</ele>
        <time>2015-05-03T08:25:04Z</time>
      </trkpt>
      <trkpt lat="49.92914" lon="5.18402">
        <ele>416</ele>
        <time>2015-05-03T08:25:09Z</time>
      </trkpt>
      <trkpt lat="49.92919" lon="5.18409">
        <ele>416</ele>
        <time>2015-05-03T08:25:14Z</time>
      </trkpt>
      <trkpt lat="49.92923" lon="5.18419">
        <ele>417</ele>
        <time>2015-05-03T08:25:20Z</time>
      </trkpt>
      <trkpt lat="49.92926" lon="5.18429">
        <ele>417</ele>
        <time>2015-05-03T08:25:25Z</time>
      </trkpt>
      <trkpt lat="49.92931" lon="5.18442">
        <ele>417</ele>
        <time>2015-05-03T08:25:31Z</time>
      </trkpt>
      <trkpt lat="49.92934" lon="5.18453">
        <ele>417</ele>
        <time>2015-05-03T08:25:36Z</time>
      </trkpt>
      <trkpt lat="49.92939" lon="5.18463">
        <ele>417</ele>
        <time>2015-05-03T08:25:42Z</time>
      </trkpt>
      <trkpt lat="49.92942" lon="5.18474">
        <ele>417</ele>
        <time>2015-05-03T08:25:48Z</time>
      </trkpt>
      <trkpt lat="49.92944" lon="5.18485">
        <ele>417</ele>
        <time>2015-05-03T08:25:53Z</time>
      </trkpt>
      <trkpt lat="49.92948" lon="5.18498">
        <ele>418</ele>
        <time>2015-05-03T08:25:59Z</time>
      </trkpt>
      <trkpt lat="49.9295" lon="5.18506">
        <ele>418</ele>
        <time>2015-05-03T08:26:04Z</time>
      </trkpt>
      <trkpt lat="49.92953" lon="5.18516">
        <ele>418</ele>
        <time>2015-05-03T08:26:10Z</time>
      </trkpt>
      <trkpt lat="49.92955" lon="5.18526">
        <ele>417</ele>
        <time>2015-05-03T08:26:16Z</time>
      </trkpt>
      <trkpt lat="49.92957" lon="5.18536">
        <ele>418</ele>
        <time>2015-05-03T08:26:21Z</time>
      </trkpt>
      <trkpt lat="49.92959" lon="5.18549">
        <ele>418</ele>
        <time>2015-05-03T08:26:27Z</time>
      </trkpt>
      <trkpt lat="49.9296" lon="5.18561">
        <ele>418</ele>
        <time>2015-05-03T08:26:32Z</time>
      </trkpt>
      <trkpt lat="49.92963" lon="5.18573">
        <ele>419</ele>
        <time>2015-05-03T08:26:38Z</time>
      </trkpt>
      <trkpt lat="49.92965" lon="5.18584">
        <ele>418</ele>
        <time>2015-05-03T08:26:43Z</time>
      </trkpt>
      <trkpt lat="49.92967" lon="5.18594">
        <ele>418</ele>
        <time>2015-05-03T08:26:48Z</time>
      </trkpt>
      <trkpt lat="49.92971" lon="5.18605">
        <ele>418</ele>
        <time>2015-05-03T08:26:54Z</time>
      </trkpt>
      <trkpt lat="49.92974" lon="5.18619">
        <ele>418</ele>
        <time>2015-05-03T08:27:00Z</time>
      </trkpt>
      <trkpt lat="49.92975" lon="5.1863">
        <ele>419</ele>
        <time>2015-05-03T08:27:05Z</time>
      </trkpt>
      <trkpt lat="49.92978" lon="5.18642">
        <ele>419</ele>
        <time>2015-05-03T08:27:11Z</time>
      </trkpt>
      <trkpt lat="49.9298" lon="5.1865">
        <ele>419</ele>
        <time>2015-05-03T08:27:16Z</time>
      </trkpt>
      <trkpt lat="49.92981" lon="5.18662">
        <ele>419</ele>
        <time>2015-05-03T08:27:22Z</time>
      </trkpt>
      <trkpt lat="49.92982" lon="5.18673">
        <ele>419</ele>
        <time>2015-05-03T08:27:28Z</time>
      </trkpt>
      <trkpt lat="49.92983" lon="5.18685">
        <ele>419</ele>
        <time>2015-05-03T08:27:34Z</time>
      </trkpt>
      <trkpt lat="49.92986" lon="5.18699">
        <ele>419</ele>
        <time>2015-05-03T08:27:40Z</time>
      </trkpt>
      <trkpt lat="49.92989" lon="5.18711">
        <ele>420</ele>
        <time>2015-05-03T08:27:46Z</time>
      </trkpt>
      <trkpt lat="49.92992" lon="5.18725">
        <ele>420</ele>
        <time>2015-05-03T08:27:52Z</time>
      </trkpt>
      <trkpt lat="49.92994" lon="5.18737">
        <ele>419</ele>
        <time>2015-05-03T08:27:58Z</time>
      </trkpt>
      <trkpt lat="49.92996" lon="5.18747">
        <ele>419</ele>
        <time>2015-05-03T08:28:03Z</time>
      </trkpt>
      <trkpt lat="49.92996" lon="5.18761">
        <ele>420</ele>
        <time>2015-05-03T08:28:09Z</time>
      </trkpt>
      <trkpt lat="49.92997" lon="5.1877">
        <ele>419</ele>
        <time>2015-05-03T08:28:14Z</time>
      </trkpt>
      <trkpt lat="49.92999" lon="5.18785">
        <ele>419</ele>
        <time>2015-05-03T08:28:20Z</time>
      </trkpt>
      <trkpt lat="49.93" lon="5.188">
        <ele>420</ele>
        <time>2015-05-03T08:28:25Z</time>
      </trkpt>
      <trkpt lat="49.93002" lon="5.18811">
        <ele>420</ele>
        <time>2015-05-03T08:28:30Z</time>
      </trkpt>
      <trkpt lat="49.93005" lon="5.1882">
        <ele>420</ele>
        <time>2015-05-03T08:28:36Z</time>
      </trkpt>
      <trkpt lat="49.93006" lon="5.18832">
        <ele>420</ele>
        <time>2015-05-03T08:28:42Z</time>
      </trkpt>
      <trkpt lat="49.93008" lon="5.18843">
        <ele>419</ele>
        <time>2015-05-03T08:28:48Z</time>
      </trkpt>
      <trkpt lat="49.93009" lon="5.18853">
        <ele>419</ele>
        <time>2015-05-03T08:28:53Z</time>
      </trkpt>
      <trkpt lat="49.93007" lon="5.18864">
        <ele>420</ele>
        <time>2015-05-03T08:28:59Z</time>
      </trkpt>
      <trkpt lat="49.93008" lon="5.18873">
        <ele>420</ele>
        <time>2015-05-03T08:29:04Z</time>
      </trkpt>
      <trkpt lat="49.93007" lon="5.18884">
        <ele>419</ele>
        <time>2015-05-03T08:29:09Z</time>
      </trkpt>
      <trkpt lat="49.93005" lon="5.18895">
        <ele>420</ele>
        <time>2015-05-03T08:29:15Z</time>
      </trkpt>
      <trkpt lat="49.93005" lon="5.18904">
        <ele>420</ele>
        <time>2015-05-03T08:29:20Z</time>
      </trkpt>
      <trkpt lat="49.93004" lon="5.18917">
        <ele>420</ele>
        <time>2015-05-03T08:29:26Z</time>
      </trkpt>
      <trkpt lat="49.93003" lon="5.18926">
        <ele>419</ele>
        <time>2015-05-03T08:29:31Z</time>
      </trkpt>
      <trkpt lat="49.93002" lon="5.18938">
        <ele>419</ele>
        <time>2015-05-03T08:29:37Z</time>
      </trkpt>
      <trkpt lat="49.93" lon="5.18944">
        <ele>419</ele>
        <time>2015-05-03T08:29:42Z</time>
      </trkpt>
      <trkpt lat="49.92999" lon="5.18954">
        <ele>419</ele>
        <time>2015-05-03T08:29:47Z</time>
      </trkpt>
      <trkpt lat="49.92998" lon="5.18964">
        <ele>420</ele>
        <time>2015-05-03T08:29:53Z</time>
      </trkpt>
      <trkpt lat="49.92997" lon="5.18973">
        <ele>420</ele>
        <time>2015-05-03T08:29:58Z</time>
      </trkpt>
      <trkpt lat="49.92994" lon="5.18985">
        <ele>420</ele>
        <time>2015-05-03T08:30:03Z</time>
      </trkpt>
      <trkpt lat="49.9299" lon="5.19">
        <ele>420</ele>
        <time>2015-05-03T08:30:09Z</time>
      </trkpt>
      <trkpt lat="49.92989" lon="5.19014">
        <ele>420</ele>
        <time>2015-05-03T08:30:15Z</time>
      </trkpt>
      <trkpt lat="49.92987" lon="5.19028">
        <ele>420</ele>
        <time>2015-05-03T08:30:21Z</time>
      </trkpt>
      <trkpt lat="49.92987" lon="5.19038">
        <ele>420</ele>
        <time>2015-05-03T08:30:26Z</time>
      </trkpt>
      <trkpt lat="49.92988" lon="5.19046">
        <ele>421</ele>
        <time>2015-05-03T08:30:31Z</time>
      </trkpt>
      <trkpt lat="49.92987" lon="5.19052">
        <ele>421</ele>
        <time>2015-05-03T08:30:36Z</time>
      </trkpt>
      <trkpt lat="49.92985" lon="5.19059">
        <ele>421</ele>
        <time>2015-05-03T08:30:42Z</time>
      </trkpt>
      <trkpt lat="49.92983" lon="5.19068">
        <ele>420</ele>
        <time>2015-05-03T08:30:47Z</time>
      </trkpt>
      <trkpt lat="49.92981" lon="5.1908">
        <ele>420</ele>
        <time>2015-05-03T08:30:53Z</time>
      </trkpt>
      <trkpt lat="49.92979" lon="5.19085">
        <ele>421</ele>
        <time>2015-05-03T08:30:58Z</time>
      </trkpt>
      <trkpt lat="49.92975" lon="5.19094">
        <ele>420</ele>
        <time>2015-05-03T08:31:04Z</time>
      </trkpt>
      <trkpt lat="49.92973" lon="5.19101">
        <ele>421</ele>
        <time>2015-05-03T08:31:09Z</time>
      </trkpt>
      <trkpt lat="49.9297" lon="5.19109">
        <ele>420</ele>
        <time>2015-05-03T08:31:15Z</time>
      </trkpt>
      <trkpt lat="49.92966" lon="5.19117">
        <ele>421</ele>
        <time>2015-05-03T08:31:20Z</time>
      </trkpt>
      <trkpt lat="49.92964" lon="5.19124">
        <ele>421</ele>
        <time>2015-05-03T08:31:25Z</time>
      </trkpt>
      <trkpt lat="49.92961" lon="5.19126">
        <ele>421</ele>
        <time>2015-05-03T08:31:31Z</time>
      </trkpt>
      <trkpt lat="49.9296" lon="5.1913">
        <ele>421</ele>
        <time>2015-05-03T08:31:37Z</time>
      </trkpt>
      <trkpt lat="49.92958" lon="5.19134">
        <ele>421</ele>
        <time>2015-05-03T08:31:42Z</time>
      </trkpt>
      <trkpt lat="49.92955" lon="5.19143">
        <ele>420</ele>
        <time>2015-05-03T08:31:48Z</time>
      </trkpt>
      <trkpt lat="49.92952" lon="5.19149">
        <ele>421</ele>
        <time>2015-05-03T08:31:54Z</time>
      </trkpt>
      <trkpt lat="49.92949" lon="5.19157">
        <ele>421</ele>
        <time>2015-05-03T08:31:59Z</time>
      </trkpt>
      <trkpt lat="49.92946" lon="5.19164">
        <ele>420</ele>
        <time>2015-05-03T08:32:04Z</time>
      </trkpt>
      <trkpt lat="49.92943" lon="5.1917">
        <ele>420</ele>
        <time>2015-05-03T08:32:10Z</time>
      </trkpt>
      <trkpt lat="49.9294" lon="5.19176">
        <ele>420</ele>
        <time>2015-05-03T08:32:15Z</time>
      </trkpt>
      <trkpt lat="49.92936" lon="5.19185">
        <ele>419</ele>
        <time>2015-05-03T08:32:21Z</time>
      </trkpt>
      <trkpt lat="49.9293" lon="5.19196">
        <ele>419</ele>
        <time>2015-05-03T08:32:27Z</time>
      </trkpt>
      <trkpt lat="49.92926" lon="5.19205">
        <ele>419</ele>
        <time>2015-05-03T08:32:32Z</time>
      </trkpt>
      <trkpt lat="49.92922" lon="5.19216">
        <ele>419</ele>
        <time>2015-05-03T08:32:38Z</time>
      </trkpt>
      <trkpt lat="49.92917" lon="5.19227">
        <ele>418</ele>
        <time>2015-05-03T08:32:44Z</time>
      </trkpt>
      <trkpt lat="49.92915" lon="5.19236">
        <ele>418</ele>
        <time>2015-05-03T08:32:49Z</time>
      </trkpt>
      <trkpt lat="49.92911" lon="5.19242">
        <ele>418</ele>
        <time>2015-05-03T08:32:54Z</time>
      </trkpt>
      <trkpt lat="49.92904" lon="5.19245">
        <ele>418</ele>
        <time>2015-05-03T08:33:00Z</time>
      </trkpt>
      <trkpt lat="49.929" lon="5.19249">
        <ele>418</ele>
        <time>2015-05-03T08:33:05Z</time>
      </trkpt>
      <trkpt lat="49.92893" lon="5.19259">
        <ele>418</ele>
        <time>2015-05-03T08:33:11Z</time>
      </trkpt>
      <trkpt lat="49.9289" lon="5.19268">
        <ele>417</ele>
        <time>2015-05-03T08:33:16Z</time>
      </trkpt>
      <trkpt lat="49.92888" lon="5.19278">
        <ele>417</ele>
        <time>2015-05-03T08:33:21Z</time>
      </trkpt>
      <trkpt lat="49.92886" lon="5.19292">
        <ele>417</ele>
        <time>2015-05-03T08:33:27Z</time>
      </trkpt>
      <trkpt lat="49.92884" lon="5.19307">
        <ele>416</ele>
        <time>2015-05-03T08:33:33Z</time>
      </trkpt>
      <trkpt lat="49.92882" lon="5.1932">
        <ele>417</ele>
        <time>2015-05-03T08:33:39Z</time>
      </trkpt>
      <trkpt lat="49.92881" lon="5.19334">
        <ele>417</ele>
        <time>2015-05-03T08:33:45Z</time>
      </trkpt>
      <trkpt lat="49.92879" lon="5.19339">
        <ele>417</ele>
        <time>2015-05-03T08:33:50Z</time>
      </trkpt>
      <trkpt lat="49.92878" lon="5.19352">
        <ele>417</ele>
        <time>2015-05-03T08:33:56Z</time>
      </trkpt>
      <trkpt lat="49.92878" lon="5.1936">
        <ele>417</ele>
        <time>2015-05-03T08:34:01Z</time>
      </trkpt>
      <trkpt lat="49.92876" lon="5.19368">
        <ele>417</ele>
        <time>2015-05-03T08:34:06Z</time>
      </trkpt>
      <trkpt lat="49.92874" lon="5.19379">
        <ele>417</ele>
        <time>2015-05-03T08:34:12Z</time>
      </trkpt>
      <trkpt lat="49.92873" lon="5.19388">
        <ele>417</ele>
        <time>2015-05-03T08:34:17Z</time>
      </trkpt>
      <trkpt lat="49.92872" lon="5.194">
        <ele>416</ele>
        <time>2015-05-03T08:34:22Z</time>
      </trkpt>
      <trkpt lat="49.9287" lon="5.19413">
        <ele>416</ele>
        <time>2015-05-03T08:34:28Z</time>
      </trkpt>
      <trkpt lat="49.92868" lon="5.19427">
        <ele>417</ele>
        <time>2015-05-03T08:34:34Z</time>
      </trkpt>
      <trkpt lat="49.92867" lon="5.19438">
        <ele>418</ele>
        <time>2015-05-03T08:34:39Z</time>
      </trkpt>
      <trkpt lat="49.92865" lon="5.19452">
        <ele>418</ele>
        <time>2015-05-03T08:34:45Z</time>
      </trkpt>
      <trkpt lat="49.92863" lon="5.19464">
        <ele>418</ele>
        <time>2015-05-03T08:34:51Z</time>
      </trkpt>
      <trkpt lat="49.92862" lon="5.19476">
        <ele>418</ele>
        <time>2015-05-03T08:34:57Z</time>
      </trkpt>
      <trkpt lat="49.9286" lon="5.19487">
        <ele>419</ele>
        <time>2015-05-03T08:35:03Z</time>
      </trkpt>
      <trkpt lat="49.9286" lon="5.19494">
        <ele>419</ele>
        <time>2015-05-03T08:35:08Z</time>
      </trkpt>
      <trkpt lat="49.92858" lon="5.19505">
        <ele>419</ele>
        <time>2015-05-03T08:35:14Z</time>
      </trkpt>
      <trkpt lat="49.92857" lon="5.19514">
        <ele>419</ele>
        <time>2015-05-03T08:35:19Z</time>
      </trkpt>
      <trkpt lat="49.92855" lon="5.19525">
        <ele>419</ele>
        <time>2015-05-03T08:35:25Z</time>
      </trkpt>
      <trkpt lat="49.92853" lon="5.19538">
        <ele>419</ele>
        <time>2015-05-03T08:35:31Z</time>
      </trkpt>
      <trkpt lat="49.92852" lon="5.19548">
        <ele>420</ele>
        <time>2015-05-03T08:35:36Z</time>
      </trkpt>
      <trkpt lat="49.9285" lon="5.19559">
        <ele>419</ele>
        <time>2015-05-03T08:35:42Z</time>
      </trkpt>
      <trkpt lat="49.92848" lon="5.19568">
        <ele>420</ele>
        <time>2015-05-03T08:35:47Z</time>
      </trkpt>
      <trkpt lat="49.92846" lon="5.19579">
        <ele>421</ele>
        <time>2015-05-03T08:35:53Z</time>
      </trkpt>
      <trkpt lat="49.92843" lon="5.1959">
        <ele>421</ele>
        <time>2015-05-03T08:35:58Z</time>
      </trkpt>
      <trkpt lat="49.92842" lon="5.19601">
        <ele>421</ele>
        <time>2015-05-03T08:36:03Z</time>
      </trkpt>
      <trkpt lat="49.92841" lon="5.19615">
        <ele>420</ele>
        <time>2015-05-03T08:36:09Z</time>
      </trkpt>
      <trkpt lat="49.92839" lon="5.19627">
        <ele>421</ele>
        <time>2015-05-03T08:36:15Z</time>
      </trkpt>
      <trkpt lat="49.92837" lon="5.19641">
        <ele>421</ele>
        <time>2015-05-03T08:36:21Z</time>
      </trkpt>
      <trkpt lat="49.92836" lon="5.19653">
        <ele>422</ele>
        <time>2015-05-03T08:36:27Z</time>
      </trkpt>
      <trkpt lat="49.92834" lon="5.19664">
        <ele>422</ele>
        <time>2015-05-03T08:36:32Z</time>
      </trkpt>
      <trkpt lat="49.92833" lon="5.19677">
        <ele>422</ele>
        <time>2015-05-03T08:36:38Z</time>
      </trkpt>
      <trkpt lat="49.92831" lon="5.19687">
        <ele>423</ele>
        <time>2015-05-03T08:36:43Z</time>
      </trkpt>
      <trkpt lat="49.92829" lon="5.197">
        <ele>423</ele>
        <time>2015-05-03T08:36:49Z</time>
      </trkpt>
      <trkpt lat="49.92828" lon="5.19708">
        <ele>423</ele>
        <time>2015-05-03T08:36:54Z</time>
      </trkpt>
      <trkpt lat="49.92826" lon="5.19719">
        <ele>424</ele>
        <time>2015-05-03T08:36:59Z</time>
      </trkpt>
      <trkpt lat="49.92825" lon="5.19731">
        <ele>424</ele>
        <time>2015-05-03T08:37:05Z</time>
      </trkpt>
      <trkpt lat="49.92823" lon="5.19743">
        <ele>425</ele>
        <time>2015-05-03T08:37:11Z</time>
      </trkpt>
      <trkpt lat="49.92822" lon="5.19756">
        <ele>425</ele>
        <time>2015-05-03T08:37:17Z</time>
      </trkpt>
      <trkpt lat="49.92821" lon="5.19768">
        <ele>425</ele>
        <time>2015-05-03T08:37:23Z</time>
      </trkpt>
      <trkpt lat="49.92819" lon="5.19779">
        <ele>425</ele>
        <time>2015-05-03T08:37:29Z</time>
      </trkpt>
      <trkpt lat="49.92817" lon="5.1979">
        <ele>425</ele>
        <time>2015-05-03T08:37:35Z</time>
      </trkpt>
      <trkpt lat="49.92814" lon="5.19801">
        <ele>425</ele>
        <time>2015-05-03T08:37:41Z</time>
      </trkpt>
      <trkpt lat="49.92811" lon="5.19813">
        <ele>424</ele>
        <time>2015-05-03T08:37:47Z</time>
      </trkpt>
      <trkpt lat="49.92807" lon="5.19826">
        <ele>425</ele>
        <time>2015-05-03T08:37:53Z</time>
      </trkpt>
      <trkpt lat="49.92805" lon="5.1984">
        <ele>425</ele>
        <time>2015-05-03T08:37:59Z</time>
      </trkpt>
      <trkpt lat="49.92805" lon="5.19853">
        <ele>424</ele>
        <time>2015-05-03T08:38:05Z</time>
      </trkpt>
      <trkpt lat="49.92804" lon="5.19866">
        <ele>424</ele>
        <time>2015-05-03T08:38:11Z</time>
      </trkpt>
      <trkpt lat="49.92803" lon="5.19877">
        <ele>425</ele>
        <time>2015-05-03T08:38:16Z</time>
      </trkpt>
      <trkpt lat="49.92802" lon="5.1989">
        <ele>425</ele>
        <time>2015-05-03T08:38:22Z</time>
      </trkpt>
      <trkpt lat="49.92801" lon="5.19899">
        <ele>424</ele>
        <time>2015-05-03T08:38:27Z</time>
      </trkpt>
      <trkpt lat="49.92799" lon="5.19913">
        <ele>424</ele>
        <time>2015-05-03T08:38:33Z</time>
      </trkpt>
      <trkpt lat="49.92797" lon="5.19925">
        <ele>424</ele>
        <time>2015-05-03T08:38:38Z</time>
      </trkpt>
      <trkpt lat="49.92796" lon="5.19938">
        <ele>423</ele>
        <time>2015-05-03T08:38:44Z</time>
      </trkpt>
      <trkpt lat="49.92795" lon="5.1995">
        <ele>423</ele>
        <time>2015-05-03T08:38:50Z</time>
      </trkpt>
      <trkpt lat="49.92794" lon="5.1996">
        <ele>423</ele>
        <time>2015-05-03T08:38:55Z</time>
      </trkpt>
      <trkpt lat="49.92791" lon="5.19974">
        <ele>423</ele>
        <time>2015-05-03T08:39:01Z</time>
      </trkpt>
      <trkpt lat="49.92789" lon="5.19986">
        <ele>424</ele>
        <time>2015-05-03T08:39:06Z</time>
      </trkpt>
      <trkpt lat="49.92788" lon="5.19998">
        <ele>424</ele>
        <time>2015-05-03T08:39:11Z</time>
      </trkpt>
      <trkpt lat="49.92786" lon="5.20011">
        <ele>423</ele>
        <time>2015-05-03T08:39:17Z</time>
      </trkpt>
      <trkpt lat="49.92785" lon="5.2002">
        <ele>424</ele>
        <time>2015-05-03T08:39:22Z</time>
      </trkpt>
      <trkpt lat="49.92783" lon="5.20025">
        <ele>424</ele>
        <time>2015-05-03T08:39:27Z</time>
      </trkpt>
      <trkpt lat="49.92781" lon="5.20033">
        <ele>424</ele>
        <time>2015-05-03T08:39:33Z</time>
      </trkpt>
      <trkpt lat="49.9278" lon="5.20043">
        <ele>424</ele>
        <time>2015-05-03T08:39:39Z</time>
      </trkpt>
      <trkpt lat="49.92779" lon="5.20051">
        <ele>424</ele>
        <time>2015-05-03T08:39:44Z</time>
      </trkpt>
      <trkpt lat="49.92776" lon="5.20062">
        <ele>424</ele>
        <time>2015-05-03T08:39:50Z</time>
      </trkpt>
      <trkpt lat="49.92774" lon="5.20073">
        <ele>424</ele>
        <time>2015-05-03T08:39:56Z</time>
      </trkpt>
      <trkpt lat="49.92773" lon="5.20083">
        <ele>424</ele>
        <time>2015-05-03T08:40:02Z</time>
      </trkpt>
      <trkpt lat="49.92772" lon="5.20092">
        <ele>424</ele>
        <time>2015-05-03T08:40:07Z</time>
      </trkpt>
      <trkpt lat="49.9277" lon="5.20104">
        <ele>424</ele>
        <time>2015-05-03T08:40:13Z</time>
      </trkpt>
      <trkpt lat="49.92769" lon="5.20115">
        <ele>424</ele>
        <time>2015-05-03T08:40:19Z</time>
      </trkpt>
      <trkpt lat="49.92767" lon="5.20125">
        <ele>424</ele>
        <time>2015-05-03T08:40:24Z</time>
      </trkpt>
      <trkpt lat="49.92765" lon="5.20139">
        <ele>423</ele>
        <time>2015-05-03T08:40:30Z</time>
      </trkpt>
      <trkpt lat="49.92763" lon="5.2015">
        <ele>423</ele>
        <time>2015-05-03T08:40:36Z</time>
      </trkpt>
      <trkpt lat="49.9276" lon="5.20165">
        <ele>423</ele>
        <time>2015-05-03T08:40:42Z</time>
      </trkpt>
      <trkpt lat="49.92757" lon="5.2018">
        <ele>423</ele>
        <time>2015-05-03T08:40:48Z</time>
      </trkpt>
      <trkpt lat="49.92755" lon="5.20193">
        <ele>423</ele>
        <time>2015-05-03T08:40:53Z</time>
      </trkpt>
      <trkpt lat="49.92753" lon="5.20208">
        <ele>423</ele>
        <time>2015-05-03T08:40:59Z</time>
      </trkpt>
      <trkpt lat="49.92751" lon="5.2022">
        <ele>422</ele>
        <time>2015-05-03T08:41:04Z</time>
      </trkpt>
      <trkpt lat="49.92749" lon="5.20235">
        <ele>423</ele>
        <time>2015-05-03T08:41:10Z</time>
      </trkpt>
      <trkpt lat="49.92748" lon="5.20247">
        <ele>422</ele>
        <time>2015-05-03T08:41:15Z</time>
      </trkpt>
      <trkpt lat="49.92746" lon="5.2026">
        <ele>422</ele>
        <time>2015-05-03T08:41:21Z</time>
      </trkpt>
      <trkpt lat="49.92744" lon="5.20271">
        <ele>422</ele>
        <time>2015-05-03T08:41:26Z</time>
      </trkpt>
      <trkpt lat="49.92742" lon="5.20284">
        <ele>422</ele>
        <time>2015-05-03T08:41:32Z</time>
      </trkpt>
      <trkpt lat="49.92741" lon="5.20296">
        <ele>422</ele>
        <time>2015-05-03T08:41:37Z</time>
      </trkpt>
      <trkpt lat="49.92739" lon="5.20309">
        <ele>422</ele>
        <time>2015-05-03T08:41:43Z</time>
      </trkpt>
      <trkpt lat="49.92737" lon="5.20321">
        <ele>422</ele>
        <time>2015-05-03T08:41:48Z</time>
      </trkpt>
      <trkpt lat="49.92735" lon="5.20335">
        <ele>422</ele>
        <time>2015-05-03T08:41:54Z</time>
      </trkpt>
      <trkpt lat="49.92733" lon="5.20342">
        <ele>422</ele>
        <time>2015-05-03T08:41:59Z</time>
      </trkpt>
      <trkpt lat="49.92731" lon="5.20355">
        <ele>422</ele>
        <time>2015-05-03T08:42:05Z</time>
      </trkpt>
      <trkpt lat="49.9273" lon="5.20365">
        <ele>422</ele>
        <time>2015-05-03T08:42:10Z</time>
      </trkpt>
      <trkpt lat="49.92729" lon="5.20377">
        <ele>422</ele>
        <time>2015-05-03T08:42:15Z</time>
      </trkpt>
      <trkpt lat="49.92727" lon="5.20389">
        <ele>422</ele>
        <time>2015-05-03T08:42:20Z</time>
      </trkpt>
      <trkpt lat="49.92725" lon="5.20402">
        <ele>422</ele>
        <time>2015-05-03T08:42:26Z</time>
      </trkpt>
      <trkpt lat="49.92724" lon="5.20414">
        <ele>423</ele>
        <time>2015-05-03T08:42:32Z</time>
      </trkpt>
      <trkpt lat="49.92722" lon="5.20425">
        <ele>423</ele>
        <time>2015-05-03T08:42:37Z</time>
      </trkpt>
      <trkpt lat="49.9272" lon="5.20439">
        <ele>423</ele>
        <time>2015-05-03T08:42:43Z</time>
      </trkpt>
      <trkpt lat="49.92719" lon="5.2045">
        <ele>423</ele>
        <time>2015-05-03T08:42:48Z</time>
      </trkpt>
      <trkpt lat="49.92719" lon="5.2046">
        <ele>424</ele>
        <time>2015-05-03T08:42:53Z</time>
      </trkpt>
      <trkpt lat="49.9272" lon="5.20467">
        <ele>424</ele>
        <time>2015-05-03T08:42:58Z</time>
      </trkpt>
      <trkpt lat="49.92725" lon="5.20473">
        <ele>425</ele>
        <time>2015-05-03T08:43:04Z</time>
      </trkpt>
      <trkpt lat="49.92732" lon="5.20475">
        <ele>425</ele>
        <time>2015-05-03T08:43:09Z</time>
      </trkpt>
      <trkpt lat="49.9274" lon="5.20478">
        <ele>426</ele>
        <time>2015-05-03T08:43:15Z</time>
      </trkpt>
      <trkpt lat="49.92748" lon="5.2048">
        <ele>427</ele>
        <time>2015-05-03T08:43:20Z</time>
      </trkpt>
      <trkpt lat="49.92756" lon="5.20482">
        <ele>427</ele>
        <time>2015-05-03T08:43:26Z</time>
      </trkpt>
      <trkpt lat="49.92764" lon="5.20483">
        <ele>427</ele>
        <time>2015-05-03T08:43:32Z</time>
      </trkpt>
      <trkpt lat="49.92773" lon="5.20485">
        <ele>428</ele>
        <time>2015-05-03T08:43:38Z</time>
      </trkpt>
      <trkpt lat="49.9278" lon="5.20486">
        <ele>428</ele>
        <time>2015-05-03T08:43:43Z</time>
      </trkpt>
      <trkpt lat="49.92788" lon="5.20488">
        <ele>428</ele>
        <time>2015-05-03T08:43:49Z</time>
      </trkpt>
      <trkpt lat="49.92796" lon="5.20489">
        <ele>428</ele>
        <time>2015-05-03T08:43:55Z</time>
      </trkpt>
      <trkpt lat="49.92803" lon="5.20491">
        <ele>429</ele>
        <time>2015-05-03T08:44:01Z</time>
      </trkpt>
      <trkpt lat="49.92809" lon="5.20493">
        <ele>429</ele>
        <time>2015-05-03T08:44:06Z</time>
      </trkpt>
      <trkpt lat="49.92816" lon="5.20495">
        <ele>429</ele>
        <time>2015-05-03T08:44:11Z</time>
      </trkpt>
      <trkpt lat="49.92823" lon="5.20498">
        <ele>429</ele>
        <time>2015-05-03T08:44:16Z</time>
      </trkpt>
      <trkpt lat="49.9283" lon="5.20501">
        <ele>429</ele>
        <time>2015-05-03T08:44:21Z</time>
      </trkpt>
      <trkpt lat="49.92836" lon="5.20504">
        <ele>430</ele>
        <time>2015-05-03T08:44:26Z</time>
      </trkpt>
      <trkpt lat="49.92843" lon="5.20508">
        <ele>430</ele>
        <time>2015-05-03T08:44:32Z</time>
      </trkpt>
      <trkpt lat="49.92849" lon="5.20511">
        <ele>430</ele>
        <time>2015-05-03T08:44:37Z</time>
      </trkpt>
      <trkpt lat="49.92854" lon="5.20514">
        <ele>431</ele>
        <time>2015-05-03T08:44:42Z</time>
      </trkpt>
      <trkpt lat="49.9286" lon="5.20517">
        <ele>431</ele>
        <time>2015-05-03T08:44:48Z</time>
      </trkpt>
      <trkpt lat="49.92866" lon="5.20519">
        <ele>431</ele>
        <time>2015-05-03T08:44:53Z</time>
      </trkpt>
      <trkpt lat="49.92873" lon="5.20524">
        <ele>432</ele>
        <time>2015-05-03T08:44:58Z</time>
      </trkpt>
      <trkpt lat="49.9288" lon="5.20528">
        <ele>432</ele>
        <time>2015-05-03T08:45:03Z</time>
      </trkpt>
      <trkpt lat="49.92889" lon="5.20532">
        <ele>432</ele>
        <time>2015-05-03T08:45:09Z</time>
      </trkpt>
      <trkpt lat="49.92896" lon="5.20536">
        <ele>433</ele>
        <time>2015-05-03T08:45:14Z</time>
      </trkpt>
      <trkpt lat="49.92905" lon="5.2054">
        <ele>433</ele>
        <time>2015-05-03T08:45:20Z</time>
      </trkpt>
      <trkpt lat="49.92912" lon="5.20544">
        <ele>434</ele>
        <time>2015-05-03T08:45:25Z</time>
      </trkpt>
      <trkpt lat="49.92918" lon="5.20548">
        <ele>434</ele>
        <time>2015-05-03T08:45:30Z</time>
      </trkpt>
      <trkpt lat="49.92926" lon="5.20553">
        <ele>435</ele>
        <time>2015-05-03T08:45:35Z</time>
      </trkpt>
      <trkpt lat="49.92935" lon="5.20557">
        <ele>435</ele>
        <time>2015-05-03T08:45:41Z</time>
      </trkpt>
      <trkpt lat="49.92944" lon="5.20561">
        <ele>435</ele>
        <time>2015-05-03T08:45:46Z</time>
      </trkpt>
      <trkpt lat="49.92952" lon="5.20564">
        <ele>436</ele>
        <time>2015-05-03T08:45:51Z</time>
      </trkpt>
      <trkpt lat="49.9296" lon="5.20567">
        <ele>436</ele>
        <time>2015-05-03T08:45:57Z</time>
      </trkpt>
      <trkpt lat="49.92966" lon="5.20569">
        <ele>436</ele>
        <time>2015-05-03T08:46:02Z</time>
      </trkpt>
      <trkpt lat="49.92973" lon="5.20569">
        <ele>436</ele>
        <time>2015-05-03T08:46:08Z</time>
      </trkpt>
      <trkpt lat="49.92981" lon="5.2057">
        <ele>436</ele>
        <time>2015-05-03T08:46:14Z</time>
      </trkpt>
      <trkpt lat="49.92989" lon="5.20571">
        <ele>436</ele>
        <time>2015-05-03T08:46:20Z</time>
      </trkpt>
      <trkpt lat="49.92994" lon="5.20572">
        <ele>436</ele>
        <time>2015-05-03T08:46:25Z</time>
      </trkpt>
      <trkpt lat="49.92999" lon="5.20573">
        <ele>436</ele>
        <time>2015-05-03T08:46:30Z</time>
      </trkpt>
      <trkpt lat="49.93002" lon="5.20574">
        <ele>435</ele>
        <time>2015-05-03T08:46:35Z</time>
      </trkpt>
      <trkpt lat="49.93007" lon="5.20575">
        <ele>435</ele>
        <time>2015-05-03T08:46:41Z</time>
      </trkpt>
      <trkpt lat="49.93014" lon="5.20575">
        <ele>435</ele>
        <time>2015-05-03T08:46:47Z</time>
      </trkpt>
      <trkpt lat="49.93019" lon="5.20575">
        <ele>435</ele>
        <time>2015-05-03T08:46:52Z</time>
      </trkpt>
      <trkpt lat="49.93026" lon="5.20576">
        <ele>435</ele>
        <time>2015-05-03T08:46:57Z</time>
      </trkpt>
      <trkpt lat="49.93034" lon="5.20576">
        <ele>435</ele>
        <time>2015-05-03T08:47:03Z</time>
      </trkpt>
      <trkpt lat="49.93041" lon="5.20575">
        <ele>434</ele>
        <time>2015-05-03T08:47:08Z</time>
      </trkpt>
      <trkpt lat="49.93046" lon="5.20574">
        <ele>434</ele>
        <time>2015-05-03T08:47:14Z</time>
      </trkpt>
      <trkpt lat="49.93049" lon="5.20569">
        <ele>434</ele>
        <time>2015-05-03T08:47:20Z</time>
      </trkpt>
      <trkpt lat="49.93051" lon="5.20565">
        <ele>434</ele>
        <time>2015-05-03T08:47:26Z</time>
      </trkpt>
      <trkpt lat="49.93052" lon="5.20562">
        <ele>434</ele>
        <time>2015-05-03T08:47:31Z</time>
      </trkpt>
      <trkpt lat="49.93053" lon="5.20559">
        <ele>434</ele>
        <time>2015-05-03T08:47:37Z</time>
      </trkpt>
      <trkpt lat="49.93053" lon="5.20562">
        <ele>434</ele>
        <time>2015-05-03T08:47:42Z</time>
      </trkpt>
      <trkpt lat="49.93054" lon="5.20565">
        <ele>434</ele>
        <time>2015-05-03T08:47:47Z</time>
      </trkpt>
      <trkpt lat="49.93057" lon="5.20569">
        <ele>433</ele>
        <time>2015-05-03T08:47:52Z</time>
      </trkpt>
      <trkpt lat="49.93061" lon="5.20573">
        <ele>433</ele>
        <time>2015-05-03T08:47:58Z</time>
      </trkpt>
      <trkpt lat="49.93067" lon="5.20578">
        <ele>432</ele>
        <time>2015-05-03T08:48:04Z</time>
      </trkpt>
      <trkpt lat="49.93072" lon="5.20582">
        <ele>432</ele>
        <time>2015-05-03T08:48:09Z</time>
      </trkpt>
      <trkpt lat="49.93079" lon="5.20587">
        <ele>431</ele>
        <time>2015-05-03T08:48:15Z</time>
      </trkpt>
      <trkpt lat="49.93085" lon="5.20592">
        <ele>430</ele>
        <time>2015-05-03T08:48:20Z</time>
      </trkpt>
      <trkpt lat="49.93093" lon="5.20596">
        <ele>430</ele>
        <time>2015-05-03T08:48:26Z</time>
      </trkpt>
      <trkpt lat="49.931" lon="5.20599">
        <ele>430</ele>
        <time>2015-05-03T08:48:31Z</time>
      </trkpt>
      <trkpt lat="49.93107" lon="5.20602">
        <ele>429</ele>
        <time>2015-05-03T08:48:37Z</time>
      </trkpt>
      <trkpt lat="49.93113" lon="5.20604">
        <ele>428</ele>
        <time>2015-05-03T08:48:42Z</time>
      </trkpt>
      <trkpt lat="49.9312" lon="5.20605">
        <ele>428</ele>
        <time>2015-05-03T08:48:47Z</time>
      </trkpt>
      <trkpt lat="49.93128" lon="5.20605">
        <ele>427</ele>
        <time>2015-05-03T08:48:52Z</time>
      </trkpt>
      <trkpt lat="49.93134" lon="5.20606">
        <ele>427</ele>
        <time>2015-05-03T08:48:57Z</time>
      </trkpt>
      <trkpt lat="49.93144" lon="5.20605">
        <ele>429</ele>
        <time>2015-05-03T08:49:03Z</time>
      </trkpt>
      <trkpt lat="49.9315" lon="5.20604">
        <ele>432</ele>
        <time>2015-05-03T08:49:08Z</time>
      </trkpt>
      <trkpt lat="49.93157" lon="5.20602">
        <ele>431</ele>
        <time>2015-05-03T08:49:13Z</time>
      </trkpt>
      <trkpt lat="49.93164" lon="5.206">
        <ele>428</ele>
        <time>2015-05-03T08:49:19Z</time>
      </trkpt>
      <trkpt lat="49.93172" lon="5.20597">
        <ele>427</ele>
        <time>2015-05-03T08:49:24Z</time>
      </trkpt>
      <trkpt lat="49.9318" lon="5.20595">
        <ele>427</ele>
        <time>2015-05-03T08:49:29Z</time>
      </trkpt>
      <trkpt lat="49.93185" lon="5.20592">
        <ele>427</ele>
        <time>2015-05-03T08:49:34Z</time>
      </trkpt>
      <trkpt lat="49.93191" lon="5.20585">
        <ele>428</ele>
        <time>2015-05-03T08:49:40Z</time>
      </trkpt>
      <trkpt lat="49.93195" lon="5.20577">
        <ele>428</ele>
        <time>2015-05-03T08:49:45Z</time>
      </trkpt>
      <trkpt lat="49.93199" lon="5.20569">
        <ele>429</ele>
        <time>2015-05-03T08:49:50Z</time>
      </trkpt>
      <trkpt lat="49.93203" lon="5.20559">
        <ele>429</ele>
        <time>2015-05-03T08:49:56Z</time>
      </trkpt>
      <trkpt lat="49.93206" lon="5.20551">
        <ele>429</ele>
        <time>2015-05-03T08:50:01Z</time>
      </trkpt>
      <trkpt lat="49.93208" lon="5.20544">
        <ele>429</ele>
        <time>2015-05-03T08:50:06Z</time>
      </trkpt>
      <trkpt lat="49.9321" lon="5.2054">
        <ele>430</ele>
        <time>2015-05-03T08:50:11Z</time>
      </trkpt>
      <trkpt lat="49.93212" lon="5.20532">
        <ele>430</ele>
        <time>2015-05-03T08:50:16Z</time>
      </trkpt>
      <trkpt lat="49.93214" lon="5.20523">
        <ele>430</ele>
        <time>2015-05-03T08:50:21Z</time>
      </trkpt>
      <trkpt lat="49.93216" lon="5.20512">
        <ele>430</ele>
        <time>2015-05-03T08:50:27Z</time>
      </trkpt>
      <trkpt lat="49.93218" lon="5.205">
        <ele>431</ele>
        <time>2015-05-03T08:50:33Z</time>
      </trkpt>
      <trkpt lat="49.93219" lon="5.20489">
        <ele>432</ele>
        <time>2015-05-03T08:50:39Z</time>
      </trkpt>
      <trkpt lat="49.9322" lon="5.20477">
        <ele>431</ele>
        <time>2015-05-03T08:50:45Z</time>
      </trkpt>
      <trkpt lat="49.9322" lon="5.20464">
        <ele>432</ele>
        <time>2015-05-03T08:50:51Z</time>
      </trkpt>
      <trkpt lat="49.9322" lon="5.20451">
        <ele>432</ele>
        <time>2015-05-03T08:50:57Z</time>
      </trkpt>
      <trkpt lat="49.93221" lon="5.20441">
        <ele>433</ele>
        <time>2015-05-03T08:51:02Z</time>
      </trkpt>
      <trkpt lat="49.93222" lon="5.20431">
        <ele>433</ele>
        <time>2015-05-03T08:51:07Z</time>
      </trkpt>
      <trkpt lat="49.93225" lon="5.20418">
        <ele>433</ele>
        <time>2015-05-03T08:51:13Z</time>
      </trkpt>
      <trkpt lat="49.93229" lon="5.20406">
        <ele>433</ele>
        <time>2015-05-03T08:51:19Z</time>
      </trkpt>
      <trkpt lat="49.93231" lon="5.20398">
        <ele>434</ele>
        <time>2015-05-03T08:51:25Z</time>
      </trkpt>
      <trkpt lat="49.93234" lon="5.20388">
        <ele>434</ele>
        <time>2015-05-03T08:51:31Z</time>
      </trkpt>
      <trkpt lat="49.93236" lon="5.20381">
        <ele>434</ele>
        <time>2015-05-03T08:51:36Z</time>
      </trkpt>
      <trkpt lat="49.93238" lon="5.20375">
        <ele>434</ele>
        <time>2015-05-03T08:51:42Z</time>
      </trkpt>
      <trkpt lat="49.9324" lon="5.20367">
        <ele>434</ele>
        <time>2015-05-03T08:51:48Z</time>
      </trkpt>
      <trkpt lat="49.93242" lon="5.20362">
        <ele>434</ele>
        <time>2015-05-03T08:51:53Z</time>
      </trkpt>
      <trkpt lat="49.93244" lon="5.20361">
        <ele>434</ele>
        <time>2015-05-03T08:51:59Z</time>
      </trkpt>
      <trkpt lat="49.93247" lon="5.20364">
        <ele>434</ele>
        <time>2015-05-03T08:52:05Z</time>
      </trkpt>
      <trkpt lat="49.9325" lon="5.20363">
        <ele>434</ele>
        <time>2015-05-03T08:52:10Z</time>
      </trkpt>
      <trkpt lat="49.93251" lon="5.20359">
        <ele>435</ele>
        <time>2015-05-03T08:52:16Z</time>
      </trkpt>
      <trkpt lat="49.93252" lon="5.20354">
        <ele>435</ele>
        <time>2015-05-03T08:52:21Z</time>
      </trkpt>
      <trkpt lat="49.93254" lon="5.20349">
        <ele>434</ele>
        <time>2015-05-03T08:52:26Z</time>
      </trkpt>
      <trkpt lat="49.93255" lon="5.20341">
        <ele>434</ele>
        <time>2015-05-03T08:52:32Z</time>
      </trkpt>
      <trkpt lat="49.93255" lon="5.20339">
        <ele>434</ele>
        <time>2015-05-03T08:52:37Z</time>
      </trkpt>
      <trkpt lat="49.93255" lon="5.20339">
        <ele>434</ele>
        <time>2015-05-03T08:52:42Z</time>
      </trkpt>
      <trkpt lat="49.93253" lon="5.20336">
        <ele>433</ele>
        <time>2015-05-03T08:52:48Z</time>
      </trkpt>
      <trkpt lat="49.93253" lon="5.20335">
        <ele>432</ele>
        <time>2015-05-03T08:52:54Z</time>
      </trkpt>
      <trkpt lat="49.93254" lon="5.20335">
        <ele>432</ele>
        <time>2015-05-03T08:53:00Z</time>
      </trkpt>
      <trkpt lat="49.93252" lon="5.20334">
        <ele>431</ele>
        <time>2015-05-03T08:53:05Z</time>
      </trkpt>
      <trkpt lat="49.9325" lon="5.20334">
        <ele>429</ele>
        <time>2015-05-03T08:53:11Z</time>
      </trkpt>
      <trkpt lat="49.93247" lon="5.20337">
        <ele>429</ele>
        <time>2015-05-03T08:53:16Z</time>
      </trkpt>
      <trkpt lat="49.93243" lon="5.20336">
        <ele>428</ele>
        <time>2015-05-03T08:53:21Z</time>
      </trkpt>
      <trkpt lat="49.93241" lon="5.2033">
        <ele>427</ele>
        <time>2015-05-03T08:53:27Z</time>
      </trkpt>
      <trkpt lat="49.93239" lon="5.20325">
        <ele>428</ele>
        <time>2015-05-03T08:53:32Z</time>
      </trkpt>
      <trkpt lat="49.93239" lon="5.20319">
        <ele>428</ele>
        <time>2015-05-03T08:53:37Z</time>
      </trkpt>
      <trkpt lat="49.9324" lon="5.20313">
        <ele>429</ele>
        <time>2015-05-03T08:53:43Z</time>
      </trkpt>
      <trkpt lat="49.93241" lon="5.20306">
        <ele>429</ele>
        <time>2015-05-03T08:53:49Z</time>
      </trkpt>
      <trkpt lat="49.93243" lon="5.20299">
        <ele>430</ele>
        <time>2015-05-03T08:53:54Z</time>
      </trkpt>
      <trkpt lat="49.93244" lon="5.20291">
        <ele>430</ele>
        <time>2015-05-03T08:53:59Z</time>
      </trkpt>
      <trkpt lat="49.93246" lon="5.20284">
        <ele>430</ele>
        <time>2015-05-03T08:54:04Z</time>
      </trkpt>
      <trkpt lat="49.93246" lon="5.20275">
        <ele>430</ele>
        <time>2015-05-03T08:54:09Z</time>
      </trkpt>
      <trkpt lat="49.93247" lon="5.20263">
        <ele>430</ele>
        <time>2015-05-03T08:54:15Z</time>
      </trkpt>
      <trkpt lat="49.93249" lon="5.20255">
        <ele>431</ele>
        <time>2015-05-03T08:54:20Z</time>
      </trkpt>
      <trkpt lat="49.9325" lon="5.20245">
        <ele>431</ele>
        <time>2015-05-03T08:54:26Z</time>
      </trkpt>
      <trkpt lat="49.93253" lon="5.20241">
        <ele>431</ele>
        <time>2015-05-03T08:54:31Z</time>
      </trkpt>
      <trkpt lat="49.93258" lon="5.20239">
        <ele>431</ele>
        <time>2015-05-03T08:54:37Z</time>
      </trkpt>
      <trkpt lat="49.93264" lon="5.20235">
        <ele>431</ele>
        <time>2015-05-03T08:54:43Z</time>
      </trkpt>
      <trkpt lat="49.9327" lon="5.20232">
        <ele>432</ele>
        <time>2015-05-03T08:54:49Z</time>
      </trkpt>
      <trkpt lat="49.93274" lon="5.20231">
        <ele>432</ele>
        <time>2015-05-03T08:54:54Z</time>
      </trkpt>
      <trkpt lat="49.93279" lon="5.20231">
        <ele>433</ele>
        <time>2015-05-03T08:55:00Z</time>
      </trkpt>
      <trkpt lat="49.93281" lon="5.20231">
        <ele>432</ele>
        <time>2015-05-03T08:55:06Z</time>
      </trkpt>
      <trkpt lat="49.93283" lon="5.2023">
        <ele>433</ele>
        <time>2015-05-03T08:55:12Z</time>
      </trkpt>
      <trkpt lat="49.93284" lon="5.20228">
        <ele>433</ele>
        <time>2015-05-03T08:55:18Z</time>
      </trkpt>
      <trkpt lat="49.93285" lon="5.20228">
        <ele>433</ele>
        <time>2015-05-03T08:55:23Z</time>
      </trkpt>
      <trkpt lat="49.93284" lon="5.20227">
        <ele>433</ele>
        <time>2015-05-03T08:55:28Z</time>
      </trkpt>
      <trkpt lat="49.93281" lon="5.20225">
        <ele>433</ele>
        <time>2015-05-03T08:55:34Z</time>
      </trkpt>
      <trkpt lat="49.93278" lon="5.20225">
        <ele>431</ele>
        <time>2015-05-03T08:55:39Z</time>
      </trkpt>
      <trkpt lat="49.93274" lon="5.20224">
        <ele>431</ele>
        <time>2015-05-03T08:55:44Z</time>
      </trkpt>
      <trkpt lat="49.93268" lon="5.20221">
        <ele>430</ele>
        <time>2015-05-03T08:55:49Z</time>
      </trkpt>
      <trkpt lat="49.93263" lon="5.20215">
        <ele>430</ele>
        <time>2015-05-03T08:55:55Z</time>
      </trkpt>
      <trkpt lat="49.93262" lon="5.20213">
        <ele>430</ele>
        <time>2015-05-03T08:56:00Z</time>
      </trkpt>
      <trkpt lat="49.9326" lon="5.20206">
        <ele>430</ele>
        <time>2015-05-03T08:56:06Z</time>
      </trkpt>
      <trkpt lat="49.93258" lon="5.20201">
        <ele>430</ele>
        <time>2015-05-03T08:56:11Z</time>
      </trkpt>
      <trkpt lat="49.93257" lon="5.20197">
        <ele>429</ele>
        <time>2015-05-03T08:56:16Z</time>
      </trkpt>
      <trkpt lat="49.93256" lon="5.20194">
        <ele>431</ele>
        <time>2015-05-03T08:56:22Z</time>
      </trkpt>
      <trkpt lat="49.93254" lon="5.20191">
        <ele>430</ele>
        <time>2015-05-03T08:56:28Z</time>
      </trkpt>
      <trkpt lat="49.93254" lon="5.2019">
        <ele>429</ele>
        <time>2015-05-03T08:56:33Z</time>
      </trkpt>
      <trkpt lat="49.93254" lon="5.20188">
        <ele>428</ele>
        <time>2015-05-03T08:56:38Z</time>
      </trkpt>
      <trkpt lat="49.93255" lon="5.20187">
        <ele>428</ele>
        <time>2015-05-03T08:56:44Z</time>
      </trkpt>
      <trkpt lat="49.93255" lon="5.20189">
        <ele>427</ele>
        <time>2015-05-03T08:56:49Z</time>
      </trkpt>
      <trkpt lat="49.93255" lon="5.2019">
        <ele>427</ele>
        <time>2015-05-03T08:56:55Z</time>
      </trkpt>
      <trkpt lat="49.93253" lon="5.20191">
        <ele>427</ele>
        <time>2015-05-03T08:57:00Z</time>
      </trkpt>
      <trkpt lat="49.93338" lon="5.19982">
        <ele>410</ele>
        <time>2015-05-03T08:57:06Z</time>
      </trkpt>
      <trkpt lat="49.93342" lon="5.19989">
        <ele>418</ele>
        <time>2015-05-03T08:57:12Z</time>
      </trkpt>
      <trkpt lat="49.93344" lon="5.19992">
        <ele>418</ele>
        <time>2015-05-03T08:57:17Z</time>
      </trkpt>
      <trkpt lat="49.93346" lon="5.19995">
        <ele>417</ele>
        <time>2015-05-03T08:57:22Z</time>
      </trkpt>
      <trkpt lat="49.93349" lon="5.19999">
        <ele>411</ele>
        <time>2015-05-03T08:57:28Z</time>
      </trkpt>
      <trkpt lat="49.93353" lon="5.20006">
        <ele>404</ele>
        <time>2015-05-03T08:57:34Z</time>
      </trkpt>
      <trkpt lat="49.93357" lon="5.20011">
        <ele>405</ele>
        <time>2015-05-03T08:57:39Z</time>
      </trkpt>
      <trkpt lat="49.93363" lon="5.20019">
        <ele>405</ele>
        <time>2015-05-03T08:57:45Z</time>
      </trkpt>
      <trkpt lat="49.9337" lon="5.20027">
        <ele>406</ele>
        <time>2015-05-03T08:57:51Z</time>
      </trkpt>
      <trkpt lat="49.93375" lon="5.20031">
        <ele>408</ele>
        <time>2015-05-03T08:57:56Z</time>
      </trkpt>
      <trkpt lat="49.93379" lon="5.20034">
        <ele>407</ele>
        <time>2015-05-03T08:58:01Z</time>
      </trkpt>
      <trkpt lat="49.93385" lon="5.20038">
        <ele>408</ele>
        <time>2015-05-03T08:58:07Z</time>
      </trkpt>
      <trkpt lat="49.9339" lon="5.20041">
        <ele>408</ele>
        <time>2015-05-03T08:58:12Z</time>
      </trkpt>
      <trkpt lat="49.93395" lon="5.20046">
        <ele>409</ele>
        <time>2015-05-03T08:58:17Z</time>
      </trkpt>
      <trkpt lat="49.93401" lon="5.2005">
        <ele>410</ele>
        <time>2015-05-03T08:58:23Z</time>
      </trkpt>
      <trkpt lat="49.93407" lon="5.2005">
        <ele>412</ele>
        <time>2015-05-03T08:58:29Z</time>
      </trkpt>
      <trkpt lat="49.93412" lon="5.20053">
        <ele>413</ele>
        <time>2015-05-03T08:58:35Z</time>
      </trkpt>
      <trkpt lat="49.93417" lon="5.20058">
        <ele>414</ele>
        <time>2015-05-03T08:58:40Z</time>
      </trkpt>
      <trkpt lat="49.93423" lon="5.20061">
        <ele>415</ele>
        <time>2015-05-03T08:58:46Z</time>
      </trkpt>
      <trkpt lat="49.93428" lon="5.20064">
        <ele>415</ele>
        <time>2015-05-03T08:58:51Z</time>
      </trkpt>
      <trkpt lat="49.93435" lon="5.20068">
        <ele>415</ele>
        <time>2015-05-03T08:58:57Z</time>
      </trkpt>
      <trkpt lat="49.93442" lon="5.20072">
        <ele>416</ele>
        <time>2015-05-03T08:59:02Z</time>
      </trkpt>
      <trkpt lat="49.93448" lon="5.20075">
        <ele>416</ele>
        <time>2015-05-03T08:59:07Z</time>
      </trkpt>
      <trkpt lat="49.93453" lon="5.20078">
        <ele>416</ele>
        <time>2015-05-03T08:59:12Z</time>
      </trkpt>
      <trkpt lat="49.9346" lon="5.20082">
        <ele>416</ele>
        <time>2015-05-03T08:59:18Z</time>
      </trkpt>
      <trkpt lat="49.93467" lon="5.20085">
        <ele>417</ele>
        <time>2015-05-03T08:59:24Z</time>
      </trkpt>
      <trkpt lat="49.93474" lon="5.2009">
        <ele>417</ele>
        <time>2015-05-03T08:59:30Z</time>
      </trkpt>
      <trkpt lat="49.9348" lon="5.20093">
        <ele>417</ele>
        <time>2015-05-03T08:59:35Z</time>
      </trkpt>
      <trkpt lat="49.93487" lon="5.20097">
        <ele>417</ele>
        <time>2015-05-03T08:59:41Z</time>
      </trkpt>
      <trkpt lat="49.93493" lon="5.201">
        <ele>417</ele>
        <time>2015-05-03T08:59:46Z</time>
      </trkpt>
      <trkpt lat="49.935" lon="5.20102">
        <ele>418</ele>
        <time>2015-05-03T08:59:51Z</time>
      </trkpt>
      <trkpt lat="49.93507" lon="5.20106">
        <ele>418</ele>
        <time>2015-05-03T08:59:57Z</time>
      </trkpt>
      <trkpt lat="49.93513" lon="5.20108">
        <ele>418</ele>
        <time>2015-05-03T09:00:02Z</time>
      </trkpt>
      <trkpt lat="49.93519" lon="5.2011">
        <ele>418</ele>
        <time>2015-05-03T09:00:07Z</time>
      </trkpt>
      <trkpt lat="49.93527" lon="5.20115">
        <ele>418</ele>
        <time>2015-05-03T09:00:13Z</time>
      </trkpt>
      <trkpt lat="49.93532" lon="5.20117">
        <ele>418</ele>
        <time>2015-05-03T09:00:18Z</time>
      </trkpt>
      <trkpt lat="49.93538" lon="5.2012">
        <ele>418</ele>
        <time>2015-05-03T09:00:24Z</time>
      </trkpt>
      <trkpt lat="49.93542" lon="5.20122">
        <ele>419</ele>
        <time>2015-05-03T09:00:29Z</time>
      </trkpt>
      <trkpt lat="49.93549" lon="5.20127">
        <ele>419</ele>
        <time>2015-05-03T09:00:35Z</time>
      </trkpt>
      <trkpt lat="49.93554" lon="5.20129">
        <ele>420</ele>
        <time>2015-05-03T09:00:40Z</time>
      </trkpt>
      <trkpt lat="49.93562" lon="5.20133">
        <ele>420</ele>
        <time>2015-05-03T09:00:46Z</time>
      </trkpt>
      <trkpt lat="49.93567" lon="5.20137">
        <ele>419</ele>
        <time>2015-05-03T09:00:51Z</time>
      </trkpt>
      <trkpt lat="49.93573" lon="5.20141">
        <ele>419</ele>
        <time>2015-05-03T09:00:56Z</time>
      </trkpt>
      <trkpt lat="49.9358" lon="5.20145">
        <ele>419</ele>
        <time>2015-05-03T09:01:01Z</time>
      </trkpt>
      <trkpt lat="49.93586" lon="5.20148">
        <ele>420</ele>
        <time>2015-05-03T09:01:07Z</time>
      </trkpt>
      <trkpt lat="49.93592" lon="5.20153">
        <ele>419</ele>
        <time>2015-05-03T09:01:13Z</time>
      </trkpt>
      <trkpt lat="49.93599" lon="5.20157">
        <ele>419</ele>
        <time>2015-05-03T09:01:18Z</time>
      </trkpt>
      <trkpt lat="49.93607" lon="5.20157">
        <ele>419</ele>
        <time>2015-05-03T09:01:24Z</time>
      </trkpt>
      <trkpt lat="49.93612" lon="5.20155">
        <ele>420</ele>
        <time>2015-05-03T09:01:29Z</time>
      </trkpt>
      <trkpt lat="49.93615" lon="5.20152">
        <ele>419</ele>
        <time>2015-05-03T09:01:34Z</time>
      </trkpt>
      <trkpt lat="49.9362" lon="5.20146">
        <ele>419</ele>
        <time>2015-05-03T09:01:40Z</time>
      </trkpt>
      <trkpt lat="49.93624" lon="5.20143">
        <ele>419</ele>
        <time>2015-05-03T09:01:45Z</time>
      </trkpt>
      <trkpt lat="49.93627" lon="5.20139">
        <ele>419</ele>
        <time>2015-05-03T09:01:50Z</time>
      </trkpt>
      <trkpt lat="49.93631" lon="5.20132">
        <ele>419</ele>
        <time>2015-05-03T09:01:56Z</time>
      </trkpt>
      <trkpt lat="49.93636" lon="5.20127">
        <ele>418</ele>
        <time>2015-05-03T09:02:02Z</time>
      </trkpt>
      <trkpt lat="49.93642" lon="5.20121">
        <ele>419</ele>
        <time>2015-05-03T09:02:08Z</time>
      </trkpt>
      <trkpt lat="49.93646" lon="5.20113">
        <ele>418</ele>
        <time>2015-05-03T09:02:14Z</time>
      </trkpt>
      <trkpt lat="49.9365" lon="5.20107">
        <ele>417</ele>
        <time>2015-05-03T09:02:19Z</time>
      </trkpt>
      <trkpt lat="49.93654" lon="5.201">
        <ele>417</ele>
        <time>2015-05-03T09:02:25Z</time>
      </trkpt>
      <trkpt lat="49.93657" lon="5.20094">
        <ele>417</ele>
        <time>2015-05-03T09:02:30Z</time>
      </trkpt>
      <trkpt lat="49.93662" lon="5.20086">
        <ele>416</ele>
        <time>2015-05-03T09:02:36Z</time>
      </trkpt>
      <trkpt lat="49.93665" lon="5.20077">
        <ele>416</ele>
        <time>2015-05-03T09:02:41Z</time>
      </trkpt>
      <trkpt lat="49.9367" lon="5.2007">
        <ele>416</ele>
        <time>2015-05-03T09:02:47Z</time>
      </trkpt>
      <trkpt lat="49.93675" lon="5.20067">
        <ele>416</ele>
        <time>2015-05-03T09:02:52Z</time>
      </trkpt>
      <trkpt lat="49.93678" lon="5.20061">
        <ele>416</ele>
        <time>2015-05-03T09:02:58Z</time>
      </trkpt>
      <trkpt lat="49.93681" lon="5.20057">
        <ele>416</ele>
        <time>2015-05-03T09:03:03Z</time>
      </trkpt>
      <trkpt lat="49.93685" lon="5.2005">
        <ele>416</ele>
        <time>2015-05-03T09:03:09Z</time>
      </trkpt>
      <trkpt lat="49.93688" lon="5.20044">
        <ele>416</ele>
        <time>2015-05-03T09:03:14Z</time>
      </trkpt>
      <trkpt lat="49.93692" lon="5.20036">
        <ele>417</ele>
        <time>2015-05-03T09:03:20Z</time>
      </trkpt>
      <trkpt lat="49.93696" lon="5.2003">
        <ele>417</ele>
        <time>2015-05-03T09:03:25Z</time>
      </trkpt>
      <trkpt lat="49.93699" lon="5.2002">
        <ele>417</ele>
        <time>2015-05-03T09:03:31Z</time>
      </trkpt>
      <trkpt lat="49.93701" lon="5.2001">
        <ele>417</ele>
        <time>2015-05-03T09:03:37Z</time>
      </trkpt>
      <trkpt lat="49.93704" lon="5.20005">
        <ele>417</ele>
        <time>2015-05-03T09:03:42Z</time>
      </trkpt>
      <trkpt lat="49.93706" lon="5.19998">
        <ele>417</ele>
        <time>2015-05-03T09:03:47Z</time>
      </trkpt>
      <trkpt lat="49.93709" lon="5.19988">
        <ele>417</ele>
        <time>2015-05-03T09:03:53Z</time>
      </trkpt>
      <trkpt lat="49.93711" lon="5.19981">
        <ele>417</ele>
        <time>2015-05-03T09:03:58Z</time>
      </trkpt>
      <trkpt lat="49.93715" lon="5.19974">
        <ele>417</ele>
        <time>2015-05-03T09:04:04Z</time>
      </trkpt>
      <trkpt lat="49.93719" lon="5.19968">
        <ele>418</ele>
        <time>2015-05-03T09:04:09Z</time>
      </trkpt>
      <trkpt lat="49.93725" lon="5.19962">
        <ele>417</ele>
        <time>2015-05-03T09:04:15Z</time>
      </trkpt>
      <trkpt lat="49.93729" lon="5.19957">
        <ele>416</ele>
        <time>2015-05-03T09:04:21Z</time>
      </trkpt>
      <trkpt lat="49.93732" lon="5.19952">
        <ele>416</ele>
        <time>2015-05-03T09:04:26Z</time>
      </trkpt>
      <trkpt lat="49.93736" lon="5.19945">
        <ele>416</ele>
        <time>2015-05-03T09:04:31Z</time>
      </trkpt>
      <trkpt lat="49.93738" lon="5.19941">
        <ele>416</ele>
        <time>2015-05-03T09:04:37Z</time>
      </trkpt>
      <trkpt lat="49.93742" lon="5.19937">
        <ele>415</ele>
        <time>2015-05-03T09:04:42Z</time>
      </trkpt>
      <trkpt lat="49.93747" lon="5.19935">
        <ele>415</ele>
        <time>2015-05-03T09:04:48Z</time>
      </trkpt>
      <trkpt lat="49.93752" lon="5.19932">
        <ele>415</ele>
        <time>2015-05-03T09:04:53Z</time>
      </trkpt>
      <trkpt lat="49.93757" lon="5.19925">
        <ele>414</ele>
        <time>2015-05-03T09:04:59Z</time>
      </trkpt>
      <trkpt lat="49.93763" lon="5.19918">
        <ele>414</ele>
        <time>2015-05-03T09:05:05Z</time>
      </trkpt>
      <trkpt lat="49.93769" lon="5.19913">
        <ele>414</ele>
        <time>2015-05-03T09:05:10Z</time>
      </trkpt>
      <trkpt lat="49.93774" lon="5.19908">
        <ele>414</ele>
        <time>2015-05-03T09:05:15Z</time>
      </trkpt>
      <trkpt lat="49.9378" lon="5.19904">
        <ele>414</ele>
        <time>2015-05-03T09:05:20Z</time>
      </trkpt>
      <trkpt lat="49.93786" lon="5.19899">
        <ele>414</ele>
        <time>2015-05-03T09:05:26Z</time>
      </trkpt>
      <trkpt lat="49.93792" lon="5.19893">
        <ele>414</ele>
        <time>2015-05-03T09:05:31Z</time>
      </trkpt>
      <trkpt lat="49.93796" lon="5.19887">
        <ele>414</ele>
        <time>2015-05-03T09:05:36Z</time>
      </trkpt>
      <trkpt lat="49.93802" lon="5.1988">
        <ele>414</ele>
        <time>2015-05-03T09:05:42Z</time>
      </trkpt>
      <trkpt lat="49.93807" lon="5.19874">
        <ele>413</ele>
        <time>2015-05-03T09:05:48Z</time>
      </trkpt>
      <trkpt lat="49.93811" lon="5.19869">
        <ele>412</ele>
        <time>2015-05-03T09:05:53Z</time>
      </trkpt>
      <trkpt lat="49.93817" lon="5.19865">
        <ele>412</ele>
        <time>2015-05-03T09:05:58Z</time>
      </trkpt>
      <trkpt lat="49.93822" lon="5.1986">
        <ele>412</ele>
        <time>2015-05-03T09:06:03Z</time>
      </trkpt>
      <trkpt lat="49.93828" lon="5.19853">
        <ele>412</ele>
        <time>2015-05-03T09:06:08Z</time>
      </trkpt>
      <trkpt lat="49.93834" lon="5.19846">
        <ele>412</ele>
        <time>2015-05-03T09:06:14Z</time>
      </trkpt>
      <trkpt lat="49.93839" lon="5.1984">
        <ele>413</ele>
        <time>2015-05-03T09:06:20Z</time>
      </trkpt>
      <trkpt lat="49.93845" lon="5.19833">
        <ele>410</ele>
        <time>2015-05-03T09:06:26Z</time>
      </trkpt>
      <trkpt lat="49.93852" lon="5.19827">
        <ele>395</ele>
        <time>2015-05-03T09:06:31Z</time>
      </trkpt>
      <trkpt lat="49.93858" lon="5.19822">
        <ele>390</ele>
        <time>2015-05-03T09:06:37Z</time>
      </trkpt>
      <trkpt lat="49.93864" lon="5.19817">
        <ele>390</ele>
        <time>2015-05-03T09:06:42Z</time>
      </trkpt>
      <trkpt lat="49.9387" lon="5.19811">
        <ele>390</ele>
        <time>2015-05-03T09:06:48Z</time>
      </trkpt>
      <trkpt lat="49.93877" lon="5.19808">
        <ele>390</ele>
        <time>2015-05-03T09:06:53Z</time>
      </trkpt>
      <trkpt lat="49.93881" lon="5.19806">
        <ele>389</ele>
        <time>2015-05-03T09:06:59Z</time>
      </trkpt>
      <trkpt lat="49.93885" lon="5.19805">
        <ele>390</ele>
        <time>2015-05-03T09:07:04Z</time>
      </trkpt>
      <trkpt lat="49.93892" lon="5.19804">
        <ele>390</ele>
        <time>2015-05-03T09:07:09Z</time>
      </trkpt>
      <trkpt lat="49.93899" lon="5.19804">
        <ele>390</ele>
        <time>2015-05-03T09:07:14Z</time>
      </trkpt>
      <trkpt lat="49.93906" lon="5.19803">
        <ele>390</ele>
        <time>2015-05-03T09:07:20Z</time>
      </trkpt>
      <trkpt lat="49.93913" lon="5.19801">
        <ele>390</ele>
        <time>2015-05-03T09:07:25Z</time>
      </trkpt>
      <trkpt lat="49.93919" lon="5.198">
        <ele>390</ele>
        <time>2015-05-03T09:07:31Z</time>
      </trkpt>
      <trkpt lat="49.93925" lon="5.19797">
        <ele>390</ele>
        <time>2015-05-03T09:07:37Z</time>
      </trkpt>
      <trkpt lat="49.93931" lon="5.19796">
        <ele>390</ele>
        <time>2015-05-03T09:07:42Z</time>
      </trkpt>
      <trkpt lat="49.93938" lon="5.19794">
        <ele>390</ele>
        <time>2015-05-03T09:07:47Z</time>
      </trkpt>
      <trkpt lat="49.93944" lon="5.19792">
        <ele>389</ele>
        <time>2015-05-03T09:07:53Z</time>
      </trkpt>
      <trkpt lat="49.93951" lon="5.19791">
        <ele>389</ele>
        <time>2015-05-03T09:07:59Z</time>
      </trkpt>
      <trkpt lat="49.93957" lon="5.19791">
        <ele>389</ele>
        <time>2015-05-03T09:08:05Z</time>
      </trkpt>
      <trkpt lat="49.93964" lon="5.19789">
        <ele>389</ele>
        <time>2015-05-03T09:08:11Z</time>
      </trkpt>
      <trkpt lat="49.93969" lon="5.19787">
        <ele>388</ele>
        <time>2015-05-03T09:08:17Z</time>
      </trkpt>
      <trkpt lat="49.93975" lon="5.19786">
        <ele>388</ele>
        <time>2015-05-03T09:08:22Z</time>
      </trkpt>
      <trkpt lat="49.9398" lon="5.19783">
        <ele>388</ele>
        <time>2015-05-03T09:08:28Z</time>
      </trkpt>
      <trkpt lat="49.93986" lon="5.19783">
        <ele>388</ele>
        <time>2015-05-03T09:08:34Z</time>
      </trkpt>
      <trkpt lat="49.93992" lon="5.1978">
        <ele>388</ele>
        <time>2015-05-03T09:08:39Z</time>
      </trkpt>
      <trkpt lat="49.93997" lon="5.1978">
        <ele>388</ele>
        <time>2015-05-03T09:08:45Z</time>
      </trkpt>
      <trkpt lat="49.94004" lon="5.19778">
        <ele>387</ele>
        <time>2015-05-03T09:08:50Z</time>
      </trkpt>
      <trkpt lat="49.94008" lon="5.19779">
        <ele>387</ele>
        <time>2015-05-03T09:08:55Z</time>
      </trkpt>
      <trkpt lat="49.94015" lon="5.19779">
        <ele>387</ele>
        <time>2015-05-03T09:09:01Z</time>
      </trkpt>
      <trkpt lat="49.9402" lon="5.19776">
        <ele>388</ele>
        <time>2015-05-03T09:09:07Z</time>
      </trkpt>
      <trkpt lat="49.94026" lon="5.19775">
        <ele>388</ele>
        <time>2015-05-03T09:09:13Z</time>
      </trkpt>
      <trkpt lat="49.94033" lon="5.19775">
        <ele>388</ele>
        <time>2015-05-03T09:09:18Z</time>
      </trkpt>
      <trkpt lat="49.9404" lon="5.19774">
        <ele>387</ele>
        <time>2015-05-03T09:09:25Z</time>
      </trkpt>
      <trkpt lat="49.94047" lon="5.19773">
        <ele>388</ele>
        <time>2015-05-03T09:09:31Z</time>
      </trkpt>
      <trkpt lat="49.94056" lon="5.19771">
        <ele>388</ele>
        <time>2015-05-03T09:09:37Z</time>
      </trkpt>
      <trkpt lat="49.94065" lon="5.19768">
        <ele>388</ele>
        <time>2015-05-03T09:09:43Z</time>
      </trkpt>
      <trkpt lat="49.94073" lon="5.19766">
        <ele>388</ele>
        <time>2015-05-03T09:09:48Z</time>
      </trkpt>
      <trkpt lat="49.9408" lon="5.19764">
        <ele>389</ele>
        <time>2015-05-03T09:09:54Z</time>
      </trkpt>
      <trkpt lat="49.94089" lon="5.19762">
        <ele>389</ele>
        <time>2015-05-03T09:09:59Z</time>
      </trkpt>
      <trkpt lat="49.94097" lon="5.1976">
        <ele>388</ele>
        <time>2015-05-03T09:10:05Z</time>
      </trkpt>
      <trkpt lat="49.94104" lon="5.19759">
        <ele>388</ele>
        <time>2015-05-03T09:10:11Z</time>
      </trkpt>
      <trkpt lat="49.94111" lon="5.19757">
        <ele>387</ele>
        <time>2015-05-03T09:10:17Z</time>
      </trkpt>
      <trkpt lat="49.94118" lon="5.19757">
        <ele>388</ele>
        <time>2015-05-03T09:10:22Z</time>
      </trkpt>
      <trkpt lat="49.94124" lon="5.19757">
        <ele>388</ele>
        <time>2015-05-03T09:10:28Z</time>
      </trkpt>
      <trkpt lat="49.94132" lon="5.19758">
        <ele>388</ele>
        <time>2015-05-03T09:10:33Z</time>
      </trkpt>
      <trkpt lat="49.94138" lon="5.19757">
        <ele>388</ele>
        <time>2015-05-03T09:10:38Z</time>
      </trkpt>
      <trkpt lat="49.94146" lon="5.19757">
        <ele>388</ele>
        <time>2015-05-03T09:10:44Z</time>
      </trkpt>
      <trkpt lat="49.94152" lon="5.19756">
        <ele>388</ele>
        <time>2015-05-03T09:10:49Z</time>
      </trkpt>
      <trkpt lat="49.94158" lon="5.19755">
        <ele>388</ele>
        <time>2015-05-03T09:10:55Z</time>
      </trkpt>
      <trkpt lat="49.94164" lon="5.19755">
        <ele>388</ele>
        <time>2015-05-03T09:11:01Z</time>
      </trkpt>
      <trkpt lat="49.9417" lon="5.19755">
        <ele>387</ele>
        <time>2015-05-03T09:11:07Z</time>
      </trkpt>
      <trkpt lat="49.94176" lon="5.19755">
        <ele>387</ele>
        <time>2015-05-03T09:11:13Z</time>
      </trkpt>
      <trkpt lat="49.9418" lon="5.19754">
        <ele>386</ele>
        <time>2015-05-03T09:11:18Z</time>
      </trkpt>
      <trkpt lat="49.94185" lon="5.19752">
        <ele>386</ele>
        <time>2015-05-03T09:11:23Z</time>
      </trkpt>
      <trkpt lat="49.94189" lon="5.19753">
        <ele>386</ele>
        <time>2015-05-03T09:11:29Z</time>
      </trkpt>
      <trkpt lat="49.94192" lon="5.19752">
        <ele>385</ele>
        <time>2015-05-03T09:11:34Z</time>
      </trkpt>
      <trkpt lat="49.94196" lon="5.19749">
        <ele>385</ele>
        <time>2015-05-03T09:11:40Z</time>
      </trkpt>
      <trkpt lat="49.94198" lon="5.19746">
        <ele>385</ele>
        <time>2015-05-03T09:11:46Z</time>
      </trkpt>
      <trkpt lat="49.942" lon="5.19742">
        <ele>385</ele>
        <time>2015-05-03T09:11:51Z</time>
      </trkpt>
      <trkpt lat="49.94203" lon="5.19737">
        <ele>385</ele>
        <time>2015-05-03T09:11:56Z</time>
      </trkpt>
      <trkpt lat="49.94204" lon="5.19735">
        <ele>385</ele>
        <time>2015-05-03T09:12:01Z</time>
      </trkpt>
      <trkpt lat="49.94207" lon="5.19733">
        <ele>385</ele>
        <time>2015-05-03T09:12:07Z</time>
      </trkpt>
      <trkpt lat="49.9421" lon="5.19733">
        <ele>384</ele>
        <time>2015-05-03T09:12:13Z</time>
      </trkpt>
      <trkpt lat="49.94211" lon="5.1973">
        <ele>384</ele>
        <time>2015-05-03T09:12:18Z</time>
      </trkpt>
      <trkpt lat="49.94211" lon="5.19727">
        <ele>384</ele>
        <time>2015-05-03T09:12:25Z</time>
      </trkpt>
      <trkpt lat="49.94211" lon="5.19723">
        <ele>384</ele>
        <time>2015-05-03T09:12:31Z</time>
      </trkpt>
      <trkpt lat="49.94211" lon="5.1972">
        <ele>384</ele>
        <time>2015-05-03T09:12:37Z</time>
      </trkpt>
      <trkpt lat="49.94212" lon="5.19724">
        <ele>384</ele>
        <time>2015-05-03T09:12:42Z</time>
      </trkpt>
      <trkpt lat="49.94212" lon="5.19729">
        <ele>384</ele>
        <time>2015-05-03T09:12:48Z</time>
      </trkpt>
      <trkpt lat="49.94217" lon="5.1973">
        <ele>384</ele>
        <time>2015-05-03T09:12:54Z</time>
      </trkpt>
      <trkpt lat="49.9422" lon="5.19731">
        <ele>384</ele>
        <time>2015-05-03T09:13:00Z</time>
      </trkpt>
      <trkpt lat="49.94225" lon="5.19729">
        <ele>384</ele>
        <time>2015-05-03T09:13:06Z</time>
      </trkpt>
      <trkpt lat="49.9423" lon="5.19727">
        <ele>385</ele>
        <time>2015-05-03T09:13:11Z</time>
      </trkpt>
      <trkpt lat="49.94234" lon="5.19725">
        <ele>385</ele>
        <time>2015-05-03T09:13:17Z</time>
      </trkpt>
      <trkpt lat="49.94239" lon="5.19724">
        <ele>384</ele>
        <time>2015-05-03T09:13:23Z</time>
      </trkpt>
      <trkpt lat="49.94246" lon="5.19722">
        <ele>385</ele>
        <time>2015-05-03T09:13:28Z</time>
      </trkpt>
      <trkpt lat="49.94253" lon="5.19717">
        <ele>384</ele>
        <time>2015-05-03T09:13:35Z</time>
      </trkpt>
      <trkpt lat="49.94259" lon="5.19715">
        <ele>384</ele>
        <time>2015-05-03T09:13:40Z</time>
      </trkpt>
      <trkpt lat="49.94265" lon="5.19713">
        <ele>384</ele>
        <time>2015-05-03T09:13:46Z</time>
      </trkpt>
      <trkpt lat="49.94271" lon="5.19711">
        <ele>383</ele>
        <time>2015-05-03T09:13:51Z</time>
      </trkpt>
      <trkpt lat="49.94276" lon="5.19709">
        <ele>384</ele>
        <time>2015-05-03T09:13:57Z</time>
      </trkpt>
      <trkpt lat="49.94282" lon="5.19708">
        <ele>384</ele>
        <time>2015-05-03T09:14:02Z</time>
      </trkpt>
      <trkpt lat="49.94289" lon="5.19705">
        <ele>383</ele>
        <time>2015-05-03T09:14:07Z</time>
      </trkpt>
      <trkpt lat="49.94296" lon="5.19704">
        <ele>383</ele>
        <time>2015-05-03T09:14:12Z</time>
      </trkpt>
      <trkpt lat="49.94302" lon="5.19702">
        <ele>383</ele>
        <time>2015-05-03T09:14:18Z</time>
      </trkpt>
      <trkpt lat="49.94308" lon="5.197">
        <ele>383</ele>
        <time>2015-05-03T09:14:24Z</time>
      </trkpt>
      <trkpt lat="49.94315" lon="5.19697">
        <ele>383</ele>
        <time>2015-05-03T09:14:29Z</time>
      </trkpt>
      <trkpt lat="49.94321" lon="5.19695">
        <ele>384</ele>
        <time>2015-05-03T09:14:35Z</time>
      </trkpt>
      <trkpt lat="49.94326" lon="5.19691">
        <ele>384</ele>
        <time>2015-05-03T09:14:41Z</time>
      </trkpt>
      <trkpt lat="49.94331" lon="5.19686">
        <ele>384</ele>
        <time>2015-05-03T09:14:46Z</time>
      </trkpt>
      <trkpt lat="49.94333" lon="5.19686">
        <ele>384</ele>
        <time>2015-05-03T09:14:53Z</time>
      </trkpt>
      <trkpt lat="49.94334" lon="5.19684">
        <ele>384</ele>
        <time>2015-05-03T09:14:58Z</time>
      </trkpt>
      <trkpt lat="49.94333" lon="5.19681">
        <ele>384</ele>
        <time>2015-05-03T09:15:03Z</time>
      </trkpt>
      <trkpt lat="49.94332" lon="5.19678">
        <ele>384</ele>
        <time>2015-05-03T09:15:10Z</time>
      </trkpt>
      <trkpt lat="49.94331" lon="5.19675">
        <ele>383</ele>
        <time>2015-05-03T09:15:15Z</time>
      </trkpt>
      <trkpt lat="49.94329" lon="5.19671">
        <ele>383</ele>
        <time>2015-05-03T09:15:21Z</time>
      </trkpt>
      <trkpt lat="49.94329" lon="5.19672">
        <ele>383</ele>
        <time>2015-05-03T09:15:27Z</time>
      </trkpt>
      <trkpt lat="49.94328" lon="5.19674">
        <ele>383</ele>
        <time>2015-05-03T09:15:33Z</time>
      </trkpt>
      <trkpt lat="49.94328" lon="5.19676">
        <ele>382</ele>
        <time>2015-05-03T09:15:38Z</time>
      </trkpt>
      <trkpt lat="49.94329" lon="5.19677">
        <ele>382</ele>
        <time>2015-05-03T09:15:43Z</time>
      </trkpt>
      <trkpt lat="49.94331" lon="5.19675">
        <ele>382</ele>
        <time>2015-05-03T09:15:48Z</time>
      </trkpt>
      <trkpt lat="49.94334" lon="5.19675">
        <ele>382</ele>
        <time>2015-05-03T09:15:54Z</time>
      </trkpt>
      <trkpt lat="49.94339" lon="5.19675">
        <ele>383</ele>
        <time>2015-05-03T09:16:00Z</time>
      </trkpt>
      <trkpt lat="49.94343" lon="5.19674">
        <ele>383</ele>
        <time>2015-05-03T09:16:06Z</time>
      </trkpt>
      <trkpt lat="49.94349" lon="5.19673">
        <ele>383</ele>
        <time>2015-05-03T09:16:13Z</time>
      </trkpt>
      <trkpt lat="49.94352" lon="5.19672">
        <ele>383</ele>
        <time>2015-05-03T09:16:18Z</time>
      </trkpt>
      <trkpt lat="49.94358" lon="5.19669">
        <ele>383</ele>
        <time>2015-05-03T09:16:23Z</time>
      </trkpt>
      <trkpt lat="49.94363" lon="5.19666">
        <ele>382</ele>
        <time>2015-05-03T09:16:29Z</time>
      </trkpt>
      <trkpt lat="49.9437" lon="5.19663">
        <ele>382</ele>
        <time>2015-05-03T09:16:35Z</time>
      </trkpt>
      <trkpt lat="49.94378" lon="5.19658">
        <ele>382</ele>
        <time>2015-05-03T09:16:41Z</time>
      </trkpt>
      <trkpt lat="49.94384" lon="5.19655">
        <ele>381</ele>
        <time>2015-05-03T09:16:46Z</time>
      </trkpt>
      <trkpt lat="49.9439" lon="5.19649">
        <ele>382</ele>
        <time>2015-05-03T09:16:52Z</time>
      </trkpt>
      <trkpt lat="49.94395" lon="5.19646">
        <ele>382</ele>
        <time>2015-05-03T09:16:57Z</time>
      </trkpt>
      <trkpt lat="49.944" lon="5.19641">
        <ele>381</ele>
        <time>2015-05-03T09:17:02Z</time>
      </trkpt>
      <trkpt lat="49.94404" lon="5.19637">
        <ele>381</ele>
        <time>2015-05-03T09:17:08Z</time>
      </trkpt>
      <trkpt lat="49.9441" lon="5.19635">
        <ele>381</ele>
        <time>2015-05-03T09:17:13Z</time>
      </trkpt>
      <trkpt lat="49.94418" lon="5.19633">
        <ele>381</ele>
        <time>2015-05-03T09:17:19Z</time>
      </trkpt>
      <trkpt lat="49.94424" lon="5.19631">
        <ele>381</ele>
        <time>2015-05-03T09:17:25Z</time>
      </trkpt>
      <trkpt lat="49.94432" lon="5.19628">
        <ele>381</ele>
        <time>2015-05-03T09:17:30Z</time>
      </trkpt>
      <trkpt lat="49.94438" lon="5.19626">
        <ele>381</ele>
        <time>2015-05-03T09:17:36Z</time>
      </trkpt>
      <trkpt lat="49.94446" lon="5.19623">
        <ele>381</ele>
        <time>2015-05-03T09:17:41Z</time>
      </trkpt>
      <trkpt lat="49.94453" lon="5.19622">
        <ele>381</ele>
        <time>2015-05-03T09:17:46Z</time>
      </trkpt>
      <trkpt lat="49.9446" lon="5.19621">
        <ele>381</ele>
        <time>2015-05-03T09:17:52Z</time>
      </trkpt>
      <trkpt lat="49.94467" lon="5.19619">
        <ele>381</ele>
        <time>2015-05-03T09:17:57Z</time>
      </trkpt>
      <trkpt lat="49.94473" lon="5.19618">
        <ele>380</ele>
        <time>2015-05-03T09:18:02Z</time>
      </trkpt>
      <trkpt lat="49.94479" lon="5.19615">
        <ele>380</ele>
        <time>2015-05-03T09:18:08Z</time>
      </trkpt>
      <trkpt lat="49.94487" lon="5.19612">
        <ele>380</ele>
        <time>2015-05-03T09:18:13Z</time>
      </trkpt>
      <trkpt lat="49.94495" lon="5.19611">
        <ele>380</ele>
        <time>2015-05-03T09:18:19Z</time>
      </trkpt>
      <trkpt lat="49.94501" lon="5.1961">
        <ele>379</ele>
        <time>2015-05-03T09:18:24Z</time>
      </trkpt>
      <trkpt lat="49.94508" lon="5.19609">
        <ele>379</ele>
        <time>2015-05-03T09:18:29Z</time>
      </trkpt>
      <trkpt lat="49.94514" lon="5.19608">
        <ele>379</ele>
        <time>2015-05-03T09:18:35Z</time>
      </trkpt>
      <trkpt lat="49.94519" lon="5.19606">
        <ele>379</ele>
        <time>2015-05-03T09:18:41Z</time>
      </trkpt>
      <trkpt lat="49.94525" lon="5.19606">
        <ele>379</ele>
        <time>2015-05-03T09:18:47Z</time>
      </trkpt>
      <trkpt lat="49.9453" lon="5.19609">
        <ele>379</ele>
        <time>2015-05-03T09:18:52Z</time>
      </trkpt>
      <trkpt lat="49.94535" lon="5.1961">
        <ele>379</ele>
        <time>2015-05-03T09:18:58Z</time>
      </trkpt>
      <trkpt lat="49.94538" lon="5.19607">
        <ele>378</ele>
        <time>2015-05-03T09:19:03Z</time>
      </trkpt>
      <trkpt lat="49.94542" lon="5.19604">
        <ele>377</ele>
        <time>2015-05-03T09:19:09Z</time>
      </trkpt>
      <trkpt lat="49.94547" lon="5.19601">
        <ele>377</ele>
        <time>2015-05-03T09:19:15Z</time>
      </trkpt>
      <trkpt lat="49.94551" lon="5.19599">
        <ele>378</ele>
        <time>2015-05-03T09:19:22Z</time>
      </trkpt>
      <trkpt lat="49.94557" lon="5.19596">
        <ele>377</ele>
        <time>2015-05-03T09:19:27Z</time>
      </trkpt>
      <trkpt lat="49.94562" lon="5.19594">
        <ele>377</ele>
        <time>2015-05-03T09:19:32Z</time>
      </trkpt>
      <trkpt lat="49.94567" lon="5.19592">
        <ele>377</ele>
        <time>2015-05-03T09:19:38Z</time>
      </trkpt>
      <trkpt lat="49.94574" lon="5.19589">
        <ele>377</ele>
        <time>2015-05-03T09:19:44Z</time>
      </trkpt>
      <trkpt lat="49.94581" lon="5.19586">
        <ele>377</ele>
        <time>2015-05-03T09:19:49Z</time>
      </trkpt>
      <trkpt lat="49.94589" lon="5.19583">
        <ele>377</ele>
        <time>2015-05-03T09:19:55Z</time>
      </trkpt>
      <trkpt lat="49.94595" lon="5.19579">
        <ele>377</ele>
        <time>2015-05-03T09:20:01Z</time>
      </trkpt>
      <trkpt lat="49.94603" lon="5.19576">
        <ele>378</ele>
        <time>2015-05-03T09:20:06Z</time>
      </trkpt>
      <trkpt lat="49.94609" lon="5.19573">
        <ele>378</ele>
        <time>2015-05-03T09:20:12Z</time>
      </trkpt>
      <trkpt lat="49.94616" lon="5.19569">
        <ele>377</ele>
        <time>2015-05-03T09:20:17Z</time>
      </trkpt>
      <trkpt lat="49.94624" lon="5.19566">
        <ele>377</ele>
        <time>2015-05-03T09:20:23Z</time>
      </trkpt>
      <trkpt lat="49.9463" lon="5.19564">
        <ele>377</ele>
        <time>2015-05-03T09:20:28Z</time>
      </trkpt>
      <trkpt lat="49.94636" lon="5.1956">
        <ele>378</ele>
        <time>2015-05-03T09:20:33Z</time>
      </trkpt>
      <trkpt lat="49.94642" lon="5.19557">
        <ele>378</ele>
        <time>2015-05-03T09:20:39Z</time>
      </trkpt>
      <trkpt lat="49.94649" lon="5.19553">
        <ele>378</ele>
        <time>2015-05-03T09:20:44Z</time>
      </trkpt>
      <trkpt lat="49.94655" lon="5.1955">
        <ele>378</ele>
        <time>2015-05-03T09:20:49Z</time>
      </trkpt>
      <trkpt lat="49.94661" lon="5.19547">
        <ele>378</ele>
        <time>2015-05-03T09:20:55Z</time>
      </trkpt>
      <trkpt lat="49.94667" lon="5.19541">
        <ele>378</ele>
        <time>2015-05-03T09:21:00Z</time>
      </trkpt>
      <trkpt lat="49.94671" lon="5.19536">
        <ele>378</ele>
        <time>2015-05-03T09:21:05Z</time>
      </trkpt>
      <trkpt lat="49.94675" lon="5.19531">
        <ele>377</ele>
        <time>2015-05-03T09:21:11Z</time>
      </trkpt>
      <trkpt lat="49.94679" lon="5.19527">
        <ele>377</ele>
        <time>2015-05-03T09:21:17Z</time>
      </trkpt>
      <trkpt lat="49.94684" lon="5.19524">
        <ele>377</ele>
        <time>2015-05-03T09:21:22Z</time>
      </trkpt>
      <trkpt lat="49.94688" lon="5.19523">
        <ele>377</ele>
        <time>2015-05-03T09:21:27Z</time>
      </trkpt>
      <trkpt lat="49.94693" lon="5.19521">
        <ele>378</ele>
        <time>2015-05-03T09:21:34Z</time>
      </trkpt>
      <trkpt lat="49.947" lon="5.19518">
        <ele>377</ele>
        <time>2015-05-03T09:21:39Z</time>
      </trkpt>
      <trkpt lat="49.94707" lon="5.19517">
        <ele>377</ele>
        <time>2015-05-03T09:21:45Z</time>
      </trkpt>
      <trkpt lat="49.94715" lon="5.19517">
        <ele>377</ele>
        <time>2015-05-03T09:21:51Z</time>
      </trkpt>
      <trkpt lat="49.94722" lon="5.19515">
        <ele>388</ele>
        <time>2015-05-03T09:21:56Z</time>
      </trkpt>
      <trkpt lat="49.94726" lon="5.19514">
        <ele>389</ele>
        <time>2015-05-03T09:22:01Z</time>
      </trkpt>
      <trkpt lat="49.94731" lon="5.19515">
        <ele>384</ele>
        <time>2015-05-03T09:22:07Z</time>
      </trkpt>
      <trkpt lat="49.94735" lon="5.19515">
        <ele>383</ele>
        <time>2015-05-03T09:22:13Z</time>
      </trkpt>
      <trkpt lat="49.94738" lon="5.19513">
        <ele>374</ele>
        <time>2015-05-03T09:22:19Z</time>
      </trkpt>
      <trkpt lat="49.94739" lon="5.19511">
        <ele>373</ele>
        <time>2015-05-03T09:22:24Z</time>
      </trkpt>
      <trkpt lat="49.94739" lon="5.19508">
        <ele>371</ele>
        <time>2015-05-03T09:22:30Z</time>
      </trkpt>
      <trkpt lat="49.94739" lon="5.19506">
        <ele>369</ele>
        <time>2015-05-03T09:22:35Z</time>
      </trkpt>
      <trkpt lat="49.9474" lon="5.19504">
        <ele>368</ele>
        <time>2015-05-03T09:22:40Z</time>
      </trkpt>
      <trkpt lat="49.9474" lon="5.19503">
        <ele>377</ele>
        <time>2015-05-03T09:22:47Z</time>
      </trkpt>
      <trkpt lat="49.94742" lon="5.195">
        <ele>378</ele>
        <time>2015-05-03T09:22:52Z</time>
      </trkpt>
      <trkpt lat="49.94746" lon="5.19499">
        <ele>369</ele>
        <time>2015-05-03T09:22:58Z</time>
      </trkpt>
      <trkpt lat="49.9475" lon="5.19498">
        <ele>369</ele>
        <time>2015-05-03T09:23:04Z</time>
      </trkpt>
      <trkpt lat="49.94754" lon="5.19497">
        <ele>369</ele>
        <time>2015-05-03T09:23:09Z</time>
      </trkpt>
      <trkpt lat="49.94759" lon="5.19497">
        <ele>372</ele>
        <time>2015-05-03T09:23:15Z</time>
      </trkpt>
      <trkpt lat="49.94765" lon="5.19495">
        <ele>374</ele>
        <time>2015-05-03T09:23:21Z</time>
      </trkpt>
      <trkpt lat="49.94772" lon="5.19495">
        <ele>377</ele>
        <time>2015-05-03T09:23:26Z</time>
      </trkpt>
      <trkpt lat="49.94781" lon="5.19497">
        <ele>380</ele>
        <time>2015-05-03T09:23:32Z</time>
      </trkpt>
      <trkpt lat="49.94789" lon="5.19497">
        <ele>382</ele>
        <time>2015-05-03T09:23:37Z</time>
      </trkpt>
      <trkpt lat="49.94798" lon="5.19498">
        <ele>384</ele>
        <time>2015-05-03T09:23:43Z</time>
      </trkpt>
      <trkpt lat="49.94804" lon="5.19499">
        <ele>384</ele>
        <time>2015-05-03T09:23:48Z</time>
      </trkpt>
      <trkpt lat="49.94813" lon="5.19498">
        <ele>385</ele>
        <time>2015-05-03T09:23:54Z</time>
      </trkpt>
      <trkpt lat="49.9482" lon="5.19496">
        <ele>386</ele>
        <time>2015-05-03T09:23:59Z</time>
      </trkpt>
      <trkpt lat="49.94827" lon="5.19494">
        <ele>386</ele>
        <time>2015-05-03T09:24:05Z</time>
      </trkpt>
      <trkpt lat="49.94834" lon="5.19493">
        <ele>386</ele>
        <time>2015-05-03T09:24:10Z</time>
      </trkpt>
      <trkpt lat="49.94839" lon="5.19493">
        <ele>386</ele>
        <time>2015-05-03T09:24:16Z</time>
      </trkpt>
      <trkpt lat="49.94846" lon="5.19493">
        <ele>386</ele>
        <time>2015-05-03T09:24:21Z</time>
      </trkpt>
      <trkpt lat="49.94851" lon="5.19491">
        <ele>386</ele>
        <time>2015-05-03T09:24:27Z</time>
      </trkpt>
      <trkpt lat="49.94857" lon="5.19488">
        <ele>387</ele>
        <time>2015-05-03T09:24:32Z</time>
      </trkpt>
      <trkpt lat="49.94864" lon="5.19487">
        <ele>388</ele>
        <time>2015-05-03T09:24:38Z</time>
      </trkpt>
      <trkpt lat="49.94869" lon="5.19486">
        <ele>388</ele>
        <time>2015-05-03T09:24:44Z</time>
      </trkpt>
      <trkpt lat="49.94876" lon="5.19485">
        <ele>389</ele>
        <time>2015-05-03T09:24:49Z</time>
      </trkpt>
      <trkpt lat="49.94882" lon="5.19485">
        <ele>388</ele>
        <time>2015-05-03T09:24:55Z</time>
      </trkpt>
      <trkpt lat="49.94889" lon="5.19484">
        <ele>389</ele>
        <time>2015-05-03T09:25:01Z</time>
      </trkpt>
      <trkpt lat="49.94895" lon="5.19482">
        <ele>389</ele>
        <time>2015-05-03T09:25:06Z</time>
      </trkpt>
      <trkpt lat="49.94902" lon="5.1948">
        <ele>388</ele>
        <time>2015-05-03T09:25:13Z</time>
      </trkpt>
      <trkpt lat="49.9491" lon="5.19477">
        <ele>388</ele>
        <time>2015-05-03T09:25:18Z</time>
      </trkpt>
      <trkpt lat="49.94918" lon="5.19474">
        <ele>388</ele>
        <time>2015-05-03T09:25:24Z</time>
      </trkpt>
      <trkpt lat="49.94925" lon="5.19472">
        <ele>387</ele>
        <time>2015-05-03T09:25:30Z</time>
      </trkpt>
      <trkpt lat="49.94932" lon="5.19468">
        <ele>387</ele>
        <time>2015-05-03T09:25:35Z</time>
      </trkpt>
      <trkpt lat="49.94938" lon="5.19465">
        <ele>388</ele>
        <time>2015-05-03T09:25:40Z</time>
      </trkpt>
      <trkpt lat="49.94944" lon="5.19462">
        <ele>387</ele>
        <time>2015-05-03T09:25:46Z</time>
      </trkpt>
      <trkpt lat="49.9495" lon="5.19458">
        <ele>387</ele>
        <time>2015-05-03T09:25:51Z</time>
      </trkpt>
      <trkpt lat="49.94957" lon="5.19454">
        <ele>387</ele>
        <time>2015-05-03T09:25:56Z</time>
      </trkpt>
      <trkpt lat="49.94963" lon="5.1945">
        <ele>387</ele>
        <time>2015-05-03T09:26:02Z</time>
      </trkpt>
      <trkpt lat="49.94969" lon="5.19445">
        <ele>388</ele>
        <time>2015-05-03T09:26:08Z</time>
      </trkpt>
      <trkpt lat="49.94976" lon="5.19442">
        <ele>387</ele>
        <time>2015-05-03T09:26:13Z</time>
      </trkpt>
      <trkpt lat="49.94982" lon="5.1944">
        <ele>387</ele>
        <time>2015-05-03T09:26:18Z</time>
      </trkpt>
      <trkpt lat="49.9499" lon="5.19436">
        <ele>387</ele>
        <time>2015-05-03T09:26:24Z</time>
      </trkpt>
      <trkpt lat="49.94995" lon="5.19432">
        <ele>387</ele>
        <time>2015-05-03T09:26:29Z</time>
      </trkpt>
      <trkpt lat="49.95001" lon="5.19428">
        <ele>387</ele>
        <time>2015-05-03T09:26:34Z</time>
      </trkpt>
      <trkpt lat="49.95008" lon="5.19423">
        <ele>387</ele>
        <time>2015-05-03T09:26:41Z</time>
      </trkpt>
      <trkpt lat="49.95014" lon="5.19418">
        <ele>388</ele>
        <time>2015-05-03T09:26:46Z</time>
      </trkpt>
      <trkpt lat="49.9502" lon="5.19413">
        <ele>388</ele>
        <time>2015-05-03T09:26:51Z</time>
      </trkpt>
      <trkpt lat="49.95024" lon="5.19407">
        <ele>389</ele>
        <time>2015-05-03T09:26:57Z</time>
      </trkpt>
      <trkpt lat="49.95029" lon="5.19401">
        <ele>389</ele>
        <time>2015-05-03T09:27:02Z</time>
      </trkpt>
      <trkpt lat="49.95034" lon="5.19396">
        <ele>388</ele>
        <time>2015-05-03T09:27:07Z</time>
      </trkpt>
      <trkpt lat="49.95037" lon="5.19389">
        <ele>388</ele>
        <time>2015-05-03T09:27:12Z</time>
      </trkpt>
      <trkpt lat="49.95043" lon="5.19382">
        <ele>388</ele>
        <time>2015-05-03T09:27:18Z</time>
      </trkpt>
      <trkpt lat="49.95047" lon="5.19377">
        <ele>387</ele>
        <time>2015-05-03T09:27:23Z</time>
      </trkpt>
      <trkpt lat="49.95051" lon="5.19368">
        <ele>387</ele>
        <time>2015-05-03T09:27:29Z</time>
      </trkpt>
      <trkpt lat="49.95055" lon="5.19358">
        <ele>387</ele>
        <time>2015-05-03T09:27:35Z</time>
      </trkpt>
      <trkpt lat="49.95058" lon="5.1935">
        <ele>386</ele>
        <time>2015-05-03T09:27:40Z</time>
      </trkpt>
      <trkpt lat="49.95061" lon="5.19343">
        <ele>386</ele>
        <time>2015-05-03T09:27:45Z</time>
      </trkpt>
      <trkpt lat="49.95066" lon="5.19333">
        <ele>386</ele>
        <time>2015-05-03T09:27:51Z</time>
      </trkpt>
      <trkpt lat="49.9507" lon="5.19325">
        <ele>385</ele>
        <time>2015-05-03T09:27:57Z</time>
      </trkpt>
      <trkpt lat="49.95075" lon="5.19318">
        <ele>385</ele>
        <time>2015-05-03T09:28:02Z</time>
      </trkpt>
      <trkpt lat="49.95079" lon="5.19311">
        <ele>385</ele>
        <time>2015-05-03T09:28:08Z</time>
      </trkpt>
      <trkpt lat="49.95085" lon="5.19307">
        <ele>384</ele>
        <time>2015-05-03T09:28:14Z</time>
      </trkpt>
      <trkpt lat="49.95089" lon="5.19305">
        <ele>383</ele>
        <time>2015-05-03T09:28:19Z</time>
      </trkpt>
      <trkpt lat="49.95095" lon="5.19302">
        <ele>383</ele>
        <time>2015-05-03T09:28:25Z</time>
      </trkpt>
      <trkpt lat="49.95101" lon="5.19299">
        <ele>383</ele>
        <time>2015-05-03T09:28:31Z</time>
      </trkpt>
      <trkpt lat="49.95107" lon="5.19298">
        <ele>382</ele>
        <time>2015-05-03T09:28:36Z</time>
      </trkpt>
      <trkpt lat="49.95113" lon="5.19299">
        <ele>382</ele>
        <time>2015-05-03T09:28:42Z</time>
      </trkpt>
      <trkpt lat="49.95119" lon="5.193">
        <ele>382</ele>
        <time>2015-05-03T09:28:48Z</time>
      </trkpt>
      <trkpt lat="49.95126" lon="5.193">
        <ele>382</ele>
        <time>2015-05-03T09:28:54Z</time>
      </trkpt>
      <trkpt lat="49.95131" lon="5.193">
        <ele>382</ele>
        <time>2015-05-03T09:28:59Z</time>
      </trkpt>
      <trkpt lat="49.95137" lon="5.19299">
        <ele>383</ele>
        <time>2015-05-03T09:29:04Z</time>
      </trkpt>
      <trkpt lat="49.95145" lon="5.19297">
        <ele>382</ele>
        <time>2015-05-03T09:29:10Z</time>
      </trkpt>
      <trkpt lat="49.95151" lon="5.19297">
        <ele>382</ele>
        <time>2015-05-03T09:29:15Z</time>
      </trkpt>
      <trkpt lat="49.95157" lon="5.19298">
        <ele>382</ele>
        <time>2015-05-03T09:29:20Z</time>
      </trkpt>
      <trkpt lat="49.95163" lon="5.19299">
        <ele>383</ele>
        <time>2015-05-03T09:29:25Z</time>
      </trkpt>
      <trkpt lat="49.9517" lon="5.19301">
        <ele>383</ele>
        <time>2015-05-03T09:29:31Z</time>
      </trkpt>
      <trkpt lat="49.95177" lon="5.19301">
        <ele>383</ele>
        <time>2015-05-03T09:29:37Z</time>
      </trkpt>
      <trkpt lat="49.95183" lon="5.19301">
        <ele>383</ele>
        <time>2015-05-03T09:29:42Z</time>
      </trkpt>
      <trkpt lat="49.9519" lon="5.19302">
        <ele>383</ele>
        <time>2015-05-03T09:29:47Z</time>
      </trkpt>
      <trkpt lat="49.95197" lon="5.19304">
        <ele>383</ele>
        <time>2015-05-03T09:29:53Z</time>
      </trkpt>
      <trkpt lat="49.95205" lon="5.19306">
        <ele>383</ele>
        <time>2015-05-03T09:29:59Z</time>
      </trkpt>
      <trkpt lat="49.9521" lon="5.19306">
        <ele>384</ele>
        <time>2015-05-03T09:30:04Z</time>
      </trkpt>
      <trkpt lat="49.95216" lon="5.19308">
        <ele>383</ele>
        <time>2015-05-03T09:30:10Z</time>
      </trkpt>
      <trkpt lat="49.95222" lon="5.19311">
        <ele>383</ele>
        <time>2015-05-03T09:30:16Z</time>
      </trkpt>
      <trkpt lat="49.95226" lon="5.19313">
        <ele>384</ele>
        <time>2015-05-03T09:30:21Z</time>
      </trkpt>
      <trkpt lat="49.95231" lon="5.19315">
        <ele>384</ele>
        <time>2015-05-03T09:30:26Z</time>
      </trkpt>
      <trkpt lat="49.95237" lon="5.19318">
        <ele>384</ele>
        <time>2015-05-03T09:30:31Z</time>
      </trkpt>
      <trkpt lat="49.95242" lon="5.19322">
        <ele>384</ele>
        <time>2015-05-03T09:30:37Z</time>
      </trkpt>
      <trkpt lat="49.95247" lon="5.19326">
        <ele>384</ele>
        <time>2015-05-03T09:30:42Z</time>
      </trkpt>
      <trkpt lat="49.95253" lon="5.19331">
        <ele>384</ele>
        <time>2015-05-03T09:30:48Z</time>
      </trkpt>
      <trkpt lat="49.95259" lon="5.19335">
        <ele>384</ele>
        <time>2015-05-03T09:30:54Z</time>
      </trkpt>
      <trkpt lat="49.95266" lon="5.1934">
        <ele>385</ele>
        <time>2015-05-03T09:31:00Z</time>
      </trkpt>
      <trkpt lat="49.9527" lon="5.19343">
        <ele>384</ele>
        <time>2015-05-03T09:31:05Z</time>
      </trkpt>
      <trkpt lat="49.95274" lon="5.19346">
        <ele>385</ele>
        <time>2015-05-03T09:31:10Z</time>
      </trkpt>
      <trkpt lat="49.9528" lon="5.19351">
        <ele>384</ele>
        <time>2015-05-03T09:31:16Z</time>
      </trkpt>
      <trkpt lat="49.95286" lon="5.19355">
        <ele>384</ele>
        <time>2015-05-03T09:31:22Z</time>
      </trkpt>
      <trkpt lat="49.95291" lon="5.19359">
        <ele>384</ele>
        <time>2015-05-03T09:31:27Z</time>
      </trkpt>
      <trkpt lat="49.95295" lon="5.19365">
        <ele>383</ele>
        <time>2015-05-03T09:31:33Z</time>
      </trkpt>
      <trkpt lat="49.953" lon="5.1937">
        <ele>383</ele>
        <time>2015-05-03T09:31:38Z</time>
      </trkpt>
      <trkpt lat="49.95302" lon="5.19375">
        <ele>381</ele>
        <time>2015-05-03T09:31:44Z</time>
      </trkpt>
      <trkpt lat="49.95305" lon="5.1938">
        <ele>380</ele>
        <time>2015-05-03T09:31:49Z</time>
      </trkpt>
      <trkpt lat="49.95307" lon="5.19384">
        <ele>379</ele>
        <time>2015-05-03T09:31:54Z</time>
      </trkpt>
      <trkpt lat="49.95312" lon="5.19388">
        <ele>379</ele>
        <time>2015-05-03T09:32:00Z</time>
      </trkpt>
      <trkpt lat="49.95319" lon="5.19392">
        <ele>378</ele>
        <time>2015-05-03T09:32:05Z</time>
      </trkpt>
      <trkpt lat="49.95327" lon="5.19395">
        <ele>377</ele>
        <time>2015-05-03T09:32:10Z</time>
      </trkpt>
      <trkpt lat="49.95336" lon="5.19399">
        <ele>377</ele>
        <time>2015-05-03T09:32:16Z</time>
      </trkpt>
      <trkpt lat="49.95345" lon="5.19403">
        <ele>378</ele>
        <time>2015-05-03T09:32:22Z</time>
      </trkpt>
      <trkpt lat="49.95354" lon="5.19406">
        <ele>378</ele>
        <time>2015-05-03T09:32:28Z</time>
      </trkpt>
      <trkpt lat="49.9536" lon="5.19409">
        <ele>378</ele>
        <time>2015-05-03T09:32:33Z</time>
      </trkpt>
      <trkpt lat="49.95367" lon="5.19412">
        <ele>378</ele>
        <time>2015-05-03T09:32:38Z</time>
      </trkpt>
      <trkpt lat="49.95372" lon="5.19413">
        <ele>378</ele>
        <time>2015-05-03T09:32:43Z</time>
      </trkpt>
      <trkpt lat="49.95378" lon="5.19418">
        <ele>379</ele>
        <time>2015-05-03T09:32:49Z</time>
      </trkpt>
      <trkpt lat="49.95384" lon="5.19421">
        <ele>379</ele>
        <time>2015-05-03T09:32:55Z</time>
      </trkpt>
      <trkpt lat="49.95389" lon="5.19425">
        <ele>379</ele>
        <time>2015-05-03T09:33:01Z</time>
      </trkpt>
      <trkpt lat="49.95395" lon="5.1943">
        <ele>379</ele>
        <time>2015-05-03T09:33:07Z</time>
      </trkpt>
      <trkpt lat="49.954" lon="5.19433">
        <ele>379</ele>
        <time>2015-05-03T09:33:12Z</time>
      </trkpt>
      <trkpt lat="49.95406" lon="5.19437">
        <ele>379</ele>
        <time>2015-05-03T09:33:18Z</time>
      </trkpt>
      <trkpt lat="49.95412" lon="5.19439">
        <ele>379</ele>
        <time>2015-05-03T09:33:23Z</time>
      </trkpt>
      <trkpt lat="49.95421" lon="5.19443">
        <ele>379</ele>
        <time>2015-05-03T09:33:28Z</time>
      </trkpt>
      <trkpt lat="49.95429" lon="5.19444">
        <ele>379</ele>
        <time>2015-05-03T09:33:34Z</time>
      </trkpt>
      <trkpt lat="49.95436" lon="5.19439">
        <ele>378</ele>
        <time>2015-05-03T09:33:39Z</time>
      </trkpt>
      <trkpt lat="49.9544" lon="5.19435">
        <ele>378</ele>
        <time>2015-05-03T09:33:45Z</time>
      </trkpt>
      <trkpt lat="49.95443" lon="5.19425">
        <ele>377</ele>
        <time>2015-05-03T09:33:50Z</time>
      </trkpt>
      <trkpt lat="49.95445" lon="5.19415">
        <ele>376</ele>
        <time>2015-05-03T09:33:55Z</time>
      </trkpt>
      <trkpt lat="49.95445" lon="5.19403">
        <ele>376</ele>
        <time>2015-05-03T09:34:00Z</time>
      </trkpt>
      <trkpt lat="49.95445" lon="5.19389">
        <ele>374</ele>
        <time>2015-05-03T09:34:06Z</time>
      </trkpt>
      <trkpt lat="49.95445" lon="5.19378">
        <ele>373</ele>
        <time>2015-05-03T09:34:11Z</time>
      </trkpt>
      <trkpt lat="49.95445" lon="5.19367">
        <ele>373</ele>
        <time>2015-05-03T09:34:17Z</time>
      </trkpt>
      <trkpt lat="49.95445" lon="5.19357">
        <ele>373</ele>
        <time>2015-05-03T09:34:23Z</time>
      </trkpt>
      <trkpt lat="49.95443" lon="5.19346">
        <ele>373</ele>
        <time>2015-05-03T09:34:29Z</time>
      </trkpt>
      <trkpt lat="49.95441" lon="5.19337">
        <ele>373</ele>
        <time>2015-05-03T09:34:34Z</time>
      </trkpt>
      <trkpt lat="49.95439" lon="5.19325">
        <ele>372</ele>
        <time>2015-05-03T09:34:40Z</time>
      </trkpt>
      <trkpt lat="49.95436" lon="5.19315">
        <ele>372</ele>
        <time>2015-05-03T09:34:45Z</time>
      </trkpt>
      <trkpt lat="49.95434" lon="5.19303">
        <ele>372</ele>
        <time>2015-05-03T09:34:51Z</time>
      </trkpt>
      <trkpt lat="49.95432" lon="5.19294">
        <ele>372</ele>
        <time>2015-05-03T09:34:56Z</time>
      </trkpt>
      <trkpt lat="49.9543" lon="5.19283">
        <ele>371</ele>
        <time>2015-05-03T09:35:02Z</time>
      </trkpt>
      <trkpt lat="49.95428" lon="5.19272">
        <ele>371</ele>
        <time>2015-05-03T09:35:08Z</time>
      </trkpt>
      <trkpt lat="49.95427" lon="5.19264">
        <ele>369</ele>
        <time>2015-05-03T09:35:13Z</time>
      </trkpt>
      <trkpt lat="49.95425" lon="5.19255">
        <ele>360</ele>
        <time>2015-05-03T09:35:18Z</time>
      </trkpt>
      <trkpt lat="49.95423" lon="5.19244">
        <ele>357</ele>
        <time>2015-05-03T09:35:24Z</time>
      </trkpt>
      <trkpt lat="49.95421" lon="5.19236">
        <ele>356</ele>
        <time>2015-05-03T09:35:29Z</time>
      </trkpt>
      <trkpt lat="49.95419" lon="5.19227">
        <ele>356</ele>
        <time>2015-05-03T09:35:34Z</time>
      </trkpt>
      <trkpt lat="49.95416" lon="5.19218">
        <ele>356</ele>
        <time>2015-05-03T09:35:40Z</time>
      </trkpt>
      <trkpt lat="49.95414" lon="5.19207">
        <ele>347</ele>
        <time>2015-05-03T09:35:46Z</time>
      </trkpt>
      <trkpt lat="49.95414" lon="5.19204">
        <ele>344</ele>
        <time>2015-05-03T09:35:51Z</time>
      </trkpt>
      <trkpt lat="49.95415" lon="5.192">
        <ele>347</ele>
        <time>2015-05-03T09:35:57Z</time>
      </trkpt>
      <trkpt lat="49.95416" lon="5.19198">
        <ele>348</ele>
        <time>2015-05-03T09:36:03Z</time>
      </trkpt>
      <trkpt lat="49.95416" lon="5.19196">
        <ele>348</ele>
        <time>2015-05-03T09:36:08Z</time>
      </trkpt>
      <trkpt lat="49.95415" lon="5.19195">
        <ele>348</ele>
        <time>2015-05-03T09:36:14Z</time>
      </trkpt>
      <trkpt lat="49.95414" lon="5.19194">
        <ele>348</ele>
        <time>2015-05-03T09:36:19Z</time>
      </trkpt>
      <trkpt lat="49.95412" lon="5.19191">
        <ele>348</ele>
        <time>2015-05-03T09:36:24Z</time>
      </trkpt>
      <trkpt lat="49.9541" lon="5.19184">
        <ele>347</ele>
        <time>2015-05-03T09:36:30Z</time>
      </trkpt>
      <trkpt lat="49.95407" lon="5.19175">
        <ele>347</ele>
        <time>2015-05-03T09:36:36Z</time>
      </trkpt>
      <trkpt lat="49.95405" lon="5.19166">
        <ele>346</ele>
        <time>2015-05-03T09:36:41Z</time>
      </trkpt>
      <trkpt lat="49.95404" lon="5.19158">
        <ele>346</ele>
        <time>2015-05-03T09:36:46Z</time>
      </trkpt>
      <trkpt lat="49.95399" lon="5.19145">
        <ele>343</ele>
        <time>2015-05-03T09:36:52Z</time>
      </trkpt>
      <trkpt lat="49.95397" lon="5.19135">
        <ele>343</ele>
        <time>2015-05-03T09:36:58Z</time>
      </trkpt>
      <trkpt lat="49.95395" lon="5.19126">
        <ele>342</ele>
        <time>2015-05-03T09:37:04Z</time>
      </trkpt>
      <trkpt lat="49.95393" lon="5.19118">
        <ele>342</ele>
        <time>2015-05-03T09:37:09Z</time>
      </trkpt>
      <trkpt lat="49.95394" lon="5.19109">
        <ele>343</ele>
        <time>2015-05-03T09:37:14Z</time>
      </trkpt>
      <trkpt lat="49.95393" lon="5.19101">
        <ele>343</ele>
        <time>2015-05-03T09:37:20Z</time>
      </trkpt>
      <trkpt lat="49.95393" lon="5.19098">
        <ele>343</ele>
        <time>2015-05-03T09:37:25Z</time>
      </trkpt>
      <trkpt lat="49.95392" lon="5.19095">
        <ele>343</ele>
        <time>2015-05-03T09:37:31Z</time>
      </trkpt>
      <trkpt lat="49.9539" lon="5.19092">
        <ele>343</ele>
        <time>2015-05-03T09:37:36Z</time>
      </trkpt>
      <trkpt lat="49.95388" lon="5.19086">
        <ele>343</ele>
        <time>2015-05-03T09:37:42Z</time>
      </trkpt>
      <trkpt lat="49.95387" lon="5.1908">
        <ele>344</ele>
        <time>2015-05-03T09:37:48Z</time>
      </trkpt>
      <trkpt lat="49.95386" lon="5.19073">
        <ele>344</ele>
        <time>2015-05-03T09:37:53Z</time>
      </trkpt>
      <trkpt lat="49.95386" lon="5.19066">
        <ele>343</ele>
        <time>2015-05-03T09:37:58Z</time>
      </trkpt>
      <trkpt lat="49.95385" lon="5.19057">
        <ele>343</ele>
        <time>2015-05-03T09:38:04Z</time>
      </trkpt>
      <trkpt lat="49.95385" lon="5.19049">
        <ele>343</ele>
        <time>2015-05-03T09:38:09Z</time>
      </trkpt>
      <trkpt lat="49.95384" lon="5.1904">
        <ele>343</ele>
        <time>2015-05-03T09:38:14Z</time>
      </trkpt>
      <trkpt lat="49.95384" lon="5.19032">
        <ele>343</ele>
        <time>2015-05-03T09:38:19Z</time>
      </trkpt>
      <trkpt lat="49.95384" lon="5.19022">
        <ele>344</ele>
        <time>2015-05-03T09:38:25Z</time>
      </trkpt>
      <trkpt lat="49.95384" lon="5.19017">
        <ele>344</ele>
        <time>2015-05-03T09:38:30Z</time>
      </trkpt>
      <trkpt lat="49.95386" lon="5.19012">
        <ele>343</ele>
        <time>2015-05-03T09:38:35Z</time>
      </trkpt>
      <trkpt lat="49.95386" lon="5.19009">
        <ele>343</ele>
        <time>2015-05-03T09:38:41Z</time>
      </trkpt>
      <trkpt lat="49.95384" lon="5.19004">
        <ele>343</ele>
        <time>2015-05-03T09:38:47Z</time>
      </trkpt>
      <trkpt lat="49.95385" lon="5.18998">
        <ele>343</ele>
        <time>2015-05-03T09:38:52Z</time>
      </trkpt>
      <trkpt lat="49.95385" lon="5.18992">
        <ele>344</ele>
        <time>2015-05-03T09:38:57Z</time>
      </trkpt>
      <trkpt lat="49.95387" lon="5.18985">
        <ele>344</ele>
        <time>2015-05-03T09:39:03Z</time>
      </trkpt>
      <trkpt lat="49.95388" lon="5.18976">
        <ele>345</ele>
        <time>2015-05-03T09:39:09Z</time>
      </trkpt>
      <trkpt lat="49.9539" lon="5.18967">
        <ele>346</ele>
        <time>2015-05-03T09:39:14Z</time>
      </trkpt>
      <trkpt lat="49.95392" lon="5.18958">
        <ele>346</ele>
        <time>2015-05-03T09:39:20Z</time>
      </trkpt>
      <trkpt lat="49.95395" lon="5.18951">
        <ele>347</ele>
        <time>2015-05-03T09:39:25Z</time>
      </trkpt>
      <trkpt lat="49.95398" lon="5.18944">
        <ele>347</ele>
        <time>2015-05-03T09:39:30Z</time>
      </trkpt>
      <trkpt lat="49.95399" lon="5.18937">
        <ele>348</ele>
        <time>2015-05-03T09:39:35Z</time>
      </trkpt>
      <trkpt lat="49.95404" lon="5.18931">
        <ele>348</ele>
        <time>2015-05-03T09:39:40Z</time>
      </trkpt>
      <trkpt lat="49.95408" lon="5.18923">
        <ele>347</ele>
        <time>2015-05-03T09:39:46Z</time>
      </trkpt>
      <trkpt lat="49.95412" lon="5.18917">
        <ele>347</ele>
        <time>2015-05-03T09:39:51Z</time>
      </trkpt>
      <trkpt lat="49.95415" lon="5.18909">
        <ele>346</ele>
        <time>2015-05-03T09:39:57Z</time>
      </trkpt>
      <trkpt lat="49.9542" lon="5.18902">
        <ele>346</ele>
        <time>2015-05-03T09:40:02Z</time>
      </trkpt>
      <trkpt lat="49.95424" lon="5.18894">
        <ele>346</ele>
        <time>2015-05-03T09:40:07Z</time>
      </trkpt>
      <trkpt lat="49.95428" lon="5.18885">
        <ele>345</ele>
        <time>2015-05-03T09:40:12Z</time>
      </trkpt>
      <trkpt lat="49.95434" lon="5.18876">
        <ele>345</ele>
        <time>2015-05-03T09:40:18Z</time>
      </trkpt>
      <trkpt lat="49.9544" lon="5.18868">
        <ele>346</ele>
        <time>2015-05-03T09:40:24Z</time>
      </trkpt>
      <trkpt lat="49.95445" lon="5.1886">
        <ele>345</ele>
        <time>2015-05-03T09:40:29Z</time>
      </trkpt>
      <trkpt lat="49.9545" lon="5.18852">
        <ele>345</ele>
        <time>2015-05-03T09:40:34Z</time>
      </trkpt>
      <trkpt lat="49.95455" lon="5.18843">
        <ele>345</ele>
        <time>2015-05-03T09:40:40Z</time>
      </trkpt>
      <trkpt lat="49.95459" lon="5.18835">
        <ele>346</ele>
        <time>2015-05-03T09:40:45Z</time>
      </trkpt>
      <trkpt lat="49.95464" lon="5.18827">
        <ele>346</ele>
        <time>2015-05-03T09:40:50Z</time>
      </trkpt>
      <trkpt lat="49.95469" lon="5.18818">
        <ele>346</ele>
        <time>2015-05-03T09:40:56Z</time>
      </trkpt>
      <trkpt lat="49.95473" lon="5.1881">
        <ele>345</ele>
        <time>2015-05-03T09:41:01Z</time>
      </trkpt>
      <trkpt lat="49.95476" lon="5.18802">
        <ele>346</ele>
        <time>2015-05-03T09:41:06Z</time>
      </trkpt>
      <trkpt lat="49.9548" lon="5.18792">
        <ele>346</ele>
        <time>2015-05-03T09:41:12Z</time>
      </trkpt>
      <trkpt lat="49.95483" lon="5.18788">
        <ele>346</ele>
        <time>2015-05-03T09:41:18Z</time>
      </trkpt>
      <trkpt lat="49.95484" lon="5.18781">
        <ele>346</ele>
        <time>2015-05-03T09:41:24Z</time>
      </trkpt>
      <trkpt lat="49.95486" lon="5.18776">
        <ele>346</ele>
        <time>2015-05-03T09:41:30Z</time>
      </trkpt>
      <trkpt lat="49.95484" lon="5.1877">
        <ele>346</ele>
        <time>2015-05-03T09:41:36Z</time>
      </trkpt>
      <trkpt lat="49.95482" lon="5.18763">
        <ele>346</ele>
        <time>2015-05-03T09:41:41Z</time>
      </trkpt>
      <trkpt lat="49.95479" lon="5.18763">
        <ele>346</ele>
        <time>2015-05-03T09:41:47Z</time>
      </trkpt>
      <trkpt lat="49.95475" lon="5.18766">
        <ele>347</ele>
        <time>2015-05-03T09:41:53Z</time>
      </trkpt>
      <trkpt lat="49.95471" lon="5.18769">
        <ele>348</ele>
        <time>2015-05-03T09:41:59Z</time>
      </trkpt>
      <trkpt lat="49.95466" lon="5.18773">
        <ele>348</ele>
        <time>2015-05-03T09:42:05Z</time>
      </trkpt>
      <trkpt lat="49.95462" lon="5.18777">
        <ele>348</ele>
        <time>2015-05-03T09:42:10Z</time>
      </trkpt>
      <trkpt lat="49.95456" lon="5.18782">
        <ele>349</ele>
        <time>2015-05-03T09:42:16Z</time>
      </trkpt>
      <trkpt lat="49.95452" lon="5.18787">
        <ele>350</ele>
        <time>2015-05-03T09:42:21Z</time>
      </trkpt>
      <trkpt lat="49.95447" lon="5.18793">
        <ele>352</ele>
        <time>2015-05-03T09:42:27Z</time>
      </trkpt>
      <trkpt lat="49.95442" lon="5.18799">
        <ele>351</ele>
        <time>2015-05-03T09:42:33Z</time>
      </trkpt>
      <trkpt lat="49.95437" lon="5.18803">
        <ele>352</ele>
        <time>2015-05-03T09:42:38Z</time>
      </trkpt>
      <trkpt lat="49.9543" lon="5.18808">
        <ele>352</ele>
        <time>2015-05-03T09:42:44Z</time>
      </trkpt>
      <trkpt lat="49.95423" lon="5.18815">
        <ele>352</ele>
        <time>2015-05-03T09:42:50Z</time>
      </trkpt>
      <trkpt lat="49.95415" lon="5.18822">
        <ele>352</ele>
        <time>2015-05-03T09:42:56Z</time>
      </trkpt>
      <trkpt lat="49.95407" lon="5.18824">
        <ele>351</ele>
        <time>2015-05-03T09:43:02Z</time>
      </trkpt>
      <trkpt lat="49.95402" lon="5.18829">
        <ele>351</ele>
        <time>2015-05-03T09:43:07Z</time>
      </trkpt>
      <trkpt lat="49.95396" lon="5.18834">
        <ele>351</ele>
        <time>2015-05-03T09:43:12Z</time>
      </trkpt>
      <trkpt lat="49.95391" lon="5.18839">
        <ele>352</ele>
        <time>2015-05-03T09:43:17Z</time>
      </trkpt>
      <trkpt lat="49.95385" lon="5.18846">
        <ele>352</ele>
        <time>2015-05-03T09:43:23Z</time>
      </trkpt>
      <trkpt lat="49.9538" lon="5.1885">
        <ele>352</ele>
        <time>2015-05-03T09:43:28Z</time>
      </trkpt>
      <trkpt lat="49.95372" lon="5.18858">
        <ele>353</ele>
        <time>2015-05-03T09:43:34Z</time>
      </trkpt>
      <trkpt lat="49.95364" lon="5.18865">
        <ele>353</ele>
        <time>2015-05-03T09:43:40Z</time>
      </trkpt>
      <trkpt lat="49.95358" lon="5.18871">
        <ele>353</ele>
        <time>2015-05-03T09:43:45Z</time>
      </trkpt>
      <trkpt lat="49.95351" lon="5.18878">
        <ele>353</ele>
        <time>2015-05-03T09:43:51Z</time>
      </trkpt>
      <trkpt lat="49.95346" lon="5.18884">
        <ele>353</ele>
        <time>2015-05-03T09:43:56Z</time>
      </trkpt>
      <trkpt lat="49.9534" lon="5.18893">
        <ele>354</ele>
        <time>2015-05-03T09:44:02Z</time>
      </trkpt>
      <trkpt lat="49.95335" lon="5.18903">
        <ele>353</ele>
        <time>2015-05-03T09:44:08Z</time>
      </trkpt>
      <trkpt lat="49.95329" lon="5.18911">
        <ele>354</ele>
        <time>2015-05-03T09:44:14Z</time>
      </trkpt>
      <trkpt lat="49.95324" lon="5.18919">
        <ele>355</ele>
        <time>2015-05-03T09:44:20Z</time>
      </trkpt>
      <trkpt lat="49.95317" lon="5.18926">
        <ele>355</ele>
        <time>2015-05-03T09:44:26Z</time>
      </trkpt>
      <trkpt lat="49.95313" lon="5.18932">
        <ele>354</ele>
        <time>2015-05-03T09:44:31Z</time>
      </trkpt>
      <trkpt lat="49.95308" lon="5.18938">
        <ele>355</ele>
        <time>2015-05-03T09:44:36Z</time>
      </trkpt>
      <trkpt lat="49.95302" lon="5.18946">
        <ele>355</ele>
        <time>2015-05-03T09:44:42Z</time>
      </trkpt>
      <trkpt lat="49.95296" lon="5.18951">
        <ele>357</ele>
        <time>2015-05-03T09:44:47Z</time>
      </trkpt>
      <trkpt lat="49.95291" lon="5.18956">
        <ele>357</ele>
        <time>2015-05-03T09:44:52Z</time>
      </trkpt>
      <trkpt lat="49.95284" lon="5.18962">
        <ele>357</ele>
        <time>2015-05-03T09:44:58Z</time>
      </trkpt>
      <trkpt lat="49.95274" lon="5.18971">
        <ele>357</ele>
        <time>2015-05-03T09:45:04Z</time>
      </trkpt>
      <trkpt lat="49.95265" lon="5.1898">
        <ele>357</ele>
        <time>2015-05-03T09:45:10Z</time>
      </trkpt>
      <trkpt lat="49.95256" lon="5.18987">
        <ele>357</ele>
        <time>2015-05-03T09:45:16Z</time>
      </trkpt>
      <trkpt lat="49.95247" lon="5.18993">
        <ele>357</ele>
        <time>2015-05-03T09:45:22Z</time>
      </trkpt>
      <trkpt lat="49.95239" lon="5.18998">
        <ele>357</ele>
        <time>2015-05-03T09:45:28Z</time>
      </trkpt>
      <trkpt lat="49.95232" lon="5.19002">
        <ele>357</ele>
        <time>2015-05-03T09:45:33Z</time>
      </trkpt>
      <trkpt lat="49.95225" lon="5.19006">
        <ele>357</ele>
        <time>2015-05-03T09:45:38Z</time>
      </trkpt>
      <trkpt lat="49.95217" lon="5.1901">
        <ele>358</ele>
        <time>2015-05-03T09:45:44Z</time>
      </trkpt>
      <trkpt lat="49.9521" lon="5.19015">
        <ele>357</ele>
        <time>2015-05-03T09:45:50Z</time>
      </trkpt>
      <trkpt lat="49.95202" lon="5.19019">
        <ele>357</ele>
        <time>2015-05-03T09:45:56Z</time>
      </trkpt>
      <trkpt lat="49.95194" lon="5.19022">
        <ele>358</ele>
        <time>2015-05-03T09:46:02Z</time>
      </trkpt>
      <trkpt lat="49.95188" lon="5.19025">
        <ele>359</ele>
        <time>2015-05-03T09:46:07Z</time>
      </trkpt>
      <trkpt lat="49.9518" lon="5.19027">
        <ele>359</ele>
        <time>2015-05-03T09:46:13Z</time>
      </trkpt>
      <trkpt lat="49.95173" lon="5.19029">
        <ele>359</ele>
        <time>2015-05-03T09:46:19Z</time>
      </trkpt>
      <trkpt lat="49.95164" lon="5.19032">
        <ele>359</ele>
        <time>2015-05-03T09:46:25Z</time>
      </trkpt>
      <trkpt lat="49.95157" lon="5.19033">
        <ele>359</ele>
        <time>2015-05-03T09:46:31Z</time>
      </trkpt>
      <trkpt lat="49.95151" lon="5.19034">
        <ele>359</ele>
        <time>2015-05-03T09:46:36Z</time>
      </trkpt>
      <trkpt lat="49.95145" lon="5.19034">
        <ele>359</ele>
        <time>2015-05-03T09:46:41Z</time>
      </trkpt>
      <trkpt lat="49.95137" lon="5.19036">
        <ele>360</ele>
        <time>2015-05-03T09:46:47Z</time>
      </trkpt>
      <trkpt lat="49.95129" lon="5.19035">
        <ele>359</ele>
        <time>2015-05-03T09:46:53Z</time>
      </trkpt>
      <trkpt lat="49.95122" lon="5.19036">
        <ele>365</ele>
        <time>2015-05-03T09:46:58Z</time>
      </trkpt>
      <trkpt lat="49.95115" lon="5.19036">
        <ele>371</ele>
        <time>2015-05-03T09:47:04Z</time>
      </trkpt>
      <trkpt lat="49.95109" lon="5.19035">
        <ele>369</ele>
        <time>2015-05-03T09:47:09Z</time>
      </trkpt>
      <trkpt lat="49.95101" lon="5.19034">
        <ele>368</ele>
        <time>2015-05-03T09:47:15Z</time>
      </trkpt>
      <trkpt lat="49.95095" lon="5.19032">
        <ele>369</ele>
        <time>2015-05-03T09:47:20Z</time>
      </trkpt>
      <trkpt lat="49.95088" lon="5.19031">
        <ele>369</ele>
        <time>2015-05-03T09:47:25Z</time>
      </trkpt>
      <trkpt lat="49.9508" lon="5.19028">
        <ele>368</ele>
        <time>2015-05-03T09:47:31Z</time>
      </trkpt>
      <trkpt lat="49.95072" lon="5.19024">
        <ele>369</ele>
        <time>2015-05-03T09:47:37Z</time>
      </trkpt>
      <trkpt lat="49.95064" lon="5.1902">
        <ele>369</ele>
        <time>2015-05-03T09:47:43Z</time>
      </trkpt>
      <trkpt lat="49.95056" lon="5.19017">
        <ele>369</ele>
        <time>2015-05-03T09:47:49Z</time>
      </trkpt>
      <trkpt lat="49.9505" lon="5.19016">
        <ele>369</ele>
        <time>2015-05-03T09:47:54Z</time>
      </trkpt>
      <trkpt lat="49.95044" lon="5.19015">
        <ele>369</ele>
        <time>2015-05-03T09:47:59Z</time>
      </trkpt>
      <trkpt lat="49.95037" lon="5.19014">
        <ele>369</ele>
        <time>2015-05-03T09:48:05Z</time>
      </trkpt>
      <trkpt lat="49.95029" lon="5.19013">
        <ele>369</ele>
        <time>2015-05-03T09:48:11Z</time>
      </trkpt>
      <trkpt lat="49.95023" lon="5.19012">
        <ele>369</ele>
        <time>2015-05-03T09:48:16Z</time>
      </trkpt>
      <trkpt lat="49.95016" lon="5.1901">
        <ele>369</ele>
        <time>2015-05-03T09:48:22Z</time>
      </trkpt>
      <trkpt lat="49.95009" lon="5.19006">
        <ele>369</ele>
        <time>2015-05-03T09:48:28Z</time>
      </trkpt>
      <trkpt lat="49.95005" lon="5.19001">
        <ele>369</ele>
        <time>2015-05-03T09:48:33Z</time>
      </trkpt>
      <trkpt lat="49.95002" lon="5.18995">
        <ele>370</ele>
        <time>2015-05-03T09:48:38Z</time>
      </trkpt>
      <trkpt lat="49.94999" lon="5.18984">
        <ele>370</ele>
        <time>2015-05-03T09:48:44Z</time>
      </trkpt>
      <trkpt lat="49.94996" lon="5.18976">
        <ele>370</ele>
        <time>2015-05-03T09:48:49Z</time>
      </trkpt>
      <trkpt lat="49.94994" lon="5.18969">
        <ele>369</ele>
        <time>2015-05-03T09:48:54Z</time>
      </trkpt>
      <trkpt lat="49.94992" lon="5.18965">
        <ele>368</ele>
        <time>2015-05-03T09:48:59Z</time>
      </trkpt>
      <trkpt lat="49.94988" lon="5.18955">
        <ele>368</ele>
        <time>2015-05-03T09:49:04Z</time>
      </trkpt>
      <trkpt lat="49.94984" lon="5.18944">
        <ele>368</ele>
        <time>2015-05-03T09:49:10Z</time>
      </trkpt>
      <trkpt lat="49.94983" lon="5.18938">
        <ele>368</ele>
        <time>2015-05-03T09:49:16Z</time>
      </trkpt>
      <trkpt lat="49.94981" lon="5.18931">
        <ele>367</ele>
        <time>2015-05-03T09:49:22Z</time>
      </trkpt>
      <trkpt lat="49.9498" lon="5.18926">
        <ele>367</ele>
        <time>2015-05-03T09:49:28Z</time>
      </trkpt>
      <trkpt lat="49.94976" lon="5.18916">
        <ele>367</ele>
        <time>2015-05-03T09:49:34Z</time>
      </trkpt>
      <trkpt lat="49.94975" lon="5.18908">
        <ele>368</ele>
        <time>2015-05-03T09:49:39Z</time>
      </trkpt>
      <trkpt lat="49.94972" lon="5.18898">
        <ele>369</ele>
        <time>2015-05-03T09:49:45Z</time>
      </trkpt>
      <trkpt lat="49.9497" lon="5.18893">
        <ele>370</ele>
        <time>2015-05-03T09:49:50Z</time>
      </trkpt>
      <trkpt lat="49.94968" lon="5.18887">
        <ele>370</ele>
        <time>2015-05-03T09:49:55Z</time>
      </trkpt>
      <trkpt lat="49.94965" lon="5.18877">
        <ele>371</ele>
        <time>2015-05-03T09:50:01Z</time>
      </trkpt>
      <trkpt lat="49.94963" lon="5.18871">
        <ele>370</ele>
        <time>2015-05-03T09:50:06Z</time>
      </trkpt>
      <trkpt lat="49.94961" lon="5.18863">
        <ele>371</ele>
        <time>2015-05-03T09:50:11Z</time>
      </trkpt>
      <trkpt lat="49.94958" lon="5.18853">
        <ele>371</ele>
        <time>2015-05-03T09:50:17Z</time>
      </trkpt>
      <trkpt lat="49.94957" lon="5.18844">
        <ele>371</ele>
        <time>2015-05-03T09:50:22Z</time>
      </trkpt>
      <trkpt lat="49.94954" lon="5.18832">
        <ele>371</ele>
        <time>2015-05-03T09:50:28Z</time>
      </trkpt>
      <trkpt lat="49.94952" lon="5.18823">
        <ele>372</ele>
        <time>2015-05-03T09:50:33Z</time>
      </trkpt>
      <trkpt lat="49.94948" lon="5.18814">
        <ele>369</ele>
        <time>2015-05-03T09:50:39Z</time>
      </trkpt>
      <trkpt lat="49.94946" lon="5.18806">
        <ele>369</ele>
        <time>2015-05-03T09:50:44Z</time>
      </trkpt>
      <trkpt lat="49.94942" lon="5.18794">
        <ele>371</ele>
        <time>2015-05-03T09:50:50Z</time>
      </trkpt>
      <trkpt lat="49.94941" lon="5.18785">
        <ele>367</ele>
        <time>2015-05-03T09:50:55Z</time>
      </trkpt>
      <trkpt lat="49.94938" lon="5.18774">
        <ele>369</ele>
        <time>2015-05-03T09:51:01Z</time>
      </trkpt>
      <trkpt lat="49.94935" lon="5.18764">
        <ele>371</ele>
        <time>2015-05-03T09:51:07Z</time>
      </trkpt>
      <trkpt lat="49.94932" lon="5.18755">
        <ele>372</ele>
        <time>2015-05-03T09:51:12Z</time>
      </trkpt>
      <trkpt lat="49.94931" lon="5.18747">
        <ele>373</ele>
        <time>2015-05-03T09:51:17Z</time>
      </trkpt>
      <trkpt lat="49.94928" lon="5.18741">
        <ele>373</ele>
        <time>2015-05-03T09:51:22Z</time>
      </trkpt>
      <trkpt lat="49.94925" lon="5.18731">
        <ele>373</ele>
        <time>2015-05-03T09:51:28Z</time>
      </trkpt>
      <trkpt lat="49.94923" lon="5.18724">
        <ele>374</ele>
        <time>2015-05-03T09:51:33Z</time>
      </trkpt>
      <trkpt lat="49.9492" lon="5.18714">
        <ele>374</ele>
        <time>2015-05-03T09:51:39Z</time>
      </trkpt>
      <trkpt lat="49.94918" lon="5.18706">
        <ele>374</ele>
        <time>2015-05-03T09:51:44Z</time>
      </trkpt>
      <trkpt lat="49.94915" lon="5.18698">
        <ele>375</ele>
        <time>2015-05-03T09:51:50Z</time>
      </trkpt>
      <trkpt lat="49.94913" lon="5.18691">
        <ele>376</ele>
        <time>2015-05-03T09:51:55Z</time>
      </trkpt>
      <trkpt lat="49.94911" lon="5.18686">
        <ele>375</ele>
        <time>2015-05-03T09:52:01Z</time>
      </trkpt>
      <trkpt lat="49.94909" lon="5.18682">
        <ele>375</ele>
        <time>2015-05-03T09:52:06Z</time>
      </trkpt>
      <trkpt lat="49.94906" lon="5.18675">
        <ele>375</ele>
        <time>2015-05-03T09:52:12Z</time>
      </trkpt>
      <trkpt lat="49.94904" lon="5.18669">
        <ele>375</ele>
        <time>2015-05-03T09:52:17Z</time>
      </trkpt>
      <trkpt lat="49.94903" lon="5.1866">
        <ele>375</ele>
        <time>2015-05-03T09:52:23Z</time>
      </trkpt>
      <trkpt lat="49.94901" lon="5.18652">
        <ele>375</ele>
        <time>2015-05-03T09:52:29Z</time>
      </trkpt>
      <trkpt lat="49.94898" lon="5.18644">
        <ele>377</ele>
        <time>2015-05-03T09:52:34Z</time>
      </trkpt>
      <trkpt lat="49.94895" lon="5.18634">
        <ele>377</ele>
        <time>2015-05-03T09:52:40Z</time>
      </trkpt>
      <trkpt lat="49.94893" lon="5.18624">
        <ele>377</ele>
        <time>2015-05-03T09:52:46Z</time>
      </trkpt>
      <trkpt lat="49.94892" lon="5.18614">
        <ele>378</ele>
        <time>2015-05-03T09:52:52Z</time>
      </trkpt>
      <trkpt lat="49.94891" lon="5.18606">
        <ele>378</ele>
        <time>2015-05-03T09:52:57Z</time>
      </trkpt>
      <trkpt lat="49.94889" lon="5.18594">
        <ele>379</ele>
        <time>2015-05-03T09:53:03Z</time>
      </trkpt>
      <trkpt lat="49.94887" lon="5.18585">
        <ele>379</ele>
        <time>2015-05-03T09:53:08Z</time>
      </trkpt>
      <trkpt lat="49.94884" lon="5.18574">
        <ele>380</ele>
        <time>2015-05-03T09:53:14Z</time>
      </trkpt>
      <trkpt lat="49.94882" lon="5.18566">
        <ele>380</ele>
        <time>2015-05-03T09:53:20Z</time>
      </trkpt>
      <trkpt lat="49.9488" lon="5.18561">
        <ele>380</ele>
        <time>2015-05-03T09:53:25Z</time>
      </trkpt>
      <trkpt lat="49.94878" lon="5.18554">
        <ele>380</ele>
        <time>2015-05-03T09:53:30Z</time>
      </trkpt>
      <trkpt lat="49.94877" lon="5.18546">
        <ele>381</ele>
        <time>2015-05-03T09:53:35Z</time>
      </trkpt>
      <trkpt lat="49.94877" lon="5.18538">
        <ele>381</ele>
        <time>2015-05-03T09:53:40Z</time>
      </trkpt>
      <trkpt lat="49.94877" lon="5.18527">
        <ele>382</ele>
        <time>2015-05-03T09:53:46Z</time>
      </trkpt>
      <trkpt lat="49.94876" lon="5.18514">
        <ele>383</ele>
        <time>2015-05-03T09:53:52Z</time>
      </trkpt>
      <trkpt lat="49.94875" lon="5.18502">
        <ele>383</ele>
        <time>2015-05-03T09:53:58Z</time>
      </trkpt>
      <trkpt lat="49.94874" lon="5.1849">
        <ele>384</ele>
        <time>2015-05-03T09:54:04Z</time>
      </trkpt>
      <trkpt lat="49.94873" lon="5.18479">
        <ele>384</ele>
        <time>2015-05-03T09:54:09Z</time>
      </trkpt>
      <trkpt lat="49.94872" lon="5.18468">
        <ele>384</ele>
        <time>2015-05-03T09:54:15Z</time>
      </trkpt>
      <trkpt lat="49.9487" lon="5.18458">
        <ele>384</ele>
        <time>2015-05-03T09:54:20Z</time>
      </trkpt>
      <trkpt lat="49.94869" lon="5.18448">
        <ele>381</ele>
        <time>2015-05-03T09:54:25Z</time>
      </trkpt>
      <trkpt lat="49.94868" lon="5.18437">
        <ele>378</ele>
        <time>2015-05-03T09:54:31Z</time>
      </trkpt>
      <trkpt lat="49.94867" lon="5.18426">
        <ele>379</ele>
        <time>2015-05-03T09:54:37Z</time>
      </trkpt>
      <trkpt lat="49.94865" lon="5.18414">
        <ele>379</ele>
        <time>2015-05-03T09:54:43Z</time>
      </trkpt>
      <trkpt lat="49.94863" lon="5.18402">
        <ele>379</ele>
        <time>2015-05-03T09:54:49Z</time>
      </trkpt>
      <trkpt lat="49.94862" lon="5.18392">
        <ele>379</ele>
        <time>2015-05-03T09:54:54Z</time>
      </trkpt>
      <trkpt lat="49.94861" lon="5.18381">
        <ele>379</ele>
        <time>2015-05-03T09:54:59Z</time>
      </trkpt>
      <trkpt lat="49.94859" lon="5.18369">
        <ele>380</ele>
        <time>2015-05-03T09:55:05Z</time>
      </trkpt>
      <trkpt lat="49.94858" lon="5.18359">
        <ele>379</ele>
        <time>2015-05-03T09:55:10Z</time>
      </trkpt>
      <trkpt lat="49.94857" lon="5.18349">
        <ele>379</ele>
        <time>2015-05-03T09:55:15Z</time>
      </trkpt>
      <trkpt lat="49.94855" lon="5.18335">
        <ele>380</ele>
        <time>2015-05-03T09:55:21Z</time>
      </trkpt>
      <trkpt lat="49.94854" lon="5.18323">
        <ele>380</ele>
        <time>2015-05-03T09:55:27Z</time>
      </trkpt>
      <trkpt lat="49.94852" lon="5.18313">
        <ele>379</ele>
        <time>2015-05-03T09:55:32Z</time>
      </trkpt>
      <trkpt lat="49.9485" lon="5.18304">
        <ele>379</ele>
        <time>2015-05-03T09:55:37Z</time>
      </trkpt>
      <trkpt lat="49.94849" lon="5.18294">
        <ele>380</ele>
        <time>2015-05-03T09:55:42Z</time>
      </trkpt>
      <trkpt lat="49.94847" lon="5.18284">
        <ele>379</ele>
        <time>2015-05-03T09:55:47Z</time>
      </trkpt>
      <trkpt lat="49.94846" lon="5.18273">
        <ele>380</ele>
        <time>2015-05-03T09:55:52Z</time>
      </trkpt>
      <trkpt lat="49.94843" lon="5.18263">
        <ele>379</ele>
        <time>2015-05-03T09:55:57Z</time>
      </trkpt>
      <trkpt lat="49.94842" lon="5.18251">
        <ele>379</ele>
        <time>2015-05-03T09:56:03Z</time>
      </trkpt>
      <trkpt lat="49.94842" lon="5.18242">
        <ele>379</ele>
        <time>2015-05-03T09:56:08Z</time>
      </trkpt>
      <trkpt lat="49.94842" lon="5.18233">
        <ele>379</ele>
        <time>2015-05-03T09:56:13Z</time>
      </trkpt>
      <trkpt lat="49.94841" lon="5.18222">
        <ele>380</ele>
        <time>2015-05-03T09:56:18Z</time>
      </trkpt>
      <trkpt lat="49.94839" lon="5.18211">
        <ele>379</ele>
        <time>2015-05-03T09:56:24Z</time>
      </trkpt>
      <trkpt lat="49.94837" lon="5.18201">
        <ele>379</ele>
        <time>2015-05-03T09:56:29Z</time>
      </trkpt>
      <trkpt lat="49.94836" lon="5.18192">
        <ele>380</ele>
        <time>2015-05-03T09:56:34Z</time>
      </trkpt>
      <trkpt lat="49.94834" lon="5.1818">
        <ele>380</ele>
        <time>2015-05-03T09:56:40Z</time>
      </trkpt>
      <trkpt lat="49.94833" lon="5.18169">
        <ele>379</ele>
        <time>2015-05-03T09:56:45Z</time>
      </trkpt>
      <trkpt lat="49.94831" lon="5.18159">
        <ele>380</ele>
        <time>2015-05-03T09:56:50Z</time>
      </trkpt>
      <trkpt lat="49.9483" lon="5.18149">
        <ele>380</ele>
        <time>2015-05-03T09:56:55Z</time>
      </trkpt>
      <trkpt lat="49.94829" lon="5.1814">
        <ele>381</ele>
        <time>2015-05-03T09:57:00Z</time>
      </trkpt>
      <trkpt lat="49.94829" lon="5.18131">
        <ele>381</ele>
        <time>2015-05-03T09:57:05Z</time>
      </trkpt>
      <trkpt lat="49.94828" lon="5.18122">
        <ele>381</ele>
        <time>2015-05-03T09:57:10Z</time>
      </trkpt>
      <trkpt lat="49.94827" lon="5.18114">
        <ele>382</ele>
        <time>2015-05-03T09:57:15Z</time>
      </trkpt>
      <trkpt lat="49.94826" lon="5.18103">
        <ele>382</ele>
        <time>2015-05-03T09:57:21Z</time>
      </trkpt>
      <trkpt lat="49.94825" lon="5.18091">
        <ele>382</ele>
        <time>2015-05-03T09:57:27Z</time>
      </trkpt>
      <trkpt lat="49.94823" lon="5.18082">
        <ele>383</ele>
        <time>2015-05-03T09:57:32Z</time>
      </trkpt>
      <trkpt lat="49.9482" lon="5.18075">
        <ele>383</ele>
        <time>2015-05-03T09:57:37Z</time>
      </trkpt>
      <trkpt lat="49.94817" lon="5.18069">
        <ele>384</ele>
        <time>2015-05-03T09:57:42Z</time>
      </trkpt>
      <trkpt lat="49.94812" lon="5.18063">
        <ele>384</ele>
        <time>2015-05-03T09:57:47Z</time>
      </trkpt>
      <trkpt lat="49.94808" lon="5.18059">
        <ele>384</ele>
        <time>2015-05-03T09:57:53Z</time>
      </trkpt>
      <trkpt lat="49.94803" lon="5.18058">
        <ele>384</ele>
        <time>2015-05-03T09:57:58Z</time>
      </trkpt>
      <trkpt lat="49.94798" lon="5.18053">
        <ele>384</ele>
        <time>2015-05-03T09:58:04Z</time>
      </trkpt>
      <trkpt lat="49.94795" lon="5.18046">
        <ele>385</ele>
        <time>2015-05-03T09:58:09Z</time>
      </trkpt>
      <trkpt lat="49.94794" lon="5.18038">
        <ele>385</ele>
        <time>2015-05-03T09:58:14Z</time>
      </trkpt>
      <trkpt lat="49.94793" lon="5.18029">
        <ele>385</ele>
        <time>2015-05-03T09:58:19Z</time>
      </trkpt>
      <trkpt lat="49.94791" lon="5.18019">
        <ele>386</ele>
        <time>2015-05-03T09:58:24Z</time>
      </trkpt>
      <trkpt lat="49.94791" lon="5.18005">
        <ele>387</ele>
        <time>2015-05-03T09:58:30Z</time>
      </trkpt>
      <trkpt lat="49.9479" lon="5.17992">
        <ele>387</ele>
        <time>2015-05-03T09:58:36Z</time>
      </trkpt>
      <trkpt lat="49.9479" lon="5.17984">
        <ele>387</ele>
        <time>2015-05-03T09:58:41Z</time>
      </trkpt>
      <trkpt lat="49.94788" lon="5.17974">
        <ele>388</ele>
        <time>2015-05-03T09:58:46Z</time>
      </trkpt>
      <trkpt lat="49.94785" lon="5.17962">
        <ele>388</ele>
        <time>2015-05-03T09:58:52Z</time>
      </trkpt>
      <trkpt lat="49.94782" lon="5.1795">
        <ele>388</ele>
        <time>2015-05-03T09:58:58Z</time>
      </trkpt>
      <trkpt lat="49.94781" lon="5.17939">
        <ele>388</ele>
        <time>2015-05-03T09:59:04Z</time>
      </trkpt>
      <trkpt lat="49.9478" lon="5.17927">
        <ele>389</ele>
        <time>2015-05-03T09:59:10Z</time>
      </trkpt>
      <trkpt lat="49.94779" lon="5.17915">
        <ele>390</ele>
        <time>2015-05-03T09:59:16Z</time>
      </trkpt>
      <trkpt lat="49.94778" lon="5.17904">
        <ele>390</ele>
        <time>2015-05-03T09:59:22Z</time>
      </trkpt>
      <trkpt lat="49.94778" lon="5.17892">
        <ele>390</ele>
        <time>2015-05-03T09:59:28Z</time>
      </trkpt>
      <trkpt lat="49.94778" lon="5.17882">
        <ele>391</ele>
        <time>2015-05-03T09:59:33Z</time>
      </trkpt>
      <trkpt lat="49.94777" lon="5.1787">
        <ele>391</ele>
        <time>2015-05-03T09:59:39Z</time>
      </trkpt>
      <trkpt lat="49.94776" lon="5.1786">
        <ele>391</ele>
        <time>2015-05-03T09:59:45Z</time>
      </trkpt>
      <trkpt lat="49.94777" lon="5.17849">
        <ele>392</ele>
        <time>2015-05-03T09:59:51Z</time>
      </trkpt>
      <trkpt lat="49.94776" lon="5.17839">
        <ele>392</ele>
        <time>2015-05-03T09:59:56Z</time>
      </trkpt>
      <trkpt lat="49.94777" lon="5.17829">
        <ele>393</ele>
        <time>2015-05-03T10:00:01Z</time>
      </trkpt>
      <trkpt lat="49.94777" lon="5.17818">
        <ele>393</ele>
        <time>2015-05-03T10:00:06Z</time>
      </trkpt>
      <trkpt lat="49.94776" lon="5.17805">
        <ele>393</ele>
        <time>2015-05-03T10:00:12Z</time>
      </trkpt>
      <trkpt lat="49.94775" lon="5.17794">
        <ele>393</ele>
        <time>2015-05-03T10:00:17Z</time>
      </trkpt>
      <trkpt lat="49.94775" lon="5.17781">
        <ele>393</ele>
        <time>2015-05-03T10:00:23Z</time>
      </trkpt>
      <trkpt lat="49.94775" lon="5.17767">
        <ele>394</ele>
        <time>2015-05-03T10:00:29Z</time>
      </trkpt>
      <trkpt lat="49.94773" lon="5.17755">
        <ele>394</ele>
        <time>2015-05-03T10:00:35Z</time>
      </trkpt>
      <trkpt lat="49.94772" lon="5.17745">
        <ele>394</ele>
        <time>2015-05-03T10:00:40Z</time>
      </trkpt>
      <trkpt lat="49.94772" lon="5.17735">
        <ele>395</ele>
        <time>2015-05-03T10:00:45Z</time>
      </trkpt>
      <trkpt lat="49.94773" lon="5.17726">
        <ele>395</ele>
        <time>2015-05-03T10:00:50Z</time>
      </trkpt>
      <trkpt lat="49.94774" lon="5.17717">
        <ele>395</ele>
        <time>2015-05-03T10:00:55Z</time>
      </trkpt>
      <trkpt lat="49.94775" lon="5.17707">
        <ele>395</ele>
        <time>2015-05-03T10:01:00Z</time>
      </trkpt>
      <trkpt lat="49.94775" lon="5.17694">
        <ele>395</ele>
        <time>2015-05-03T10:01:06Z</time>
      </trkpt>
      <trkpt lat="49.94775" lon="5.17684">
        <ele>395</ele>
        <time>2015-05-03T10:01:11Z</time>
      </trkpt>
      <trkpt lat="49.94774" lon="5.17672">
        <ele>396</ele>
        <time>2015-05-03T10:01:17Z</time>
      </trkpt>
      <trkpt lat="49.94773" lon="5.1766">
        <ele>396</ele>
        <time>2015-05-03T10:01:23Z</time>
      </trkpt>
      <trkpt lat="49.94772" lon="5.17646">
        <ele>397</ele>
        <time>2015-05-03T10:01:29Z</time>
      </trkpt>
      <trkpt lat="49.94771" lon="5.17635">
        <ele>397</ele>
        <time>2015-05-03T10:01:35Z</time>
      </trkpt>
      <trkpt lat="49.9477" lon="5.17621">
        <ele>396</ele>
        <time>2015-05-03T10:01:41Z</time>
      </trkpt>
      <trkpt lat="49.9477" lon="5.17611">
        <ele>396</ele>
        <time>2015-05-03T10:01:46Z</time>
      </trkpt>
      <trkpt lat="49.9477" lon="5.17599">
        <ele>397</ele>
        <time>2015-05-03T10:01:52Z</time>
      </trkpt>
      <trkpt lat="49.94769" lon="5.17587">
        <ele>398</ele>
        <time>2015-05-03T10:01:58Z</time>
      </trkpt>
      <trkpt lat="49.94768" lon="5.17575">
        <ele>398</ele>
        <time>2015-05-03T10:02:04Z</time>
      </trkpt>
      <trkpt lat="49.94767" lon="5.17563">
        <ele>399</ele>
        <time>2015-05-03T10:02:10Z</time>
      </trkpt>
      <trkpt lat="49.94766" lon="5.17557">
        <ele>399</ele>
        <time>2015-05-03T10:02:15Z</time>
      </trkpt>
      <trkpt lat="49.94765" lon="5.17553">
        <ele>399</ele>
        <time>2015-05-03T10:02:21Z</time>
      </trkpt>
      <trkpt lat="49.94765" lon="5.17546">
        <ele>399</ele>
        <time>2015-05-03T10:02:27Z</time>
      </trkpt>
      <trkpt lat="49.94765" lon="5.17542">
        <ele>398</ele>
        <time>2015-05-03T10:02:32Z</time>
      </trkpt>
      <trkpt lat="49.94764" lon="5.17537">
        <ele>398</ele>
        <time>2015-05-03T10:02:38Z</time>
      </trkpt>
      <trkpt lat="49.94764" lon="5.17531">
        <ele>399</ele>
        <time>2015-05-03T10:02:44Z</time>
      </trkpt>
      <trkpt lat="49.94764" lon="5.17528">
        <ele>399</ele>
        <time>2015-05-03T10:02:50Z</time>
      </trkpt>
      <trkpt lat="49.94764" lon="5.17524">
        <ele>398</ele>
        <time>2015-05-03T10:02:55Z</time>
      </trkpt>
      <trkpt lat="49.94764" lon="5.17517">
        <ele>398</ele>
        <time>2015-05-03T10:03:01Z</time>
      </trkpt>
      <trkpt lat="49.94763" lon="5.1751">
        <ele>399</ele>
        <time>2015-05-03T10:03:07Z</time>
      </trkpt>
      <trkpt lat="49.94762" lon="5.17502">
        <ele>399</ele>
        <time>2015-05-03T10:03:12Z</time>
      </trkpt>
      <trkpt lat="49.94762" lon="5.17495">
        <ele>399</ele>
        <time>2015-05-03T10:03:17Z</time>
      </trkpt>
      <trkpt lat="49.94762" lon="5.17488">
        <ele>399</ele>
        <time>2015-05-03T10:03:22Z</time>
      </trkpt>
      <trkpt lat="49.94762" lon="5.17481">
        <ele>399</ele>
        <time>2015-05-03T10:03:27Z</time>
      </trkpt>
      <trkpt lat="49.94762" lon="5.17473">
        <ele>399</ele>
        <time>2015-05-03T10:03:32Z</time>
      </trkpt>
      <trkpt lat="49.94762" lon="5.17463">
        <ele>399</ele>
        <time>2015-05-03T10:03:38Z</time>
      </trkpt>
      <trkpt lat="49.94762" lon="5.17454">
        <ele>400</ele>
        <time>2015-05-03T10:03:44Z</time>
      </trkpt>
      <trkpt lat="49.94762" lon="5.17446">
        <ele>399</ele>
        <time>2015-05-03T10:03:49Z</time>
      </trkpt>
      <trkpt lat="49.94763" lon="5.17435">
        <ele>399</ele>
        <time>2015-05-03T10:03:55Z</time>
      </trkpt>
      <trkpt lat="49.94762" lon="5.17424">
        <ele>400</ele>
        <time>2015-05-03T10:04:00Z</time>
      </trkpt>
      <trkpt lat="49.94762" lon="5.17413">
        <ele>400</ele>
        <time>2015-05-03T10:04:05Z</time>
      </trkpt>
      <trkpt lat="49.94762" lon="5.17403">
        <ele>400</ele>
        <time>2015-05-03T10:04:10Z</time>
      </trkpt>
      <trkpt lat="49.94762" lon="5.17394">
        <ele>400</ele>
        <time>2015-05-03T10:04:15Z</time>
      </trkpt>
      <trkpt lat="49.94763" lon="5.17383">
        <ele>400</ele>
        <time>2015-05-03T10:04:21Z</time>
      </trkpt>
      <trkpt lat="49.94765" lon="5.17372">
        <ele>400</ele>
        <time>2015-05-03T10:04:26Z</time>
      </trkpt>
      <trkpt lat="49.94765" lon="5.17358">
        <ele>400</ele>
        <time>2015-05-03T10:04:32Z</time>
      </trkpt>
      <trkpt lat="49.94766" lon="5.17347">
        <ele>400</ele>
        <time>2015-05-03T10:04:37Z</time>
      </trkpt>
      <trkpt lat="49.94767" lon="5.17335">
        <ele>400</ele>
        <time>2015-05-03T10:04:43Z</time>
      </trkpt>
      <trkpt lat="49.94767" lon="5.17325">
        <ele>400</ele>
        <time>2015-05-03T10:04:48Z</time>
      </trkpt>
      <trkpt lat="49.94767" lon="5.17316">
        <ele>400</ele>
        <time>2015-05-03T10:04:53Z</time>
      </trkpt>
      <trkpt lat="49.94767" lon="5.17304">
        <ele>400</ele>
        <time>2015-05-03T10:04:59Z</time>
      </trkpt>
      <trkpt lat="49.94766" lon="5.17296">
        <ele>400</ele>
        <time>2015-05-03T10:05:04Z</time>
      </trkpt>
      <trkpt lat="49.94764" lon="5.17283">
        <ele>400</ele>
        <time>2015-05-03T10:05:10Z</time>
      </trkpt>
      <trkpt lat="49.94763" lon="5.17272">
        <ele>400</ele>
        <time>2015-05-03T10:05:16Z</time>
      </trkpt>
      <trkpt lat="49.94761" lon="5.17262">
        <ele>400</ele>
        <time>2015-05-03T10:05:21Z</time>
      </trkpt>
      <trkpt lat="49.94759" lon="5.17249">
        <ele>400</ele>
        <time>2015-05-03T10:05:27Z</time>
      </trkpt>
      <trkpt lat="49.94758" lon="5.17238">
        <ele>400</ele>
        <time>2015-05-03T10:05:33Z</time>
      </trkpt>
      <trkpt lat="49.94755" lon="5.17228">
        <ele>400</ele>
        <time>2015-05-03T10:05:38Z</time>
      </trkpt>
      <trkpt lat="49.94753" lon="5.17217">
        <ele>400</ele>
        <time>2015-05-03T10:05:44Z</time>
      </trkpt>
      <trkpt lat="49.94752" lon="5.17207">
        <ele>400</ele>
        <time>2015-05-03T10:05:49Z</time>
      </trkpt>
      <trkpt lat="49.94751" lon="5.17196">
        <ele>399</ele>
        <time>2015-05-03T10:05:55Z</time>
      </trkpt>
      <trkpt lat="49.9475" lon="5.17185">
        <ele>399</ele>
        <time>2015-05-03T10:06:01Z</time>
      </trkpt>
      <trkpt lat="49.9475" lon="5.17176">
        <ele>399</ele>
        <time>2015-05-03T10:06:06Z</time>
      </trkpt>
      <trkpt lat="49.94748" lon="5.17166">
        <ele>399</ele>
        <time>2015-05-03T10:06:12Z</time>
      </trkpt>
      <trkpt lat="49.94747" lon="5.17158">
        <ele>399</ele>
        <time>2015-05-03T10:06:17Z</time>
      </trkpt>
      <trkpt lat="49.94746" lon="5.17151">
        <ele>399</ele>
        <time>2015-05-03T10:06:22Z</time>
      </trkpt>
      <trkpt lat="49.94742" lon="5.17146">
        <ele>399</ele>
        <time>2015-05-03T10:06:28Z</time>
      </trkpt>
      <trkpt lat="49.9474" lon="5.17145">
        <ele>398</ele>
        <time>2015-05-03T10:06:34Z</time>
      </trkpt>
      <trkpt lat="49.94739" lon="5.17144">
        <ele>398</ele>
        <time>2015-05-03T10:06:39Z</time>
      </trkpt>
      <trkpt lat="49.94734" lon="5.17142">
        <ele>397</ele>
        <time>2015-05-03T10:06:44Z</time>
      </trkpt>
      <trkpt lat="49.9473" lon="5.17141">
        <ele>397</ele>
        <time>2015-05-03T10:06:50Z</time>
      </trkpt>
      <trkpt lat="49.9473" lon="5.17144">
        <ele>397</ele>
        <time>2015-05-03T10:06:56Z</time>
      </trkpt>
      <trkpt lat="49.94728" lon="5.17145">
        <ele>398</ele>
        <time>2015-05-03T10:07:01Z</time>
      </trkpt>
      <trkpt lat="49.9473" lon="5.17148">
        <ele>398</ele>
        <time>2015-05-03T10:07:07Z</time>
      </trkpt>
      <trkpt lat="49.94729" lon="5.17149">
        <ele>398</ele>
        <time>2015-05-03T10:07:12Z</time>
      </trkpt>
      <trkpt lat="49.9473" lon="5.1715">
        <ele>397</ele>
        <time>2015-05-03T10:07:17Z</time>
      </trkpt>
      <trkpt lat="49.94726" lon="5.17146">
        <ele>396</ele>
        <time>2015-05-03T10:07:23Z</time>
      </trkpt>
      <trkpt lat="49.94721" lon="5.17142">
        <ele>396</ele>
        <time>2015-05-03T10:07:29Z</time>
      </trkpt>
      <trkpt lat="49.94717" lon="5.17138">
        <ele>396</ele>
        <time>2015-05-03T10:07:34Z</time>
      </trkpt>
      <trkpt lat="49.94713" lon="5.17136">
        <ele>396</ele>
        <time>2015-05-03T10:07:39Z</time>
      </trkpt>
      <trkpt lat="49.94709" lon="5.17134">
        <ele>396</ele>
        <time>2015-05-03T10:07:44Z</time>
      </trkpt>
      <trkpt lat="49.94702" lon="5.17132">
        <ele>396</ele>
        <time>2015-05-03T10:07:50Z</time>
      </trkpt>
      <trkpt lat="49.94697" lon="5.17129">
        <ele>396</ele>
        <time>2015-05-03T10:07:55Z</time>
      </trkpt>
      <trkpt lat="49.9469" lon="5.17126">
        <ele>396</ele>
        <time>2015-05-03T10:08:00Z</time>
      </trkpt>
      <trkpt lat="49.94685" lon="5.17123">
        <ele>395</ele>
        <time>2015-05-03T10:08:05Z</time>
      </trkpt>
      <trkpt lat="49.94678" lon="5.17117">
        <ele>395</ele>
        <time>2015-05-03T10:08:11Z</time>
      </trkpt>
      <trkpt lat="49.94671" lon="5.17112">
        <ele>395</ele>
        <time>2015-05-03T10:08:17Z</time>
      </trkpt>
      <trkpt lat="49.94665" lon="5.17106">
        <ele>395</ele>
        <time>2015-05-03T10:08:23Z</time>
      </trkpt>
      <trkpt lat="49.9466" lon="5.17102">
        <ele>394</ele>
        <time>2015-05-03T10:08:28Z</time>
      </trkpt>
      <trkpt lat="49.94654" lon="5.17098">
        <ele>394</ele>
        <time>2015-05-03T10:08:33Z</time>
      </trkpt>
      <trkpt lat="49.94648" lon="5.17096">
        <ele>393</ele>
        <time>2015-05-03T10:08:39Z</time>
      </trkpt>
      <trkpt lat="49.94641" lon="5.17093">
        <ele>393</ele>
        <time>2015-05-03T10:08:44Z</time>
      </trkpt>
      <trkpt lat="49.94636" lon="5.1709">
        <ele>393</ele>
        <time>2015-05-03T10:08:49Z</time>
      </trkpt>
      <trkpt lat="49.94631" lon="5.17087">
        <ele>392</ele>
        <time>2015-05-03T10:08:55Z</time>
      </trkpt>
      <trkpt lat="49.94625" lon="5.17085">
        <ele>392</ele>
        <time>2015-05-03T10:09:00Z</time>
      </trkpt>
      <trkpt lat="49.94618" lon="5.1708">
        <ele>392</ele>
        <time>2015-05-03T10:09:06Z</time>
      </trkpt>
      <trkpt lat="49.94611" lon="5.17076">
        <ele>392</ele>
        <time>2015-05-03T10:09:12Z</time>
      </trkpt>
      <trkpt lat="49.94605" lon="5.17072">
        <ele>392</ele>
        <time>2015-05-03T10:09:17Z</time>
      </trkpt>
      <trkpt lat="49.946" lon="5.17068">
        <ele>391</ele>
        <time>2015-05-03T10:09:22Z</time>
      </trkpt>
      <trkpt lat="49.94592" lon="5.17064">
        <ele>391</ele>
        <time>2015-05-03T10:09:28Z</time>
      </trkpt>
      <trkpt lat="49.94586" lon="5.17061">
        <ele>390</ele>
        <time>2015-05-03T10:09:33Z</time>
      </trkpt>
      <trkpt lat="49.94578" lon="5.17058">
        <ele>390</ele>
        <time>2015-05-03T10:09:39Z</time>
      </trkpt>
      <trkpt lat="49.9457" lon="5.17054">
        <ele>389</ele>
        <time>2015-05-03T10:09:45Z</time>
      </trkpt>
      <trkpt lat="49.94564" lon="5.17051">
        <ele>389</ele>
        <time>2015-05-03T10:09:50Z</time>
      </trkpt>
      <trkpt lat="49.94559" lon="5.17048">
        <ele>388</ele>
        <time>2015-05-03T10:09:55Z</time>
      </trkpt>
      <trkpt lat="49.94552" lon="5.17047">
        <ele>388</ele>
        <time>2015-05-03T10:10:01Z</time>
      </trkpt>
      <trkpt lat="49.94547" lon="5.17048">
        <ele>388</ele>
        <time>2015-05-03T10:10:06Z</time>
      </trkpt>
      <trkpt lat="49.94542" lon="5.17051">
        <ele>387</ele>
        <time>2015-05-03T10:10:11Z</time>
      </trkpt>
      <trkpt lat="49.94537" lon="5.17055">
        <ele>387</ele>
        <time>2015-05-03T10:10:16Z</time>
      </trkpt>
      <trkpt lat="49.94532" lon="5.1706">
        <ele>386</ele>
        <time>2015-05-03T10:10:21Z</time>
      </trkpt>
      <trkpt lat="49.94527" lon="5.17065">
        <ele>386</ele>
        <time>2015-05-03T10:10:27Z</time>
      </trkpt>
      <trkpt lat="49.94523" lon="5.1707">
        <ele>386</ele>
        <time>2015-05-03T10:10:32Z</time>
      </trkpt>
      <trkpt lat="49.94519" lon="5.17075">
        <ele>386</ele>
        <time>2015-05-03T10:10:37Z</time>
      </trkpt>
      <trkpt lat="49.94513" lon="5.17083">
        <ele>386</ele>
        <time>2015-05-03T10:10:43Z</time>
      </trkpt>
      <trkpt lat="49.94508" lon="5.17088">
        <ele>385</ele>
        <time>2015-05-03T10:10:48Z</time>
      </trkpt>
      <trkpt lat="49.94504" lon="5.17094">
        <ele>385</ele>
        <time>2015-05-03T10:10:53Z</time>
      </trkpt>
      <trkpt lat="49.94499" lon="5.171">
        <ele>385</ele>
        <time>2015-05-03T10:10:59Z</time>
      </trkpt>
      <trkpt lat="49.94494" lon="5.17105">
        <ele>384</ele>
        <time>2015-05-03T10:11:04Z</time>
      </trkpt>
      <trkpt lat="49.94489" lon="5.17111">
        <ele>385</ele>
        <time>2015-05-03T10:11:09Z</time>
      </trkpt>
      <trkpt lat="49.94483" lon="5.17117">
        <ele>385</ele>
        <time>2015-05-03T10:11:15Z</time>
      </trkpt>
      <trkpt lat="49.94479" lon="5.17122">
        <ele>384</ele>
        <time>2015-05-03T10:11:20Z</time>
      </trkpt>
      <trkpt lat="49.94475" lon="5.17127">
        <ele>384</ele>
        <time>2015-05-03T10:11:25Z</time>
      </trkpt>
      <trkpt lat="49.94469" lon="5.17134">
        <ele>383</ele>
        <time>2015-05-03T10:11:31Z</time>
      </trkpt>
      <trkpt lat="49.94464" lon="5.1714">
        <ele>383</ele>
        <time>2015-05-03T10:11:36Z</time>
      </trkpt>
      <trkpt lat="49.94459" lon="5.17145">
        <ele>383</ele>
        <time>2015-05-03T10:11:41Z</time>
      </trkpt>
      <trkpt lat="49.9445" lon="5.17148">
        <ele>383</ele>
        <time>2015-05-03T10:11:47Z</time>
      </trkpt>
      <trkpt lat="49.94446" lon="5.17143">
        <ele>383</ele>
        <time>2015-05-03T10:11:52Z</time>
      </trkpt>
      <trkpt lat="49.94442" lon="5.17135">
        <ele>382</ele>
        <time>2015-05-03T10:11:57Z</time>
      </trkpt>
      <trkpt lat="49.94439" lon="5.17126">
        <ele>382</ele>
        <time>2015-05-03T10:12:02Z</time>
      </trkpt>
      <trkpt lat="49.94435" lon="5.17116">
        <ele>382</ele>
        <time>2015-05-03T10:12:08Z</time>
      </trkpt>
      <trkpt lat="49.94432" lon="5.17107">
        <ele>382</ele>
        <time>2015-05-03T10:12:13Z</time>
      </trkpt>
      <trkpt lat="49.94429" lon="5.171">
        <ele>381</ele>
        <time>2015-05-03T10:12:18Z</time>
      </trkpt>
      <trkpt lat="49.94425" lon="5.17091">
        <ele>382</ele>
        <time>2015-05-03T10:12:24Z</time>
      </trkpt>
      <trkpt lat="49.94424" lon="5.17081">
        <ele>381</ele>
        <time>2015-05-03T10:12:30Z</time>
      </trkpt>
      <trkpt lat="49.94421" lon="5.17072">
        <ele>381</ele>
        <time>2015-05-03T10:12:35Z</time>
      </trkpt>
      <trkpt lat="49.94419" lon="5.17063">
        <ele>382</ele>
        <time>2015-05-03T10:12:40Z</time>
      </trkpt>
      <trkpt lat="49.94416" lon="5.17053">
        <ele>382</ele>
        <time>2015-05-03T10:12:46Z</time>
      </trkpt>
      <trkpt lat="49.94414" lon="5.17042">
        <ele>382</ele>
        <time>2015-05-03T10:12:52Z</time>
      </trkpt>
      <trkpt lat="49.94412" lon="5.17034">
        <ele>382</ele>
        <time>2015-05-03T10:12:57Z</time>
      </trkpt>
      <trkpt lat="49.9441" lon="5.17024">
        <ele>382</ele>
        <time>2015-05-03T10:13:03Z</time>
      </trkpt>
      <trkpt lat="49.94408" lon="5.17015">
        <ele>382</ele>
        <time>2015-05-03T10:13:09Z</time>
      </trkpt>
      <trkpt lat="49.94407" lon="5.17004">
        <ele>382</ele>
        <time>2015-05-03T10:13:14Z</time>
      </trkpt>
      <trkpt lat="49.94405" lon="5.16991">
        <ele>382</ele>
        <time>2015-05-03T10:13:20Z</time>
      </trkpt>
      <trkpt lat="49.94404" lon="5.16979">
        <ele>383</ele>
        <time>2015-05-03T10:13:26Z</time>
      </trkpt>
      <trkpt lat="49.94402" lon="5.16969">
        <ele>383</ele>
        <time>2015-05-03T10:13:31Z</time>
      </trkpt>
      <trkpt lat="49.944" lon="5.16959">
        <ele>383</ele>
        <time>2015-05-03T10:13:36Z</time>
      </trkpt>
      <trkpt lat="49.94398" lon="5.16948">
        <ele>383</ele>
        <time>2015-05-03T10:13:42Z</time>
      </trkpt>
      <trkpt lat="49.94393" lon="5.16936">
        <ele>384</ele>
        <time>2015-05-03T10:13:48Z</time>
      </trkpt>
      <trkpt lat="49.94388" lon="5.16926">
        <ele>384</ele>
        <time>2015-05-03T10:13:54Z</time>
      </trkpt>
      <trkpt lat="49.94384" lon="5.16917">
        <ele>384</ele>
        <time>2015-05-03T10:13:59Z</time>
      </trkpt>
      <trkpt lat="49.94381" lon="5.16912">
        <ele>384</ele>
        <time>2015-05-03T10:14:05Z</time>
      </trkpt>
      <trkpt lat="49.9438" lon="5.16905">
        <ele>384</ele>
        <time>2015-05-03T10:14:10Z</time>
      </trkpt>
      <trkpt lat="49.94379" lon="5.16901">
        <ele>381</ele>
        <time>2015-05-03T10:14:15Z</time>
      </trkpt>
      <trkpt lat="49.94377" lon="5.16896">
        <ele>381</ele>
        <time>2015-05-03T10:14:20Z</time>
      </trkpt>
      <trkpt lat="49.94374" lon="5.16889">
        <ele>384</ele>
        <time>2015-05-03T10:14:25Z</time>
      </trkpt>
      <trkpt lat="49.94373" lon="5.16882">
        <ele>384</ele>
        <time>2015-05-03T10:14:30Z</time>
      </trkpt>
      <trkpt lat="49.94371" lon="5.16873">
        <ele>384</ele>
        <time>2015-05-03T10:14:36Z</time>
      </trkpt>
      <trkpt lat="49.94368" lon="5.16865">
        <ele>384</ele>
        <time>2015-05-03T10:14:41Z</time>
      </trkpt>
      <trkpt lat="49.94364" lon="5.16856">
        <ele>384</ele>
        <time>2015-05-03T10:14:47Z</time>
      </trkpt>
      <trkpt lat="49.94361" lon="5.16849">
        <ele>384</ele>
        <time>2015-05-03T10:14:52Z</time>
      </trkpt>
      <trkpt lat="49.94357" lon="5.16841">
        <ele>385</ele>
        <time>2015-05-03T10:14:57Z</time>
      </trkpt>
      <trkpt lat="49.94352" lon="5.16831">
        <ele>385</ele>
        <time>2015-05-03T10:15:03Z</time>
      </trkpt>
      <trkpt lat="49.94348" lon="5.16823">
        <ele>385</ele>
        <time>2015-05-03T10:15:09Z</time>
      </trkpt>
      <trkpt lat="49.94342" lon="5.16815">
        <ele>385</ele>
        <time>2015-05-03T10:15:14Z</time>
      </trkpt>
      <trkpt lat="49.94339" lon="5.16809">
        <ele>385</ele>
        <time>2015-05-03T10:15:19Z</time>
      </trkpt>
      <trkpt lat="49.94333" lon="5.16801">
        <ele>385</ele>
        <time>2015-05-03T10:15:25Z</time>
      </trkpt>
      <trkpt lat="49.94329" lon="5.16793">
        <ele>386</ele>
        <time>2015-05-03T10:15:30Z</time>
      </trkpt>
      <trkpt lat="49.94325" lon="5.16785">
        <ele>386</ele>
        <time>2015-05-03T10:15:35Z</time>
      </trkpt>
      <trkpt lat="49.9432" lon="5.16776">
        <ele>387</ele>
        <time>2015-05-03T10:15:41Z</time>
      </trkpt>
      <trkpt lat="49.94315" lon="5.16768">
        <ele>387</ele>
        <time>2015-05-03T10:15:46Z</time>
      </trkpt>
      <trkpt lat="49.94312" lon="5.16762">
        <ele>387</ele>
        <time>2015-05-03T10:15:51Z</time>
      </trkpt>
      <trkpt lat="49.94308" lon="5.1676">
        <ele>387</ele>
        <time>2015-05-03T10:15:57Z</time>
      </trkpt>
      <trkpt lat="49.94306" lon="5.16755">
        <ele>388</ele>
        <time>2015-05-03T10:16:03Z</time>
      </trkpt>
      <trkpt lat="49.94302" lon="5.16749">
        <ele>388</ele>
        <time>2015-05-03T10:16:09Z</time>
      </trkpt>
      <trkpt lat="49.94298" lon="5.16739">
        <ele>387</ele>
        <time>2015-05-03T10:16:15Z</time>
      </trkpt>
      <trkpt lat="49.94295" lon="5.16729">
        <ele>388</ele>
        <time>2015-05-03T10:16:20Z</time>
      </trkpt>
      <trkpt lat="49.94292" lon="5.1672">
        <ele>388</ele>
        <time>2015-05-03T10:16:25Z</time>
      </trkpt>
      <trkpt lat="49.94289" lon="5.1671">
        <ele>388</ele>
        <time>2015-05-03T10:16:31Z</time>
      </trkpt>
      <trkpt lat="49.94286" lon="5.16698">
        <ele>388</ele>
        <time>2015-05-03T10:16:37Z</time>
      </trkpt>
      <trkpt lat="49.94284" lon="5.16689">
        <ele>388</ele>
        <time>2015-05-03T10:16:42Z</time>
      </trkpt>
      <trkpt lat="49.94283" lon="5.16679">
        <ele>389</ele>
        <time>2015-05-03T10:16:48Z</time>
      </trkpt>
      <trkpt lat="49.94282" lon="5.16671">
        <ele>389</ele>
        <time>2015-05-03T10:16:53Z</time>
      </trkpt>
      <trkpt lat="49.94281" lon="5.16659">
        <ele>389</ele>
        <time>2015-05-03T10:16:59Z</time>
      </trkpt>
      <trkpt lat="49.94279" lon="5.16648">
        <ele>390</ele>
        <time>2015-05-03T10:17:05Z</time>
      </trkpt>
      <trkpt lat="49.94276" lon="5.16637">
        <ele>390</ele>
        <time>2015-05-03T10:17:11Z</time>
      </trkpt>
      <trkpt lat="49.94273" lon="5.16628">
        <ele>390</ele>
        <time>2015-05-03T10:17:16Z</time>
      </trkpt>
      <trkpt lat="49.94268" lon="5.16618">
        <ele>390</ele>
        <time>2015-05-03T10:17:22Z</time>
      </trkpt>
      <trkpt lat="49.94265" lon="5.16609">
        <ele>390</ele>
        <time>2015-05-03T10:17:27Z</time>
      </trkpt>
      <trkpt lat="49.94261" lon="5.16602">
        <ele>390</ele>
        <time>2015-05-03T10:17:32Z</time>
      </trkpt>
      <trkpt lat="49.94255" lon="5.16592">
        <ele>390</ele>
        <time>2015-05-03T10:17:38Z</time>
      </trkpt>
      <trkpt lat="49.9425" lon="5.16585">
        <ele>390</ele>
        <time>2015-05-03T10:17:43Z</time>
      </trkpt>
      <trkpt lat="49.94246" lon="5.16578">
        <ele>390</ele>
        <time>2015-05-03T10:17:48Z</time>
      </trkpt>
      <trkpt lat="49.9424" lon="5.1657">
        <ele>390</ele>
        <time>2015-05-03T10:17:54Z</time>
      </trkpt>
      <trkpt lat="49.94235" lon="5.16562">
        <ele>390</ele>
        <time>2015-05-03T10:18:00Z</time>
      </trkpt>
      <trkpt lat="49.9423" lon="5.16555">
        <ele>389</ele>
        <time>2015-05-03T10:18:06Z</time>
      </trkpt>
      <trkpt lat="49.94225" lon="5.16549">
        <ele>389</ele>
        <time>2015-05-03T10:18:11Z</time>
      </trkpt>
      <trkpt lat="49.9422" lon="5.16541">
        <ele>390</ele>
        <time>2015-05-03T10:18:17Z</time>
      </trkpt>
      <trkpt lat="49.94215" lon="5.16534">
        <ele>390</ele>
        <time>2015-05-03T10:18:22Z</time>
      </trkpt>
      <trkpt lat="49.94208" lon="5.16526">
        <ele>390</ele>
        <time>2015-05-03T10:18:28Z</time>
      </trkpt>
      <trkpt lat="49.94203" lon="5.16518">
        <ele>390</ele>
        <time>2015-05-03T10:18:33Z</time>
      </trkpt>
      <trkpt lat="49.94199" lon="5.16511">
        <ele>390</ele>
        <time>2015-05-03T10:18:38Z</time>
      </trkpt>
      <trkpt lat="49.94194" lon="5.16505">
        <ele>390</ele>
        <time>2015-05-03T10:18:44Z</time>
      </trkpt>
      <trkpt lat="49.94189" lon="5.16504">
        <ele>390</ele>
        <time>2015-05-03T10:18:49Z</time>
      </trkpt>
      <trkpt lat="49.94184" lon="5.16508">
        <ele>388</ele>
        <time>2015-05-03T10:18:54Z</time>
      </trkpt>
      <trkpt lat="49.9418" lon="5.16513">
        <ele>387</ele>
        <time>2015-05-03T10:18:59Z</time>
      </trkpt>
      <trkpt lat="49.94175" lon="5.16519">
        <ele>387</ele>
        <time>2015-05-03T10:19:05Z</time>
      </trkpt>
      <trkpt lat="49.94171" lon="5.16525">
        <ele>387</ele>
        <time>2015-05-03T10:19:10Z</time>
      </trkpt>
      <trkpt lat="49.94165" lon="5.16531">
        <ele>386</ele>
        <time>2015-05-03T10:19:16Z</time>
      </trkpt>
      <trkpt lat="49.9416" lon="5.16537">
        <ele>385</ele>
        <time>2015-05-03T10:19:21Z</time>
      </trkpt>
      <trkpt lat="49.94154" lon="5.16543">
        <ele>382</ele>
        <time>2015-05-03T10:19:27Z</time>
      </trkpt>
      <trkpt lat="49.94149" lon="5.16549">
        <ele>382</ele>
        <time>2015-05-03T10:19:33Z</time>
      </trkpt>
      <trkpt lat="49.94144" lon="5.16554">
        <ele>382</ele>
        <time>2015-05-03T10:19:38Z</time>
      </trkpt>
      <trkpt lat="49.94137" lon="5.16559">
        <ele>382</ele>
        <time>2015-05-03T10:19:44Z</time>
      </trkpt>
      <trkpt lat="49.94132" lon="5.16565">
        <ele>382</ele>
        <time>2015-05-03T10:19:49Z</time>
      </trkpt>
      <trkpt lat="49.94127" lon="5.1657">
        <ele>382</ele>
        <time>2015-05-03T10:19:54Z</time>
      </trkpt>
      <trkpt lat="49.94121" lon="5.16575">
        <ele>382</ele>
        <time>2015-05-03T10:19:59Z</time>
      </trkpt>
      <trkpt lat="49.94116" lon="5.1658">
        <ele>381</ele>
        <time>2015-05-03T10:20:04Z</time>
      </trkpt>
      <trkpt lat="49.94109" lon="5.16586">
        <ele>381</ele>
        <time>2015-05-03T10:20:10Z</time>
      </trkpt>
      <trkpt lat="49.94102" lon="5.16592">
        <ele>380</ele>
        <time>2015-05-03T10:20:15Z</time>
      </trkpt>
      <trkpt lat="49.94097" lon="5.16597">
        <ele>380</ele>
        <time>2015-05-03T10:20:20Z</time>
      </trkpt>
      <trkpt lat="49.94091" lon="5.16602">
        <ele>379</ele>
        <time>2015-05-03T10:20:25Z</time>
      </trkpt>
      <trkpt lat="49.94085" lon="5.16609">
        <ele>378</ele>
        <time>2015-05-03T10:20:31Z</time>
      </trkpt>
      <trkpt lat="49.94078" lon="5.16615">
        <ele>378</ele>
        <time>2015-05-03T10:20:37Z</time>
      </trkpt>
      <trkpt lat="49.94072" lon="5.16622">
        <ele>377</ele>
        <time>2015-05-03T10:20:43Z</time>
      </trkpt>
      <trkpt lat="49.94066" lon="5.16629">
        <ele>377</ele>
        <time>2015-05-03T10:20:49Z</time>
      </trkpt>
      <trkpt lat="49.9406" lon="5.16636">
        <ele>376</ele>
        <time>2015-05-03T10:20:54Z</time>
      </trkpt>
      <trkpt lat="49.94055" lon="5.16641">
        <ele>377</ele>
        <time>2015-05-03T10:20:59Z</time>
      </trkpt>
      <trkpt lat="49.94049" lon="5.16646">
        <ele>377</ele>
        <time>2015-05-03T10:21:05Z</time>
      </trkpt>
      <trkpt lat="49.94047" lon="5.16646">
        <ele>376</ele>
        <time>2015-05-03T10:21:10Z</time>
      </trkpt>
      <trkpt lat="49.94044" lon="5.16642">
        <ele>376</ele>
        <time>2015-05-03T10:21:16Z</time>
      </trkpt>
      <trkpt lat="49.94041" lon="5.16642">
        <ele>376</ele>
        <time>2015-05-03T10:21:22Z</time>
      </trkpt>
      <trkpt lat="49.94037" lon="5.16646">
        <ele>376</ele>
        <time>2015-05-03T10:21:27Z</time>
      </trkpt>
      <trkpt lat="49.94033" lon="5.16652">
        <ele>376</ele>
        <time>2015-05-03T10:21:32Z</time>
      </trkpt>
      <trkpt lat="49.94027" lon="5.1666">
        <ele>376</ele>
        <time>2015-05-03T10:21:38Z</time>
      </trkpt>
      <trkpt lat="49.94022" lon="5.16669">
        <ele>374</ele>
        <time>2015-05-03T10:21:44Z</time>
      </trkpt>
      <trkpt lat="49.94018" lon="5.16677">
        <ele>374</ele>
        <time>2015-05-03T10:21:49Z</time>
      </trkpt>
      <trkpt lat="49.94013" lon="5.16685">
        <ele>374</ele>
        <time>2015-05-03T10:21:55Z</time>
      </trkpt>
      <trkpt lat="49.94009" lon="5.16691">
        <ele>375</ele>
        <time>2015-05-03T10:22:00Z</time>
      </trkpt>
      <trkpt lat="49.94003" lon="5.16699">
        <ele>374</ele>
        <time>2015-05-03T10:22:06Z</time>
      </trkpt>
      <trkpt lat="49.93998" lon="5.16705">
        <ele>374</ele>
        <time>2015-05-03T10:22:12Z</time>
      </trkpt>
      <trkpt lat="49.93993" lon="5.16712">
        <ele>374</ele>
        <time>2015-05-03T10:22:18Z</time>
      </trkpt>
      <trkpt lat="49.9399" lon="5.16714">
        <ele>374</ele>
        <time>2015-05-03T10:22:23Z</time>
      </trkpt>
      <trkpt lat="49.93987" lon="5.16714">
        <ele>376</ele>
        <time>2015-05-03T10:22:28Z</time>
      </trkpt>
      <trkpt lat="49.93982" lon="5.16717">
        <ele>381</ele>
        <time>2015-05-03T10:22:34Z</time>
      </trkpt>
      <trkpt lat="49.93979" lon="5.16721">
        <ele>380</ele>
        <time>2015-05-03T10:22:39Z</time>
      </trkpt>
      <trkpt lat="49.93975" lon="5.16728">
        <ele>380</ele>
        <time>2015-05-03T10:22:45Z</time>
      </trkpt>
      <trkpt lat="49.9397" lon="5.16737">
        <ele>380</ele>
        <time>2015-05-03T10:22:51Z</time>
      </trkpt>
      <trkpt lat="49.93967" lon="5.16748">
        <ele>379</ele>
        <time>2015-05-03T10:22:57Z</time>
      </trkpt>
      <trkpt lat="49.93964" lon="5.16756">
        <ele>379</ele>
        <time>2015-05-03T10:23:02Z</time>
      </trkpt>
      <trkpt lat="49.93961" lon="5.16766">
        <ele>379</ele>
        <time>2015-05-03T10:23:08Z</time>
      </trkpt>
      <trkpt lat="49.93959" lon="5.16774">
        <ele>379</ele>
        <time>2015-05-03T10:23:13Z</time>
      </trkpt>
      <trkpt lat="49.93956" lon="5.16781">
        <ele>379</ele>
        <time>2015-05-03T10:23:18Z</time>
      </trkpt>
      <trkpt lat="49.93954" lon="5.1679">
        <ele>379</ele>
        <time>2015-05-03T10:23:24Z</time>
      </trkpt>
      <trkpt lat="49.93951" lon="5.16799">
        <ele>378</ele>
        <time>2015-05-03T10:23:30Z</time>
      </trkpt>
      <trkpt lat="49.93949" lon="5.16809">
        <ele>378</ele>
        <time>2015-05-03T10:23:36Z</time>
      </trkpt>
      <trkpt lat="49.93946" lon="5.16813">
        <ele>378</ele>
        <time>2015-05-03T10:23:42Z</time>
      </trkpt>
      <trkpt lat="49.93945" lon="5.16814">
        <ele>378</ele>
        <time>2015-05-03T10:23:47Z</time>
      </trkpt>
      <trkpt lat="49.93943" lon="5.16815">
        <ele>378</ele>
        <time>2015-05-03T10:23:53Z</time>
      </trkpt>
      <trkpt lat="49.93941" lon="5.16814">
        <ele>378</ele>
        <time>2015-05-03T10:23:58Z</time>
      </trkpt>
      <trkpt lat="49.93939" lon="5.16813">
        <ele>378</ele>
        <time>2015-05-03T10:24:03Z</time>
      </trkpt>
      <trkpt lat="49.93936" lon="5.16812">
        <ele>378</ele>
        <time>2015-05-03T10:24:09Z</time>
      </trkpt>
      <trkpt lat="49.93933" lon="5.16811">
        <ele>378</ele>
        <time>2015-05-03T10:24:14Z</time>
      </trkpt>
      <trkpt lat="49.93932" lon="5.16816">
        <ele>379</ele>
        <time>2015-05-03T10:24:19Z</time>
      </trkpt>
      <trkpt lat="49.93931" lon="5.16821">
        <ele>378</ele>
        <time>2015-05-03T10:24:25Z</time>
      </trkpt>
      <trkpt lat="49.9393" lon="5.16826">
        <ele>378</ele>
        <time>2015-05-03T10:24:30Z</time>
      </trkpt>
      <trkpt lat="49.9393" lon="5.16831">
        <ele>378</ele>
        <time>2015-05-03T10:24:36Z</time>
      </trkpt>
      <trkpt lat="49.9393" lon="5.16833">
        <ele>377</ele>
        <time>2015-05-03T10:24:41Z</time>
      </trkpt>
      <trkpt lat="49.93931" lon="5.16835">
        <ele>378</ele>
        <time>2015-05-03T10:24:47Z</time>
      </trkpt>
      <trkpt lat="49.93931" lon="5.16837">
        <ele>378</ele>
        <time>2015-05-03T10:24:52Z</time>
      </trkpt>
      <trkpt lat="49.93932" lon="5.16845">
        <ele>378</ele>
        <time>2015-05-03T10:24:58Z</time>
      </trkpt>
      <trkpt lat="49.93931" lon="5.16853">
        <ele>377</ele>
        <time>2015-05-03T10:25:03Z</time>
      </trkpt>
      <trkpt lat="49.93931" lon="5.16863">
        <ele>377</ele>
        <time>2015-05-03T10:25:09Z</time>
      </trkpt>
      <trkpt lat="49.93929" lon="5.16871">
        <ele>377</ele>
        <time>2015-05-03T10:25:14Z</time>
      </trkpt>
      <trkpt lat="49.93928" lon="5.16882">
        <ele>376</ele>
        <time>2015-05-03T10:25:20Z</time>
      </trkpt>
      <trkpt lat="49.93927" lon="5.16891">
        <ele>376</ele>
        <time>2015-05-03T10:25:25Z</time>
      </trkpt>
      <trkpt lat="49.93925" lon="5.169">
        <ele>376</ele>
        <time>2015-05-03T10:25:30Z</time>
      </trkpt>
      <trkpt lat="49.93923" lon="5.16909">
        <ele>375</ele>
        <time>2015-05-03T10:25:35Z</time>
      </trkpt>
      <trkpt lat="49.9392" lon="5.1692">
        <ele>375</ele>
        <time>2015-05-03T10:25:41Z</time>
      </trkpt>
      <trkpt lat="49.93917" lon="5.16928">
        <ele>375</ele>
        <time>2015-05-03T10:25:47Z</time>
      </trkpt>
      <trkpt lat="49.93913" lon="5.16937">
        <ele>374</ele>
        <time>2015-05-03T10:25:53Z</time>
      </trkpt>
      <trkpt lat="49.93909" lon="5.16945">
        <ele>374</ele>
        <time>2015-05-03T10:25:58Z</time>
      </trkpt>
      <trkpt lat="49.93903" lon="5.1695">
        <ele>375</ele>
        <time>2015-05-03T10:26:04Z</time>
      </trkpt>
      <trkpt lat="49.93896" lon="5.16953">
        <ele>375</ele>
        <time>2015-05-03T10:26:09Z</time>
      </trkpt>
      <trkpt lat="49.93888" lon="5.16956">
        <ele>375</ele>
        <time>2015-05-03T10:26:15Z</time>
      </trkpt>
      <trkpt lat="49.93882" lon="5.16958">
        <ele>374</ele>
        <time>2015-05-03T10:26:20Z</time>
      </trkpt>
      <trkpt lat="49.93875" lon="5.1696">
        <ele>374</ele>
        <time>2015-05-03T10:26:25Z</time>
      </trkpt>
      <trkpt lat="49.93869" lon="5.16959">
        <ele>374</ele>
        <time>2015-05-03T10:26:30Z</time>
      </trkpt>
      <trkpt lat="49.93863" lon="5.1696">
        <ele>373</ele>
        <time>2015-05-03T10:26:35Z</time>
      </trkpt>
      <trkpt lat="49.93858" lon="5.16959">
        <ele>373</ele>
        <time>2015-05-03T10:26:40Z</time>
      </trkpt>
      <trkpt lat="49.93855" lon="5.16959">
        <ele>374</ele>
        <time>2015-05-03T10:26:45Z</time>
      </trkpt>
      <trkpt lat="49.9385" lon="5.16958">
        <ele>374</ele>
        <time>2015-05-03T10:26:51Z</time>
      </trkpt>
      <trkpt lat="49.93846" lon="5.16956">
        <ele>373</ele>
        <time>2015-05-03T10:26:56Z</time>
      </trkpt>
      <trkpt lat="49.9384" lon="5.16953">
        <ele>373</ele>
        <time>2015-05-03T10:27:01Z</time>
      </trkpt>
      <trkpt lat="49.93835" lon="5.16951">
        <ele>374</ele>
        <time>2015-05-03T10:27:06Z</time>
      </trkpt>
      <trkpt lat="49.93831" lon="5.16951">
        <ele>374</ele>
        <time>2015-05-03T10:27:11Z</time>
      </trkpt>
      <trkpt lat="49.93827" lon="5.16952">
        <ele>374</ele>
        <time>2015-05-03T10:27:16Z</time>
      </trkpt>
      <trkpt lat="49.93823" lon="5.16953">
        <ele>374</ele>
        <time>2015-05-03T10:27:22Z</time>
      </trkpt>
      <trkpt lat="49.93816" lon="5.16955">
        <ele>374</ele>
        <time>2015-05-03T10:27:28Z</time>
      </trkpt>
      <trkpt lat="49.93811" lon="5.16955">
        <ele>375</ele>
        <time>2015-05-03T10:27:34Z</time>
      </trkpt>
      <trkpt lat="49.93803" lon="5.16955">
        <ele>375</ele>
        <time>2015-05-03T10:27:40Z</time>
      </trkpt>
      <trkpt lat="49.93797" lon="5.16955">
        <ele>376</ele>
        <time>2015-05-03T10:27:45Z</time>
      </trkpt>
      <trkpt lat="49.9379" lon="5.16949">
        <ele>376</ele>
        <time>2015-05-03T10:27:51Z</time>
      </trkpt>
      <trkpt lat="49.93785" lon="5.16945">
        <ele>376</ele>
        <time>2015-05-03T10:27:56Z</time>
      </trkpt>
      <trkpt lat="49.93777" lon="5.16939">
        <ele>378</ele>
        <time>2015-05-03T10:28:02Z</time>
      </trkpt>
      <trkpt lat="49.9377" lon="5.16933">
        <ele>385</ele>
        <time>2015-05-03T10:28:07Z</time>
      </trkpt>
      <trkpt lat="49.93764" lon="5.16928">
        <ele>385</ele>
        <time>2015-05-03T10:28:12Z</time>
      </trkpt>
      <trkpt lat="49.93758" lon="5.16923">
        <ele>384</ele>
        <time>2015-05-03T10:28:17Z</time>
      </trkpt>
      <trkpt lat="49.93752" lon="5.16917">
        <ele>382</ele>
        <time>2015-05-03T10:28:23Z</time>
      </trkpt>
      <trkpt lat="49.93747" lon="5.16912">
        <ele>382</ele>
        <time>2015-05-03T10:28:28Z</time>
      </trkpt>
      <trkpt lat="49.93742" lon="5.16907">
        <ele>381</ele>
        <time>2015-05-03T10:28:33Z</time>
      </trkpt>
      <trkpt lat="49.93737" lon="5.16903">
        <ele>381</ele>
        <time>2015-05-03T10:28:38Z</time>
      </trkpt>
      <trkpt lat="49.93732" lon="5.169">
        <ele>381</ele>
        <time>2015-05-03T10:28:43Z</time>
      </trkpt>
      <trkpt lat="49.93726" lon="5.16898">
        <ele>380</ele>
        <time>2015-05-03T10:28:48Z</time>
      </trkpt>
      <trkpt lat="49.9372" lon="5.16893">
        <ele>380</ele>
        <time>2015-05-03T10:28:54Z</time>
      </trkpt>
      <trkpt lat="49.93714" lon="5.16889">
        <ele>381</ele>
        <time>2015-05-03T10:28:59Z</time>
      </trkpt>
      <trkpt lat="49.93708" lon="5.16885">
        <ele>381</ele>
        <time>2015-05-03T10:29:04Z</time>
      </trkpt>
      <trkpt lat="49.937" lon="5.16879">
        <ele>381</ele>
        <time>2015-05-03T10:29:10Z</time>
      </trkpt>
      <trkpt lat="49.93694" lon="5.16874">
        <ele>380</ele>
        <time>2015-05-03T10:29:15Z</time>
      </trkpt>
      <trkpt lat="49.93688" lon="5.1687">
        <ele>381</ele>
        <time>2015-05-03T10:29:20Z</time>
      </trkpt>
      <trkpt lat="49.93683" lon="5.16866">
        <ele>381</ele>
        <time>2015-05-03T10:29:25Z</time>
      </trkpt>
      <trkpt lat="49.93677" lon="5.16865">
        <ele>382</ele>
        <time>2015-05-03T10:29:30Z</time>
      </trkpt>
      <trkpt lat="49.93672" lon="5.16862">
        <ele>382</ele>
        <time>2015-05-03T10:29:35Z</time>
      </trkpt>
      <trkpt lat="49.93666" lon="5.1686">
        <ele>382</ele>
        <time>2015-05-03T10:29:40Z</time>
      </trkpt>
      <trkpt lat="49.93658" lon="5.16858">
        <ele>381</ele>
        <time>2015-05-03T10:29:46Z</time>
      </trkpt>
      <trkpt lat="49.93649" lon="5.16855">
        <ele>378</ele>
        <time>2015-05-03T10:29:52Z</time>
      </trkpt>
      <trkpt lat="49.93643" lon="5.16853">
        <ele>382</ele>
        <time>2015-05-03T10:29:57Z</time>
      </trkpt>
      <trkpt lat="49.93636" lon="5.16851">
        <ele>384</ele>
        <time>2015-05-03T10:30:03Z</time>
      </trkpt>
      <trkpt lat="49.93628" lon="5.16849">
        <ele>381</ele>
        <time>2015-05-03T10:30:08Z</time>
      </trkpt>
      <trkpt lat="49.93621" lon="5.16847">
        <ele>379</ele>
        <time>2015-05-03T10:30:13Z</time>
      </trkpt>
      <trkpt lat="49.93612" lon="5.16846">
        <ele>378</ele>
        <time>2015-05-03T10:30:19Z</time>
      </trkpt>
      <trkpt lat="49.93609" lon="5.16839">
        <ele>375</ele>
        <time>2015-05-03T10:30:24Z</time>
      </trkpt>
      <trkpt lat="49.93608" lon="5.16837">
        <ele>371</ele>
        <time>2015-05-03T10:30:29Z</time>
      </trkpt>
    </trkseg>
  </trk>
</gpx>